[[{"header":{"parameterUnit":"m.s-1","parameterCategory":1,"la1":31.0,"la2":29.5877,"lo1":-88.7671,"lo2":-86.6584,"dy":0.0162,"dx":0.0185,"nx":115,"ny":88,"refTime":"2024-04-01T06:00:00:Z","depth":0,"parameterNumber":2,"parameterNumberName":"U-component_of_WINDS"},"data":[0.0,0.0,0.0,0.0,0.0,0.0,0.0,0.0,0.0,0.0,0.0,0.0,0.0,0.0,0.0,0.0,0.0,0.0,0.0,0.0,0.0,0.0,0.0,0.0,0.0,0.0,0.0,0.0,0.0,0.0,0.0,0.0,0.0,0.0,0.0,0.0,0.0,0.0,0.0,0.0,0.0,0.0,0.0,0.0,0.0,0.0,0.0,0.0,0.0,0.0,0.0,0.0,0.0,0.0,0.0,0.0,0.0,0.0,0.0,0.0,0.0,0.0,0.0,0.0,0.0,0.0,0.0,0.0,0.0,0.0,0.0,0.0,0.0,0.0,0.0,0.0,0.0,0.0,0.0,0.0,0.0,0.0,0.0,0.0,0.0,0.0,0.0,0.0,0.0,0.0,0.0,0.0,0.0,0.0,0.0,0.0,0.0,0.0,0.0,0.0,0.0,0.0,0.0,0.0,0.0,0.0,0.0,0.0,0.0,0.0,0.0,0.0,0.0,0.0,0.0,0.0,0.0,0.0,0.0,0.0,0.0,0.0,0.0,0.0,0.0,0.0,0.0,0.0,0.0,0.0,0.0,0.0,0.0,0.0,0.0,0.0,0.0,0.0,0.0,0.0,0.0,0.0,0.0,0.0,0.0,0.0,0.0,0.0,0.0,0.0,0.0,0.0,0.0,0.0,0.0,0.0,0.0,0.0,0.0,0.0,0.0,0.0,0.0,0.0,0.0,0.0,0.0,0.0,0.0,0.0,0.0,0.0,0.0,0.0,0.0,0.0,0.0,0.0,0.0,0.0,0.0,0.0,0.0,0.0,0.0,0.0,0.0,0.0,0.0,0.0,0.0,0.0,0.0,0.0,0.0,0.0,0.0,0.0,0.0,0.0,0.0,0.0,0.0,0.0,0.0,0.0,0.0,0.0,0.0,0.0,0.0,0.0,0.0,0.0,0.0,0.0,0.0,0.0,0.0,0.0,0.0,0.0,0.0,0.0,0.0,0.0,0.0,0.0,0.0,0.0,0.0,0.0,0.0,0.0,0.0,0.0,0.0,0.0,0.0,0.0,0.0,0.0,0.0,0.0,0.0,0.0,0.0,0.0,0.0,0.0,0.0,0.0,0.0,0.0,0.0,0.0,0.0,0.0,0.0,0.0,0.0,0.0,0.0,0.0,0.0,0.0,0.0,0.0,0.0,0.0,0.0,0.0,0.0,0.0,0.0,0.0,0.0,0.0,0.0,0.0,0.0,0.0,0.0,0.0,0.0,0.0,0.0,0.0,0.0,0.0,0.0,0.0,0.0,0.0,0.0,0.0,0.0,0.0,0.0,0.0,0.0,0.0,0.0,0.0,0.0,0.0,0.0,0.0,0.0,0.0,0.0,0.0,0.0,0.0,0.0,0.0,0.0,0.0,0.0,0.0,0.0,0.0,0.0,0.0,0.0,0.0,0.0,0.0,0.0,0.0,0.0,0.0,0.0,0.0,0.0,0.0,0.0,0.0,0.0,0.0,0.0,0.0,0.0,0.0,0.0,0.0,0.0,0.0,0.0,0.0,0.0,0.0,0.0,0.0,0.0,0.0,0.0,0.0,0.0,0.0,0.0,0.0,0.0,0.0,0.0,0.0,0.0,0.0,0.0,0.0,0.0,0.0,0.0,0.0,0.0,0.0,0.0,0.0,0.0,0.0,0.0,0.0,0.0,0.0,0.0,0.0,0.0,0.0,0.0,0.0,0.0,0.0,0.0,0.0,0.0,0.0,0.0,0.0,0.0,0.0,0.0,0.0,0.0,0.0,0.0,0.0,0.0,0.0,0.0,0.0,0.0,0.0,0.0,0.0,0.0,0.0,0.0,0.0,0.0,0.0,0.0,0.0,0.0,0.0,0.0,0.0,0.0,0.0,0.0,0.0,0.0,0.0,0.0,0.0,0.0,0.0,0.0,0.0,0.0,0.0,0.0,0.0,0.0,0.0,0.0,0.0,0.0,0.0,0.0,0.0,0.0,0.0,0.0,0.0,0.0,0.0,0.0,0.0,0.0,0.0,0.0,0.0,0.0,0.0,0.0,0.0,0.0,0.0,0.0,0.0,0.0,0.0,0.0,0.0,0.0,0.0,0.0,0.0,0.0,0.0,0.0,0.0,0.0,0.0,0.0,0.0,0.0,0.0,0.0,0.0,0.0,0.0,0.0,0.0,0.0,0.0,0.0,0.0,0.0,0.0,0.0,0.0,0.0,0.0,0.0,0.0,0.0,0.0,0.0,0.0,0.0,0.0,0.0,0.0,0.0,0.0,0.0,0.0,0.0,0.0,0.0,0.0,0.0,0.0,0.0,0.0,0.0,0.0,0.0,0.0,0.0,0.0,0.0,0.0,0.0,0.0,0.0,0.0,0.0,0.0,0.0,0.0,0.0,0.0,0.0,0.0,0.0,0.0,0.0,0.0,0.0,0.0,0.0,0.0,0.0,0.0,0.0,0.0,0.0,0.0,0.0,0.0,0.0,0.0,0.0,0.0,0.0,0.0,0.0,0.0,0.0,0.0,0.0,0.0,0.0,0.0,0.0,0.0,0.0,0.0,0.0,0.0,0.0,0.0,0.0,0.0,0.0,0.0,0.0,0.0,0.0,0.0,0.0,0.0,0.0,0.0,0.0,0.0,0.0,0.0,0.0,0.0,0.0,0.0,0.0,0.0,0.0,0.0,0.0,0.0,0.0,0.0,0.0,0.0,0.0,0.0,0.0,0.0,0.0,0.0,0.0,0.0,0.0,0.0,0.0,0.0,0.0,0.0,0.0,0.0,0.0,0.0,0.0,0.0,0.0,0.0,0.0,0.0,0.0,0.0,0.0,0.0,0.0,0.0,0.0,0.0,0.0,0.0,0.0,0.0,0.0,0.0,0.0,0.0,0.0,0.0,0.0,0.0,0.0,0.0,0.0,0.0,0.0,0.0,0.0,0.0,0.0,0.0,0.0,0.0,0.0,0.0,0.0,0.0,0.0,0.0,0.0,0.0,0.0,0.0,0.0,0.0,0.0,0.0,0.0,0.0,0.0,0.0,0.0,0.0,0.0,0.0,0.0,0.0,0.0,0.0,0.0,0.0,0.0,0.0,0.0,0.0,0.0,0.0,0.0,0.0,0.0,0.0,0.0,0.0,0.0,0.0,0.0,0.0,0.0,0.0,0.0,0.0,0.0,0.0,0.0,0.0,0.0,0.0,0.0,0.0,0.0,0.0,0.0,0.0,0.0,0.0,0.0,0.0,0.0,0.0,0.0,0.0,0.0,0.0,0.0,0.0,0.0,0.0,0.0,0.0,0.0,0.0,0.0,0.0,0.0,0.0,0.0,0.0,0.0,0.0,0.0,0.0,0.0,0.0,0.0,0.0,0.0,0.0,0.0,0.0,0.0,0.0,0.0,0.0,0.0,0.0,0.0,0.0,0.0,0.0,0.0,0.0,0.0,0.0,0.0,0.0,0.0,0.0,0.0,0.0,0.0,0.0,0.0,0.0,0.0,0.0,0.0,0.0,0.0,0.0,0.0,0.0,0.0,0.0,0.0,0.0,0.0,0.0,0.0,0.0,0.0,0.0,0.0,0.0,0.0,0.0,0.0,0.0,0.0,0.0,0.0,0.0,0.0,0.0,0.0,0.0,0.0,0.0,0.0,0.0,0.0,0.0,0.0,0.0,0.0,0.0,0.0,0.0,0.0,0.0,0.0,0.0,0.0,0.0,0.0,0.0,0.0,0.0,0.0,0.0,0.0,0.0,0.0,0.0,0.0,0.0,0.0,0.0,0.0,0.0,0.0,0.0,0.0,0.0,0.0,0.0,0.0,0.0,0.0,0.0,0.0,0.0,0.0,0.0,0.0,0.0,0.0,0.0,0.0,0.0,0.0,0.0,0.0,0.0,0.0,0.0,0.0,0.0,0.0,0.0,0.0,0.0,0.0,0.0,0.0,0.0,0.0,0.0,0.0,0.0,0.0,0.0,0.0,0.0,0.0,0.0,0.0,0.0,0.0,0.0,0.0,0.0,0.0,0.0,0.0,0.0,0.0,0.0,0.0,0.0,0.0,0.0,0.0,0.0,0.0,0.0,0.0,0.0,0.0,0.0,0.0,0.0,0.0,0.0,0.0,0.0,0.0,0.0,0.0,0.0,0.0,0.0,0.0,0.0,0.0,0.0,0.0,0.0,0.0,0.0,0.0,0.0,0.0,0.0,0.0,0.0,0.0,0.0,0.0,0.0,0.0,0.0,0.0,0.0,0.0,0.0,0.0,0.0,0.0,0.0,1.1664,0.0,0.0,0.0,0.0,0.0,0.0,0.0,0.0,0.0,0.0,0.0,0.0,0.0,0.0,0.0,0.0,0.0,0.0,0.0,0.0,0.0,0.0,0.0,0.0,0.0,0.0,0.0,0.0,0.0,0.0,0.0,0.0,0.0,0.0,0.0,0.0,0.0,0.0,0.0,0.0,0.0,0.0,0.0,0.0,0.0,0.0,0.0,0.0,0.0,0.0,0.0,0.0,0.0,0.0,0.0,0.0,0.0,0.0,0.0,0.0,0.0,0.0,0.0,0.0,0.0,0.0,0.0,0.0,0.0,0.0,0.0,0.0,0.0,0.0,0.0,0.0,0.0,0.0,0.0,0.0,0.0,0.0,0.0,0.0,0.0,0.0,0.0,0.0,0.0,0.0,0.0,0.0,0.0,0.0,0.0,0.0,0.0,0.0,0.0,0.0,0.0,0.0,0.0,0.0,0.0,0.0,0.0,0.0,0.0,0.0,1.5022,1.4384,1.3565,1.2894,1.2425,0.0,0.0,0.0,0.0,0.0,0.0,0.0,0.0,0.0,0.0,0.0,0.0,0.0,0.0,0.0,0.0,0.0,0.0,0.0,0.0,0.0,0.0,0.0,0.0,0.0,0.0,0.0,0.0,0.0,0.0,0.0,0.0,0.0,0.0,0.0,0.0,0.0,0.0,0.0,0.0,0.0,0.0,0.0,0.0,0.0,0.0,0.0,0.0,0.0,0.0,0.0,0.0,0.0,0.0,0.0,0.0,0.0,0.0,0.0,0.0,0.0,0.0,0.0,0.0,0.0,0.0,0.0,0.0,0.0,0.0,0.0,0.0,0.0,0.0,0.0,0.0,0.0,0.0,0.0,0.0,0.0,0.0,0.0,0.0,0.0,0.0,0.0,0.0,0.0,0.0,0.0,0.0,0.0,0.0,0.0,0.0,0.0,0.0,0.0,0.0,0.0,0.0,0.0,0.0,0.0,0.0,0.0,0.0,0.0,0.0,0.0,0.0,1.4651,1.3834,1.3091,0.0,0.0,0.0,0.0,0.0,0.0,0.0,0.0,0.0,0.0,0.0,0.0,0.0,0.0,0.0,0.0,0.0,0.0,0.0,0.0,0.0,0.0,0.0,0.0,0.0,0.0,0.0,0.0,0.0,0.0,0.0,0.0,0.0,0.0,0.0,0.0,0.0,0.0,0.0,0.0,0.0,0.0,0.0,0.0,0.0,0.0,0.0,0.0,0.0,0.0,0.0,0.0,0.0,0.0,0.0,0.0,0.0,0.0,0.0,0.0,0.0,0.0,0.0,0.0,0.0,0.0,0.0,0.0,0.0,0.0,0.0,0.0,0.0,0.0,0.0,0.0,0.0,0.0,0.0,0.0,0.0,0.0,0.0,0.0,0.0,0.0,0.0,0.0,0.0,0.0,0.0,0.0,0.0,0.0,0.0,0.0,0.0,0.0,0.0,0.0,0.0,0.0,0.0,0.0,0.0,0.0,0.0,0.0,0.0,0.0,1.7573,1.7024,1.5801,0.0,1.3663,0.0,0.0,0.0,0.0,0.0,0.0,0.0,0.0,0.0,0.0,0.0,0.0,0.0,0.0,0.0,0.0,0.0,0.0,0.0,0.0,0.0,0.0,0.0,0.0,0.0,0.0,0.0,0.0,0.0,0.0,0.0,0.0,0.0,0.0,0.0,0.0,0.0,0.0,0.0,0.0,0.0,0.0,0.0,0.0,0.0,0.0,0.0,0.0,0.0,0.0,0.0,0.0,0.0,0.0,0.0,0.0,0.0,0.0,0.0,0.0,0.0,0.0,0.0,0.0,0.0,0.0,0.0,0.0,0.0,0.0,0.0,0.0,0.0,0.0,0.0,0.0,0.0,0.0,0.0,0.0,0.0,0.0,0.0,0.0,0.0,0.0,0.0,0.0,0.0,0.0,0.0,0.0,0.0,0.0,0.0,0.0,0.0,0.0,0.0,0.0,0.0,0.0,0.0,0.0,0.0,0.0,0.0,0.0,0.0,0.0,1.5211,1.4726,1.1751,1.072,0.0,0.0,0.0,0.0,0.0,0.0,0.0,0.0,0.0,0.0,0.0,0.0,0.0,0.0,0.0,0.0,0.0,0.0,0.0,0.0,0.0,0.0,0.0,0.0,0.0,0.0,0.0,0.0,0.0,0.0,0.0,0.0,0.0,0.0,0.0,0.0,0.0,0.0,0.0,0.0,0.0,0.0,0.0,0.0,0.0,0.0,0.0,0.0,0.0,0.0,0.0,0.0,0.0,0.0,0.0,0.0,0.0,0.0,0.0,0.0,0.0,0.0,0.0,0.0,0.0,0.0,0.0,0.0,0.0,0.0,0.0,0.0,0.0,0.0,0.0,0.0,0.0,0.0,0.0,0.0,0.0,0.0,0.0,0.0,0.0,0.0,0.0,0.0,0.0,0.0,0.0,0.0,0.0,0.0,0.0,0.0,0.0,0.0,0.0,0.0,0.0,0.0,0.0,0.0,0.0,0.0,0.0,0.0,0.0,0.0,1.5605,1.3382,1.179,0.8711,0.7994,0.999,0.0,0.0,0.0,0.0,0.0,0.0,0.0,0.0,0.0,0.0,0.0,0.0,0.0,0.0,0.0,0.0,0.0,0.0,0.0,0.0,0.0,0.0,0.0,0.0,0.0,0.0,0.0,0.0,0.0,0.0,0.0,0.0,0.0,0.0,0.0,0.0,0.0,0.0,0.0,0.0,0.0,0.0,0.0,0.0,0.0,0.0,0.0,0.0,0.0,0.0,0.0,0.0,0.0,0.0,0.0,0.0,0.0,0.0,0.0,0.0,0.0,0.0,0.0,0.0,0.0,0.0,0.0,0.0,0.0,0.0,0.0,0.0,0.0,0.0,0.0,0.0,0.0,0.0,0.0,0.0,0.0,0.0,0.0,0.0,0.0,0.0,0.0,0.0,0.0,0.0,0.0,0.0,0.0,0.0,0.0,0.0,0.0,0.0,0.0,0.0,0.0,0.0,0.0,0.0,0.0,0.0,0.0,0.0,1.5418,1.507,1.3106,0.9023,0.8523,0.8185,0.0,0.0,0.0,0.0,0.0,0.0,0.0,0.0,0.0,0.0,0.0,0.0,0.0,0.0,0.0,0.0,0.0,0.0,0.0,0.0,0.0,0.0,0.0,0.0,0.0,0.0,0.0,0.0,0.0,0.0,0.0,0.0,0.0,0.0,0.0,0.0,0.0,0.0,0.0,0.0,0.0,0.0,0.0,0.0,0.0,0.0,0.0,0.0,0.0,0.0,0.0,0.0,0.0,0.0,0.0,0.0,0.0,0.0,0.0,0.0,0.0,0.0,0.0,0.0,0.0,0.0,0.0,0.0,0.0,0.0,0.0,0.0,0.0,0.0,0.0,0.0,0.0,0.0,0.0,0.0,0.0,0.0,0.0,0.0,0.0,0.0,0.0,0.0,0.0,0.0,0.0,0.0,0.0,0.0,0.0,0.0,0.0,0.0,0.0,0.0,0.0,0.0,0.0,0.0,0.0,0.0,0.0,0.0,0.0,1.5142,1.0902,0.6835,0.3239,0.3115,0.3967,0.0,0.0,0.0,0.0,0.0,0.0,0.0,0.0,0.0,0.0,0.0,0.0,0.0,0.0,0.0,0.0,0.0,0.0,0.0,0.0,0.0,0.0,0.0,0.0,0.0,0.0,0.0,0.0,0.0,0.0,0.0,0.0,0.0,0.0,0.0,0.0,0.0,0.0,0.0,0.0,0.0,0.0,0.0,0.0,0.0,0.0,0.0,0.0,0.0,0.0,0.0,0.0,0.0,0.0,0.0,0.0,0.0,0.0,0.0,0.0,0.0,0.0,0.0,0.0,0.0,0.0,0.0,0.0,0.0,0.0,0.0,0.0,0.0,0.0,0.0,0.0,0.0,0.0,0.0,0.0,0.0,0.0,0.0,0.0,0.0,0.0,0.0,0.0,0.0,0.0,0.0,0.0,0.0,0.0,0.0,0.0,0.0,0.0,0.0,0.0,0.0,0.0,0.0,0.0,0.0,0.0,0.0,0.0,0.0,1.3688,0.0,0.223,0.0179,0.0224,0.1356,0.0,0.0,0.0,0.0,0.0,0.0,0.0,0.0,0.0,0.0,0.0,0.0,0.0,0.0,0.0,0.0,0.0,0.0,0.0,0.0,0.0,0.0,0.0,0.0,0.0,0.0,0.0,0.0,0.0,0.0,0.0,0.0,0.0,0.0,0.0,0.0,0.0,0.0,0.0,0.0,0.0,0.0,0.0,0.0,0.0,0.0,0.0,0.0,0.0,0.0,0.0,0.0,0.0,0.0,0.0,0.0,0.0,0.0,0.0,0.0,0.0,0.0,0.0,0.0,0.0,0.0,0.0,0.0,0.0,0.0,0.0,0.0,0.0,0.0,0.0,0.0,0.0,0.0,0.0,0.0,0.0,0.0,0.0,0.0,0.0,0.0,0.0,0.0,0.0,0.0,0.0,0.0,0.0,0.0,0.0,0.0,0.0,0.0,0.0,0.0,0.0,0.0,0.0,0.0,0.0,0.0,0.0,0.0,1.7003,1.0466,0.3647,0.0313,0.0494,0.0629,0.0852,0.0,0.0,0.0,0.0,0.0,0.0,0.0,0.0,0.0,0.0,0.0,0.0,0.0,0.0,0.0,0.0,0.0,0.0,0.0,0.0,0.0,0.0,0.0,0.0,0.0,0.0,0.0,0.0,0.0,0.0,0.0,0.0,0.0,0.0,0.0,0.0,0.0,0.0,0.0,0.0,0.0,0.0,0.0,0.0,0.0,0.0,0.0,0.0,0.0,0.0,0.0,0.0,0.0,0.0,0.0,0.0,0.0,0.0,0.0,0.0,0.0,0.0,0.0,0.0,0.0,0.0,0.0,0.0,0.0,0.0,0.0,0.0,0.0,0.0,0.0,0.0,0.0,0.0,0.0,0.0,0.0,0.0,0.0,0.0,0.0,0.0,0.0,0.0,0.0,0.0,0.0,0.0,0.0,0.0,0.0,0.0,0.0,0.0,0.0,0.0,0.0,0.0,0.0,0.0,0.0,0.0,0.0,0.0,0.0,0.3644,0.1436,0.045,0.0629,0.0764,0.09,0.0,0.0,0.0,0.0,0.0,0.0,0.0,0.0,0.0,0.0,0.0,0.0,0.0,0.0,0.0,0.0,0.0,0.0,0.0,0.0,0.0,0.0,0.0,0.0,0.0,0.0,0.0,0.0,0.0,0.0,0.0,0.0,0.0,0.0,0.0,0.0,0.0,0.0,0.0,0.0,0.0,0.0,0.0,0.0,0.0,0.0,0.0,0.0,0.0,0.0,0.0,0.0,0.0,0.0,0.0,0.0,0.0,0.0,0.0,0.0,0.0,0.0,0.0,0.0,0.0,0.0,0.0,0.0,0.0,0.0,0.0,0.0,0.0,0.0,0.0,0.0,0.0,0.0,0.0,0.0,0.0,0.0,0.0,0.0,0.0,0.0,0.0,0.0,0.0,0.0,0.0,0.0,0.0,0.0,0.0,0.0,0.0,0.0,0.0,0.0,0.0,0.0,0.0,0.0,0.0,0.0,0.0,0.0,0.0,0.0965,0.0735,0.0735,0.0873,0.0965,0.1004,0.0988,0.0,0.0,0.0,0.0,0.0,0.0,0.0,0.0,0.0,0.0,0.0,0.0,0.0,0.0,0.0,0.0,0.0,0.0,0.0,0.0,0.0,0.0,0.0,0.0,0.0,0.0,0.0,0.0,0.0,0.0,0.0,0.0,0.0,0.0,0.0,0.0,0.0,0.0,0.0,0.0,0.0,0.0,0.0,0.0,0.0,0.0,0.0,0.0,0.0,0.0,0.0,0.0,0.0,0.0,0.0,0.0,0.0,0.0,0.0,0.0,0.0,0.0,0.0,0.0,0.0,0.0,0.0,0.0,0.0,0.0,0.0,0.0,0.0,0.0,0.0,0.0,0.0,0.0,0.0,0.0,0.0,0.0,0.0,0.0,0.0,0.0,0.0,0.0,0.0,0.0,0.0,0.0,0.0,0.0,0.0,0.0,0.0,0.0,0.0,0.0,0.0,0.0,0.0,0.0,0.0,0.0,0.0,0.0,0.1438,0.1198,0.1149,0.1242,0.1239,0.1169,0.0,0.0,0.0,0.0,0.0,0.0,0.0,0.0,0.0,0.0,0.0,0.0,0.0,0.0,0.0,0.0,0.0,0.0,0.0,0.0,0.0,0.0,0.0,0.0,0.0,0.0,0.0,0.0,0.0,0.0,0.0,0.0,0.0,0.0,0.0,0.0,0.0,0.0,0.0,0.0,0.0,0.0,0.0,0.0,0.0,0.0,0.0,0.0,0.0,0.0,0.0,0.0,0.0,0.0,0.0,0.0,0.0,0.0,0.0,0.0,0.0,0.0,0.0,0.0,0.0,0.0,0.0,0.0,0.0,0.0,0.0,0.0,0.0,0.0,0.0,0.0,0.0,0.0,0.0,0.0,0.0,0.0,0.0,0.0,0.0,0.0,0.0,0.0,0.0,0.0,0.0,0.0,0.0,0.0,0.0,0.0,0.0,0.0,0.0,0.0,0.0,0.0,0.0,0.0,0.0,0.0,0.0,0.0,0.0,0.1654,0.181,0.1788,0.1593,0.1403,0.1326,0.0,0.0,0.0,0.0,0.0,0.0,0.0,0.0,0.0,0.0,0.0,0.0,0.0,0.0,0.0,0.0,0.0,0.0,0.0,0.0,0.0,0.0,0.0,0.0,0.0,0.0,0.0,0.0,0.0,0.0,0.0,0.0,0.0,0.0,0.0,0.0,0.0,0.0,0.0,0.0,0.0,0.0,0.0,0.0,0.0,0.0,0.0,0.0,0.0,0.0,0.0,0.0,0.0,0.0,0.0,0.0,0.0,0.0,0.0,0.0,0.0,0.0,0.0,0.0,0.0,0.0,0.0,0.0,0.0,0.0,0.0,0.0,0.0,0.0,0.0,0.0,0.0,0.0,0.0,0.0,0.0,0.0,0.0,0.0,0.0,0.0,0.0,0.0,0.0,0.0,0.0,0.0,0.0,0.0,0.0,0.0,0.0,0.0,0.0,0.0,0.0,0.0,0.0,0.0,0.0,0.0,0.0,0.0,0.176,0.1969,0.2214,0.2264,0.2114,0.1758,0.155,0.0,0.0,0.0,0.0,0.0,0.0,0.0,0.0,0.0,0.0,0.0,0.0,0.0,0.0,0.0,0.0,0.0,0.0,0.0,0.0,0.0,0.0,0.0,0.0,0.0,0.0,0.0,0.0,0.0,0.0,0.0,0.0,0.0,0.0,0.0,0.0,0.0,0.0,0.0,0.0,0.0,0.0,0.0,0.0,0.0,0.0,0.0,0.0,0.0,0.0,0.0,0.0,0.0,0.0,0.0,0.0,0.0,0.0,0.0,0.0,0.0,0.0,0.0,0.0,0.0,0.0,0.0,0.0,0.0,0.0,0.0,0.0,0.0,0.0,0.0,0.0,0.0,0.0,0.0,0.0,0.0,0.0,0.0,0.0,0.0,0.0,0.0,0.0,0.0,0.0,0.0,0.0,0.0,0.0,0.0,0.0,0.0,0.0,0.0,0.0,0.0,0.0,0.0,0.0,0.0,0.0,0.0,0.0,0.1967,0.242,0.2496,0.2591,0.2699,0.2162,0.1796,0.0,0.0,0.0,0.0,0.0,0.0,0.0,0.0,0.0,0.0,0.0,0.0,0.0,0.0,0.0,0.0,0.0,0.0,0.0,0.0,0.0,0.0,0.0,0.0,0.0,0.0,0.0,0.0,0.0,0.0,0.0,0.0,0.0,0.0,0.0,0.0,0.0,0.0,0.0,0.0,0.0,0.0,0.0,0.0,0.0,0.0,0.0,0.0,0.0,0.0,0.0,0.0,0.0,0.0,0.0,0.0,0.0,0.0,0.0,0.0,0.0,0.0,0.0,0.0,0.0,0.0,0.0,0.0,0.0,0.0,0.0,0.0,0.0,0.0,0.0,0.0,0.0,0.0,0.0,0.0,0.0,0.0,0.0,0.0,0.0,0.0,0.0,0.0,0.0,0.0,0.0,0.0,0.0,0.0,0.0,0.0,0.0,0.0,0.0,0.0,0.0,0.0,0.0,0.0,0.0,0.0,0.0,0.0,0.2224,0.2533,0.2671,0.2741,0.2795,0.2347,0.207,0.0,0.0,0.0,0.0,0.0,0.0,0.0,0.0,0.0,0.0,0.0,0.0,0.0,0.0,0.0,0.0,0.0,0.0,0.0,0.0,0.0,0.0,0.0,0.0,0.0,0.0,0.0,0.0,0.0,0.0,0.0,0.0,0.0,0.0,0.0,0.0,0.0,0.0,0.0,0.0,0.0,0.0,0.0,0.0,0.0,0.0,0.0,0.0,2.0547,0.0,0.0,0.0,0.0,0.0,0.0,0.0,0.0,0.0,0.0,0.0,0.0,0.0,0.0,0.0,0.0,0.0,0.0,0.0,0.0,0.0,0.0,0.0,0.0,0.0,0.0,0.0,0.0,0.0,0.0,0.0,0.0,0.0,0.0,0.0,0.0,0.0,0.0,0.0,0.0,0.0,0.0,0.0,0.0,0.0,0.0,0.0,0.0,0.0,0.0,0.0,0.0,0.0,0.0,0.0,0.0,0.0,0.0,0.0,0.2406,0.2646,0.2805,0.2868,0.2769,0.2448,0.2221,0.0,0.0,0.0,0.0,0.0,0.0,0.0,0.0,0.0,0.0,0.0,0.0,0.0,0.0,0.0,0.0,0.0,0.0,0.0,0.0,0.0,0.0,0.0,0.0,0.0,0.0,0.0,0.0,0.0,0.0,0.0,0.0,0.0,0.0,0.0,0.0,0.0,0.0,0.0,0.0,0.0,0.0,0.0,0.0,0.0,0.0,0.0,0.0,0.0,0.0,0.0,0.0,0.0,0.0,0.0,0.0,0.0,0.0,0.0,0.0,0.0,0.0,0.0,0.0,0.0,0.0,0.0,0.0,0.0,0.0,0.0,0.0,0.0,0.0,0.0,0.0,0.0,0.0,0.0,0.0,0.0,0.0,0.0,0.0,0.0,0.0,0.0,0.0,0.0,0.0,0.0,0.0,0.0,0.0,0.0,0.0,0.0,0.0,0.0,0.0,0.0,0.0,0.0,0.0,0.0,0.0,0.0,0.2121,0.2468,0.2787,0.293,0.2934,0.2791,0.2549,0.2267,0.2046,0.0,0.0,0.0,0.0,0.0,0.0,0.0,0.0,0.0,0.0,0.0,0.0,0.0,0.0,0.0,0.0,0.0,0.0,0.0,0.0,0.0,0.0,0.0,0.0,0.0,0.0,0.0,0.0,0.0,0.0,0.0,0.0,0.0,0.0,0.0,0.0,0.0,0.0,2.0601,2.0605,0.0,0.0,0.0,0.0,0.0,0.0,0.0,0.0,2.0503,0.0,0.0,0.0,0.0,0.0,0.0,0.0,0.0,0.0,0.0,0.0,0.0,0.0,0.0,0.0,0.0,0.0,0.0,0.0,0.0,0.0,0.0,0.0,0.0,0.0,0.0,0.0,0.0,0.0,0.0,0.0,0.0,0.0,0.0,0.0,0.0,0.0,0.0,0.0,0.0,0.0,0.0,0.0,0.0,0.0,0.0,0.0,0.0,0.0,0.0,0.0,0.0,0.0,0.0,0.0,0.0,0.1515,0.2117,0.2491,0.2692,0.2771,0.2774,0.2699,0.2387,0.2109,0.1755,0.0,0.0,0.0,0.0,0.0,0.0,0.0,0.0,0.0,0.0,0.0,0.0,0.0,0.0,0.0,0.0,0.0,0.0,0.0,0.0,0.0,0.0,0.0,0.0,0.0,0.0,0.0,0.0,0.0,0.0,0.0,0.0,0.0,0.0,0.0,0.0,0.0,0.0,0.0,2.0597,2.0586,0.0,0.0,0.0,0.0,0.0,0.0,0.0,0.0,2.0504,0.0,0.0,0.0,0.0,0.0,0.0,0.0,0.0,0.0,0.0,0.0,0.0,0.0,0.0,0.0,0.0,0.0,0.0,0.0,0.0,0.0,0.0,0.0,0.0,0.0,0.0,0.0,0.0,0.0,0.0,0.0,0.0,0.0,0.0,0.0,0.0,0.0,0.0,0.0,0.0,0.0,0.0,0.0,0.0,0.0,0.0,0.0,0.0,0.0,0.0,0.0,0.0,0.0,0.0,0.0,0.1513,0.1954,0.2308,0.2593,0.2704,0.2708,0.2597,0.228,0.2006,0.0,0.0,0.0,0.0,0.0,0.0,0.0,0.0,0.0,0.0,0.0,0.0,0.0,0.0,0.0,0.0,0.0,0.0,0.0,0.0,0.0,0.0,0.0,0.0,0.0,0.0,0.0,0.0,0.0,0.0,0.0,0.0,0.0,0.0,0.0,0.0,0.0,0.0,0.0,0.0,2.123,2.1377,2.1789,0.0,0.0,0.0,0.0,0.0,0.0,2.1826,2.1666,0.0,0.0,0.0,0.0,0.0,0.0,0.0,0.0,0.0,0.0,0.0,0.0,0.0,0.0,0.0,0.0,0.0,0.0,0.0,0.0,0.0,0.0,0.0,0.0,0.0,0.0,0.0,0.0,0.0,0.0,0.0,0.0,0.0,0.0,0.0,0.0,0.0,0.0,0.0,0.0,0.0,0.0,0.0,0.0,0.0,0.0,0.0,0.0,0.0,0.0,0.0,0.0,0.0,0.0,0.0,0.1349,0.1769,0.2102,0.2369,0.2487,0.2486,0.2348,0.2034,0.1777,0.0,0.0,0.0,0.0,0.0,0.0,0.0,0.0,0.0,0.0,0.0,0.0,0.0,0.0,0.0,0.0,0.0,0.0,0.0,0.0,0.0,0.0,0.0,0.0,0.0,0.0,0.0,0.0,0.0,0.0,0.0,0.0,0.0,0.0,0.0,0.0,0.0,0.0,0.0,0.0,0.0,2.211,2.296,2.3073,0.0,0.0,0.0,0.0,2.3062,2.3043,0.0,0.0,0.0,0.0,0.0,0.0,0.0,0.0,0.0,0.0,0.0,0.0,0.0,0.0,0.0,0.0,0.0,0.0,0.0,0.0,0.0,0.0,0.0,0.0,0.0,0.0,0.0,0.0,0.0,0.0,0.0,0.0,0.0,0.0,0.0,0.0,0.0,0.0,0.0,0.0,0.0,0.0,0.0,0.0,0.0,0.0,0.0,0.0,0.0,0.0,0.0,0.0,0.0,0.0,0.0,0.0,0.0948,0.149,0.1809,0.1858,0.1985,0.1965,0.1791,0.1604,0.1437,0.0,0.0,0.0,0.0,0.0,0.0,0.0,0.0,0.0,0.0,0.0,0.0,0.0,0.0,0.0,0.0,0.0,0.0,0.0,0.0,0.0,0.0,0.0,0.0,0.0,0.0,0.0,0.0,0.0,0.0,0.0,0.0,0.0,0.0,0.0,0.0,0.0,0.0,0.0,0.0,0.0,2.2084,2.2907,2.3018,2.3014,0.0,0.0,2.3009,2.3018,2.3009,0.0,0.0,0.0,0.0,0.0,0.0,0.0,0.0,0.0,0.0,0.0,0.0,0.0,0.0,0.0,0.0,0.0,0.0,0.0,0.0,0.0,0.0,0.0,0.0,0.0,0.0,0.0,0.0,0.0,0.0,0.0,0.0,0.0,0.0,0.0,0.0,0.0,0.0,0.0,0.0,0.0,0.0,0.0,0.0,0.0,0.0,0.0,0.0,0.0,0.0,0.0,0.0,0.0,0.0,0.0,0.0475,0.0806,0.1025,0.1251,0.1352,0.1391,0.1441,0.1421,0.1297,0.12,0.0,0.0,0.0,0.0,0.0,0.0,0.0,0.0,0.0,0.0,0.0,0.0,0.0,0.0,0.0,0.0,0.0,0.0,0.0,0.0,0.0,0.0,0.0,0.0,0.0,0.0,0.0,0.0,0.0,0.0,0.0,0.0,0.0,0.0,0.0,0.0,0.0,0.0,0.0,0.0,0.0,0.0,2.4349,2.4865,0.0,0.0,0.0,2.5686,2.5214,0.0,0.0,0.0,0.0,0.0,0.0,0.0,0.0,0.0,0.0,0.0,0.0,0.0,0.0,0.0,0.0,0.0,0.0,0.0,0.0,0.0,0.0,0.0,0.0,0.0,0.0,0.0,0.0,0.0,0.0,0.0,0.0,0.0,0.0,0.0,0.0,0.0,0.0,0.0,0.0,0.0,0.0,0.0,0.0,0.0,0.0,0.0,0.0,0.0,0.0,0.0,0.0,0.0,0.0,0.0,0.0,0.0,0.0476,0.055,0.0628,0.0716,0.0798,0.0851,0.0929,0.0864,0.0,0.0,0.0,0.0,0.0,0.0,0.0,0.0,0.0,0.0,0.0,0.0,0.0,0.0,0.0,0.0,0.0,0.0,0.0,0.0,0.0,0.0,0.0,0.0,0.0,0.0,0.0,1.607,0.0,0.0,0.0,0.0,0.0,0.0,0.0,0.0,0.0,0.0,0.0,0.0,0.0,0.0,2.4671,2.5738,2.6396,2.685,0.0,0.0,2.7802,2.7202,2.6951,2.6378,0.0,0.0,0.0,0.0,0.0,0.0,0.0,0.0,0.0,0.0,0.0,0.0,0.0,0.0,0.0,0.0,0.0,0.0,0.0,0.0,0.0,0.0,0.0,0.0,0.0,0.0,0.0,0.0,0.0,0.0,0.0,0.0,0.0,0.0,0.0,0.0,0.0,0.0,0.0,0.0,0.0,0.0,0.0,0.0,0.0,0.0,0.0,0.0,0.0,0.0,0.0,0.0,0.0,0.0,-0.0324,-0.0123,0.0,0.0063,0.0067,0.0067,0.0131,0.0247,0.0247,0.03,0.0,0.0,0.0,0.0,0.0,0.0,0.0,0.0,0.0,0.0,0.0,0.0,0.0,0.0,0.0,0.0,0.0,0.0,0.0,0.0,0.0,0.0,0.0,0.0,0.0,0.0,0.0,0.0,0.0,0.0,0.0,0.0,0.0,0.0,0.0,0.0,0.0,0.0,0.0,0.0,0.0,2.4859,2.6417,2.6691,2.6983,0.0,2.7933,2.7971,2.7913,2.731,2.6761,2.666,0.0,0.0,0.0,0.0,0.0,0.0,0.0,0.0,0.0,0.0,0.0,0.0,0.0,0.0,0.0,0.0,0.0,0.0,0.0,0.0,0.0,0.0,0.0,0.0,0.0,0.0,0.0,0.0,0.0,0.0,0.0,0.0,0.0,0.0,0.0,0.0,0.0,0.0,0.0,0.0,0.0,0.0,0.0,0.0,0.0,0.0,0.0,0.0,0.0,0.0,0.0,0.0,0.0,-0.0812,-0.0677,-0.0679,-0.0635,-0.067,-0.0672,-0.0528,-0.0318,-0.025,-0.0061,0.0,0.0,0.0,0.0,0.0,0.0,0.0,0.0,0.0,0.0,0.0,0.0,0.0,0.0,0.0,0.0,0.0,0.0,0.0,0.0,0.0,0.0,0.0,0.0,0.0,0.0,0.0,0.0,1.9041,1.9445,1.9984,0.0,0.0,0.0,0.0,0.0,0.0,0.0,0.0,0.0,0.0,2.6045,2.6627,2.7547,0.0,0.0,2.9105,2.93,2.876,2.8049,2.7359,2.6889,2.5822,0.0,0.0,0.0,0.0,0.0,0.0,0.0,0.0,0.0,0.0,0.0,0.0,0.0,0.0,0.0,0.0,0.0,0.0,0.0,0.0,0.0,0.0,0.0,0.0,0.0,0.0,0.0,0.0,0.0,0.0,0.0,0.0,0.0,0.0,0.0,0.0,0.0,0.0,0.0,0.0,0.0,0.0,0.0,0.0,0.0,0.0,0.0,0.0,0.0,0.0,0.0,0.0,-0.1476,-0.1356,-0.1296,-0.1334,-0.1411,-0.1412,-0.1328,-0.1033,-0.0877,-0.0608,0.0,0.0,0.0,0.0,0.0,0.0,0.0,0.0,0.0,0.0,0.0,0.0,0.0,0.0,0.0,0.0,0.0,0.0,0.0,0.0,0.0,0.0,0.0,0.0,0.0,0.0,0.0,0.0,1.9588,1.9818,2.0445,0.0,0.0,0.0,0.0,0.0,0.0,0.0,0.0,0.0,0.0,2.6848,2.7017,2.8189,2.9171,2.9428,2.9946,3.0131,2.9548,2.8827,2.8136,2.7565,0.0,0.0,0.0,0.0,0.0,0.0,0.0,0.0,0.0,0.0,0.0,0.0,0.0,0.0,0.0,0.0,0.0,0.0,0.0,0.0,0.0,0.0,0.0,0.0,0.0,0.0,0.0,-0.6985,0.0,0.0,-0.6307,0.0,0.0,0.0,0.0,0.0,0.0,0.0,0.0,0.0,0.0,0.0,0.0,0.0,0.0,0.0,0.0,0.0,0.0,0.0,0.0,0.0,0.0,-0.2181,-0.2153,-0.2034,-0.2031,-0.215,-0.2154,-0.2059,-0.1872,-0.1628,-0.1337,-0.1002,0.0,0.0,0.0,0.0,0.0,0.0,0.0,0.0,0.0,0.0,0.0,0.0,0.0,0.0,0.0,0.0,0.0,0.0,0.0,0.0,0.0,0.0,0.0,0.0,0.0,0.0,2.0352,2.0469,2.0476,0.0,0.0,0.0,0.0,0.0,0.0,0.0,0.0,0.0,0.0,2.5669,2.6959,2.7698,2.8495,2.9321,3.012,3.0215,3.0202,3.0222,2.9594,2.9071,0.0,0.0,0.0,0.0,0.0,0.0,0.0,0.0,0.0,0.0,0.0,0.0,0.0,0.0,0.0,0.0,0.0,0.0,0.0,0.0,0.0,0.0,0.0,0.0,0.0,0.0,0.0,-0.9165,-0.8855,0.0,0.0,0.0,0.0,0.0,0.0,0.0,0.0,0.0,0.0,0.0,-0.8882,-0.9196,0.0,0.0,0.0,0.0,0.0,0.0,0.0,0.0,0.0,0.0,0.0,0.0,-0.314,-0.3003,-0.2953,-0.2974,-0.3084,-0.2889,-0.2811,-0.265,-0.2511,-0.2147,-0.1483,0.0,0.0,0.0,0.0,0.0,0.0,0.0,0.0,0.0,0.0,0.0,0.0,0.0,0.0,0.0,0.0,0.0,0.0,0.0,0.0,0.0,0.0,0.0,0.0,0.0,2.0128,0.0,0.0,0.0,0.0,0.0,0.0,0.0,0.0,0.0,0.0,0.0,2.4636,2.5719,2.6757,2.7706,2.849,2.9283,2.9874,0.0,0.0,0.0,0.0,0.0,0.0,0.0,0.0,0.0,0.0,0.0,0.0,0.0,0.0,2.6288,2.6312,2.6335,2.6323,2.6316,0.0,0.0,0.0,0.0,0.0,0.0,0.0,0.0,0.0,0.0,0.0,0.0,0.0,0.0,-1.0895,0.0,-1.008,0.0,0.0,0.0,0.0,0.0,0.0,0.0,0.0,-1.0423,-1.0743,-1.0759,-1.1036,-1.1076,0.0,-1.0305,-0.9182,0.0,0.0,0.0,0.0,0.0,0.0,0.0,0.0,-0.4155,-0.4044,-0.3943,-0.3911,-0.3946,-0.3758,-0.3625,-0.3556,-0.3264,-0.2726,-0.1996,-0.1378,-0.0844,0.0,0.0,0.0,0.0,0.0,0.0,0.0,0.0,0.0,0.0,0.0,0.0,0.0,0.0,0.0,0.0,0.0,0.0,0.0,0.0,0.0,0.0,0.0,2.039,0.0,0.0,0.0,0.0,0.0,0.0,0.0,0.0,0.0,2.4231,2.4691,2.5423,2.6516,2.7552,2.8413,2.8893,0.0,0.0,0.0,0.0,0.0,0.0,0.0,2.941,2.9462,2.9008,2.8552,2.828,2.8253,2.8294,2.8326,0.0,0.0,2.8077,2.796,2.795,2.795,2.8023,2.8059,2.8078,2.8074,2.8109,0.0,0.0,0.0,0.0,0.0,0.0,0.0,0.0,-1.2716,-1.246,0.0,-1.1369,0.0,0.0,0.0,0.0,0.0,-1.0923,0.0,0.0,-1.2327,-1.2564,-1.2546,-1.2572,-1.247,-1.2184,-1.2008,-1.1592,-1.0895,-0.8395,0.0,0.0,0.0,0.0,0.0,0.0,-0.5251,-0.5244,-0.5071,-0.4945,-0.4885,-0.4691,-0.4625,-0.4622,-0.3846,-0.3188,-0.2596,-0.2053,-0.1434,-0.0801,-0.0498,0.0,0.0,0.0,0.0,0.0,0.0,0.0,0.0,0.0,0.0,0.0,0.0,0.0,0.0,0.0,0.0,0.0,0.0,0.0,0.0,2.0432,0.0,0.0,0.0,0.0,0.0,0.0,0.0,0.0,0.0,0.0,2.4315,2.56,2.6622,2.6697,0.0,0.0,0.0,0.0,2.9924,2.9991,2.994,2.9924,2.9972,3.0049,3.0075,3.0075,0.0,0.0,2.9166,2.9039,2.9065,2.914,2.9723,2.9812,2.8298,2.8087,2.8058,2.8058,2.8154,2.8113,2.8113,2.8302,2.8315,-1.8643,0.0,0.0,0.0,0.0,-1.5445,-1.5366,-1.5121,-1.4963,-1.4765,-1.4516,-1.3982,0.0,0.0,0.0,0.0,0.0,0.0,-1.295,-1.3157,-1.3624,-1.3864,-1.3867,-1.4107,-1.4063,-1.3821,-1.3477,-1.2937,-1.2225,-1.1177,-0.994,-0.8595,0.0,0.0,0.0,0.0,-0.6832,-0.6639,-0.6326,-0.6152,-0.6184,-0.5744,-0.5422,-0.5286,-0.4884,-0.4391,-0.3753,-0.3098,-0.2453,-0.1657,-0.1058,0.0,0.0,0.0,0.0,0.0,0.0,0.0,0.0,0.0,0.0,0.0,0.0,0.0,0.0,0.0,0.0,0.0,0.0,0.0,2.0328,2.0907,2.1248,0.0,0.0,0.0,0.0,0.0,0.0,0.0,0.0,0.0,2.6647,2.6608,2.6971,0.0,0.0,2.9065,2.9551,2.9739,2.9823,2.9841,2.9787,0.0,2.991,2.9943,2.9975,3.0038,3.0079,3.0047,2.9841,2.9836,2.9863,2.987,3.0107,3.0132,2.9754,2.9648,2.9663,2.9666,2.9746,2.9777,2.9786,2.9805,2.9805,-2.1542,-1.9771,-1.8697,-1.8089,-1.7811,-1.7911,-1.7798,-1.7601,-1.7391,-1.7179,-1.688,-1.6135,-1.5606,-1.5321,-1.4659,0.0,0.0,0.0,-1.5044,-1.5365,-1.5674,-1.5802,-1.5733,-1.587,-1.5807,-1.5607,-1.5288,-1.4725,-1.3918,-1.357,-1.2714,-1.1335,0.0,0.0,-0.8932,-0.867,-0.8302,-0.7949,-0.7639,-0.7418,-0.7351,-0.684,-0.6418,-0.6079,-0.5784,-0.5382,-0.4617,-0.3986,-0.324,-0.2398,-0.1636,-0.1095,0.0,0.0,0.0,0.0,0.0,0.0,0.0,0.0,0.0,0.0,0.0,2.0463,2.041,0.0,0.0,0.0,2.1191,2.1369,2.1301,2.1764,0.0,0.0,0.0,0.0,0.0,0.0,0.0,2.6149,2.6691,2.7309,2.814,2.7783,2.7816,2.8842,2.9122,2.9399,2.9851,0.0,2.9737,2.9719,2.9682,2.9682,2.9809,2.9808,2.9841,2.9907,2.9975,3.0022,3.0019,3.0064,3.0109,3.0166,3.0194,3.0221,3.0266,3.0292,3.0323,3.0352,3.0417,3.0469,3.046,3.05,3.0501,-2.3903,-2.3557,-2.138,-2.0271,-2.0039,-2.0155,-2.0147,-1.9994,-1.9742,-1.9518,-1.9144,-1.7901,-1.7182,-1.6893,-1.5998,0.0,-1.6892,-1.6892,-1.735,-1.8047,-1.8047,-1.8006,-1.7843,-1.7647,-1.7523,-1.7399,-1.7159,-1.6638,-1.5756,-1.5614,-1.5111,-1.4165,-1.1974,-1.0697,-1.0342,-1.0005,-0.9643,-0.9175,-0.8924,-0.8652,-0.8342,-0.7909,-0.7418,-0.6815,-0.6601,-0.6128,-0.5346,-0.4745,-0.3939,-0.3004,-0.227,-0.1653,-0.1223,0.0,0.0,0.0,0.0,0.0,0.0,0.0,0.0,0.0,0.0,0.0,0.0,0.0,0.0,0.0,2.2424,0.0,2.281,2.2917,0.0,0.0,0.0,2.3784,2.5311,2.5482,2.6105,2.7708,0.0,0.0,2.8983,2.9044,2.8984,2.8973,2.9509,2.991,2.9876,2.9774,2.9645,2.9607,2.9588,2.9607,2.9664,2.9701,2.9736,2.9789,2.9842,2.991,2.9907,2.9956,3.0019,3.0079,3.0094,3.0104,3.0174,3.0265,3.033,3.0445,3.0487,3.0521,3.0571,3.0728,3.0856,-2.6215,-2.5939,-2.4655,-2.3137,-2.1676,-2.1559,-2.1335,-2.0989,-2.0778,-2.0621,-2.0427,-1.9767,-1.9206,-1.885,-1.8611,-1.8574,-1.8703,-1.8692,-1.8707,-1.8736,-1.8747,-1.8698,-1.8588,-1.8384,-1.8201,-1.8089,-1.7853,-1.7534,-1.703,-1.702,-1.6513,-1.5607,-1.4958,-1.3787,-1.221,-1.1706,-1.1133,-1.0528,-1.0148,-0.9472,-0.8516,-0.8596,-0.8318,-0.7475,-0.7326,-0.6911,-0.6151,-0.5428,-0.4652,-0.3769,-0.2923,-0.2296,-0.1811,-0.1256,0.0,0.0,0.0,0.0,0.0,0.0,0.0,0.0,0.0,2.1478,2.1388,0.0,2.243,0.0,2.2739,2.2812,2.2814,2.3899,0.0,0.0,2.5711,2.6606,2.6988,2.7039,2.7465,2.8515,2.863,2.8935,2.9742,2.9827,2.9798,2.9749,2.9826,2.9878,2.9756,2.9626,2.9532,2.9512,2.949,2.9488,2.9587,2.9626,2.9719,2.9736,2.9844,2.9912,2.9912,2.9959,3.0003,3.0019,3.0064,3.0109,3.018,3.0677,3.1158,3.1224,3.1258,3.1333,3.1388,3.1912,3.2386,-2.7697,-2.7556,-2.6792,-2.5727,-2.4496,-2.3553,-2.2894,-2.2553,-2.2324,-2.2106,-2.1848,-2.1148,-2.0616,-2.01,-2.0041,-2.0053,-2.0155,-2.0167,-2.0102,-2.0052,-2.0014,-1.989,-1.9716,-1.9467,-1.9331,-1.9228,-1.9018,-1.8648,-1.8208,-1.8197,-1.7719,-1.6849,-1.6396,-1.5616,-1.4405,-1.3327,-1.2458,-1.1787,-1.124,-1.0477,-0.9356,-0.9513,-0.9196,-0.8333,-0.8052,-0.7591,-0.6937,-0.6207,-0.5409,-0.4479,-0.364,-0.293,-0.2237,-0.177,-0.1266,0.0,0.0,0.0,0.0,0.0,0.0,0.0,0.0,0.0,0.0,0.0,2.3276,2.3964,2.4273,2.4601,2.4983,2.5811,2.63,2.6269,2.7071,2.7731,2.8112,2.8136,2.8465,2.9336,2.9432,2.9618,3.0022,3.0087,3.0022,2.9959,2.9893,2.9809,2.9683,2.9551,2.9492,2.9451,2.9429,2.9558,2.9958,3.0132,3.0339,3.0697,3.0866,3.0921,3.0957,3.1009,3.1078,3.1108,3.114,3.1188,3.1238,3.1607,3.2,3.2115,3.2393,3.2538,3.2301,3.2596,3.2947,-2.8612,-2.8555,-2.8081,-2.7762,-2.7415,-2.5643,-2.4704,-2.4393,-2.4012,-2.3653,-2.3314,-2.2478,-2.1844,-2.1345,-2.1146,-2.1295,-2.162,-2.1487,-2.1519,-2.1607,-2.1446,-2.1221,-2.0967,-2.0658,-2.0464,-2.0475,-2.0248,-1.9846,-1.9211,-1.9211,-1.8838,-1.7998,-1.7277,-1.6839,-1.6467,-1.4898,-1.3666,-1.2842,-1.2299,-1.1535,-1.0461,-1.0466,-1.0012,-0.911,-0.8765,-0.8247,-0.7587,-0.6935,-0.6129,-0.5182,-0.4377,-0.355,-0.2709,-0.2245,-0.1721,0.0,-0.0624,0.0,0.0,0.0,0.0,0.0,0.0,0.0,0.0,2.3527,2.423,2.5618,2.6283,2.6998,2.7723,2.7822,2.7809,2.7763,2.7823,2.8189,2.884,2.8935,2.9235,2.9977,3.0087,3.0068,3.0068,3.0038,2.9975,2.9893,2.9842,2.9737,2.9608,2.9531,2.9509,2.9518,2.9628,3.0113,3.0702,3.0895,3.1199,3.1897,3.205,3.2221,3.2204,3.2279,3.2372,3.2422,3.2381,3.2452,3.2594,3.2667,3.2813,3.2947,3.357,3.3849,3.3267,3.325,3.3237,-2.9334,-2.9218,-2.8598,-2.8111,-2.7689,-2.7335,-2.6695,-2.5974,-2.5581,-2.5148,-2.4735,-2.4356,-2.4129,-2.3915,-2.3673,-2.3671,-2.368,-2.3252,-2.2916,-2.2683,-2.219,-2.1874,-2.1561,-2.1169,-2.1031,-2.1042,-2.0722,-2.0549,-2.0406,-2.0406,-1.9949,-1.91,-1.894,-1.8254,-1.7186,0.0,0.0,0.0,-1.2902,-1.2204,-1.0911,-1.0989,-1.0539,-0.942,-0.9081,0.0,-0.8096,-0.7438,-0.6751,-0.5966,-0.5071,0.0,0.0,0.0,0.0,0.0,0.0,0.0,0.0,0.0,0.0,0.0,1.2123,1.7702,2.4433,2.6292,2.714,2.7412,2.7495,2.7608,2.7781,2.828,2.8598,2.8603,2.9114,2.9542,2.9674,2.9693,2.9769,2.9902,2.9991,3.0022,3.0022,3.0007,2.9975,2.9893,2.9789,2.9663,2.955,2.9547,2.9709,3.0197,3.0769,3.1296,3.1648,3.1731,3.185,3.206,3.2142,3.2259,3.2373,3.243,3.2447,3.2501,3.2477,3.2568,3.2638,3.3163,3.3672,3.3757,3.4454,3.481,3.4054,3.4433,3.4946,-3.0089,-2.9941,-2.9564,-2.9258,0.0,-2.8796,-2.8432,-2.7872,-2.6781,-2.5972,-2.5421,-2.5281,-2.5103,-2.4911,-2.4859,-2.473,-2.4511,-2.425,-2.3946,-2.36,-2.295,-2.2519,-2.2329,-2.1741,-2.1423,-2.1434,-2.1244,-2.1117,-2.1031,-2.0967,-2.0651,-2.015,-1.9728,-1.9179,-1.8334,-1.7542,-1.6055,-1.3932,-1.3863,-1.317,-1.1854,-1.1911,-1.1409,-1.0193,-0.9716,0.0,0.0,0.0,0.0,0.0,0.0,0.0,0.0,-0.3366,0.0,-0.1827,-0.1353,-0.0888,-0.0541,-0.0119,0.1998,0.6296,1.3622,2.0499,2.6408,2.7593,2.8199,2.8493,2.8489,2.8603,2.9008,2.9306,2.9465,2.9455,2.9756,2.9956,2.9956,2.9905,2.9907,2.9907,2.994,2.9956,2.9956,2.9959,2.9926,2.9897,3.0113,3.0246,3.011,3.0066,3.0318,3.0973,3.1376,3.1885,3.2389,3.253,3.2783,3.3147,3.3342,3.3424,3.3465,3.3543,3.3601,3.3639,3.3657,3.3692,3.3802,3.4198,3.4516,3.4623,3.4942,3.5162,3.4764,3.5076,3.5393,-3.0642,-3.0582,-3.0447,-3.0312,-3.0266,-2.9913,-2.9665,-2.947,0.0,0.0,0.0,-2.6022,-2.5845,-2.5666,-2.5602,-2.546,-2.5189,-2.51,-2.4868,-2.4542,-2.3689,-2.3304,-2.3164,-2.2393,-2.1954,-2.1891,-2.1796,-2.1624,-2.1463,-2.1348,-2.1158,-2.0921,-2.0306,-1.9747,-1.9323,-1.8197,-1.6788,-1.5115,-1.5079,-1.4367,-1.2927,-1.3056,-1.246,-1.1066,-1.0491,-0.9977,-0.953,-0.8941,-0.827,-0.739,-0.6561,-0.5723,-0.471,-0.3969,-0.3221,-0.2467,-0.1848,-0.1359,-0.0995,-0.0495,0.1762,0.612,1.4401,2.1604,2.679,2.8032,2.8791,2.94,2.9378,2.9621,3.0241,3.0272,3.0185,3.0123,3.0049,3.0003,2.9988,2.9956,2.9924,2.9907,2.9907,2.9907,2.9907,2.991,2.9954,3.0073,3.049,3.0993,3.1038,3.1058,3.1251,3.1784,3.213,3.2455,3.3055,3.3351,3.3698,3.4229,3.4464,3.4623,3.4687,3.4747,3.4809,3.4755,3.4907,3.4889,3.4945,3.4962,3.5111,3.5183,3.5196,3.5229,3.5277,3.532,3.5383,-3.0717,-3.0568,-3.0582,-3.0433,-3.0326,-3.0266,-2.9974,-2.9526,-2.873,-2.815,-2.7774,-2.742,-2.7222,-2.7155,-2.6902,-2.678,-2.6675,-2.6202,-2.5788,-2.5498,-2.4868,-2.4412,-2.41,-2.3356,-2.2923,-2.2771,-2.2151,-2.1812,-2.1698,-2.1635,-2.1549,-2.1325,-2.1078,-2.0459,-1.9408,-1.8558,-1.7759,-1.7112,-1.656,-1.5613,-1.4158,-1.4087,-1.3308,-1.1902,-1.1373,-1.0807,-1.0174,-0.9658,-0.8988,-0.812,-0.721,-0.6346,-0.5423,-0.4408,-0.3477,-0.2776,-0.2154,-0.1559,-0.1024,-0.0815,0.1629,0.6676,0.8964,1.3882,2.3111,2.7848,3.0308,3.0382,3.0289,3.0312,3.0379,3.0318,3.0272,3.0185,3.0123,3.0064,3.0022,3.0007,2.9956,2.9924,2.9907,2.9945,2.9969,2.999,3.024,3.0622,3.0938,3.1264,3.2177,3.249,3.2551,3.276,3.3272,3.3722,3.3918,3.4083,3.419,3.4348,3.4473,3.458,3.4666,3.4727,3.4749,3.4868,3.4907,3.4927,3.4983,3.5001,3.5075,3.5147,3.5181,3.5215,3.5209,3.5258,3.5324,-3.1827,-3.1751,-3.1689,-3.1565,-3.1474,-3.1003,-3.0611,-3.0066,-2.9428,-2.8844,-2.8341,-2.8197,-2.8,-2.7802,-2.7536,-2.7403,-2.7255,-2.6943,-2.6614,-2.6375,-2.5696,-2.5313,-2.5012,-2.4295,-2.3855,-2.3648,-2.3353,-2.2959,-2.2579,-2.2428,-2.2159,-2.1675,-2.1348,-2.0853,-2.0247,-1.9561,-1.9072,-1.8775,-1.77,-1.6523,-1.5305,-1.5269,-1.4601,-1.3236,-1.2713,-1.213,-1.1411,-1.0883,-1.0219,-0.9411,-0.8393,-0.7464,-0.6646,-0.5627,-0.4619,-0.384,-0.3105,-0.2377,-0.178,-0.1239,0.0262,0.3218,0.6061,0.9668,1.4662,2.2209,2.7715,3.0268,3.0558,3.054,3.0447,3.0398,3.0318,3.026,3.0194,3.0142,3.0064,3.0038,2.9972,2.9943,3.0288,3.0555,3.0538,3.0883,3.1167,3.1522,3.1736,3.234,3.3216,3.3393,3.3412,3.3456,3.3758,3.4012,3.4148,3.4245,3.4316,3.4386,3.4431,3.4539,3.4623,3.4666,3.4728,3.4809,3.4868,3.4907,3.4946,3.4964,3.5038,3.5129,3.5183,3.5198,3.5193,3.5261,3.5308,-3.2908,-3.2796,-3.2655,-3.2527,-3.2469,-3.1786,-3.1332,-3.0942,-3.0362,-2.9756,-2.9214,-2.8787,-2.8471,-2.8197,-2.8,-2.7789,-2.759,-2.7469,-2.7268,-2.7027,-2.6483,-2.6146,-2.5962,-2.5247,-2.4866,-2.4579,-2.448,-2.4067,-2.3506,-2.3276,-2.2819,-2.2076,-2.1544,-2.1169,-2.0967,-2.0431,-2.0107,-1.9901,-1.8713,-1.7536,-1.6481,-1.6393,-1.5743,-1.4658,-1.3974,-1.3377,-1.2639,-1.2037,-1.1354,-1.0516,-0.9469,-0.8564,-0.7792,-0.6726,-0.5749,-0.4871,-0.4087,-0.3267,-0.2495,-0.1758,-0.1015,-0.0268,0.3362,0.6306,0.8455,1.5182,2.2515,2.787,2.9855,3.0595,3.053,3.0488,3.0414,3.0336,3.0292,3.0327,3.0371,3.035,3.0386,3.0509,3.1009,3.1371,3.1449,3.1788,3.2102,3.2299,3.2836,3.3408,3.3792,3.3913,3.3887,3.3913,3.3947,3.4023,3.4099,3.4197,3.4293,3.4363,3.445,3.4495,3.458,3.4645,3.4687,3.4768,3.4827,3.4887,3.4908,3.4927,3.5001,3.5094,3.5147,3.5181,3.5193,3.5245,3.5277,-3.322,-3.2859,-3.284,-3.2655,-3.2556,-3.2327,-3.2155,-3.2091,-3.1681,-3.1406,-3.0974,-2.9388,-2.8614,-2.8522,-2.8224,-2.7961,-2.7789,-2.7776,-2.759,-2.7268,-2.7217,-2.7069,-2.6803,-2.6291,-2.5892,-2.5498,-2.5084,-2.4651,-2.4226,-2.3993,-2.3465,-2.2638,-2.1985,-2.1509,-2.1169,-2.0775,-2.0377,-2.0107,-1.9814,-1.9036,-1.777,-1.7334,-1.6627,-1.5689,-1.4967,-1.4255,-1.3632,-1.2706,-1.1819,-1.0923,-0.9979,-0.9071,-0.8236,-0.7237,-0.6369,-0.5561,-0.4845,-0.39,-0.2717,-0.2204,-0.1657,-0.1011,-0.0198,0.2427,0.671,0.8823,1.3758,2.1912,2.785,3.0173,3.0604,3.0578,3.0539,3.0537,3.0475,3.0606,3.1155,3.1253,3.1511,3.2191,3.218,3.226,3.2204,3.2257,3.2414,3.2887,3.3401,3.3795,3.3858,3.386,3.3834,3.3834,3.3895,3.4023,3.4099,3.4173,3.4245,3.4316,3.4381,3.445,3.4517,3.458,3.4645,3.4727,3.4768,3.4829,3.4887,3.4927,3.4945,3.5057,3.511,3.5127,3.5176,3.5209,3.5207,-3.4569,-3.4377,-3.4053,-3.3777,-3.3601,-3.3173,-3.2934,-3.2774,-3.227,-3.1982,-3.1716,-3.0765,-2.9969,-2.9313,-2.905,-2.8663,-2.8118,-2.7987,-2.7868,-2.759,-2.759,-2.7456,-2.7175,-2.6994,-2.6745,-2.6464,-2.6222,-2.5744,-2.5087,-2.4513,-2.3758,-2.2951,-2.2559,-2.2044,-2.1371,-2.1094,-2.0839,-2.0571,-2.0183,-1.9738,-1.9188,-1.8532,-1.778,-1.6949,-1.6327,-1.5659,-1.4965,-1.3979,-1.3075,-1.2294,-1.1219,-1.0204,-0.9406,-0.8448,-0.7508,-0.6668,-0.5479,-0.4393,-0.3391,-0.2947,-0.242,-0.1752,-0.1344,0.0067,0.2547,0.5688,0.9628,1.3999,2.148,2.7354,2.9997,3.061,3.0742,3.1099,3.1179,3.1436,3.2158,3.2187,3.2302,3.2511,3.2862,3.3091,3.3071,3.3287,3.3467,3.3605,3.3857,3.3928,3.3834,3.3807,3.378,3.378,3.386,3.3947,3.403,3.4124,3.4221,3.4293,3.434,3.4409,3.4495,3.458,3.4623,3.4687,3.4747,3.4809,3.4887,3.4907,3.4927,3.502,3.511,3.5181,3.5193,3.519,3.519,-3.5569,-3.5439,-3.4913,-3.4563,-3.437,-3.3935,-3.3651,-3.346,-3.3027,-3.2694,-3.2563,-3.2298,-3.1545,-3.0522,-3.0062,-2.9454,-2.8662,-2.8504,-2.8292,-2.7947,-2.7855,-2.7656,-2.7469,-2.739,-2.7268,-2.7079,-2.7066,-2.6646,-2.5892,-2.5099,-2.4312,-2.362,-2.32,-2.2647,-2.1898,-2.1516,-2.1233,-2.0967,-2.0571,-2.0302,-2.0107,-1.9528,-1.8798,-1.8056,-1.752,-1.689,-1.6114,-1.5117,-1.4266,-1.3404,-1.2291,-1.1335,-1.0519,-0.9533,-0.8552,-0.7513,-0.6271,-0.5167,-0.4408,-0.3896,-0.3299,-0.2573,-0.2097,-0.1559,-0.0397,0.2709,0.5604,0.8145,1.4532,2.1261,2.7947,3.0389,3.1568,3.2106,3.2113,3.2382,3.307,3.3121,3.3127,3.323,3.3695,3.3865,3.384,3.4067,3.4223,3.4018,3.3979,3.3921,3.3762,3.3734,3.378,3.3744,3.3834,3.3921,3.3979,3.4099,3.4197,3.4269,3.4316,3.4386,3.4473,3.4517,3.4602,3.4645,3.4747,3.4788,3.4829,3.4869,3.4927,3.502,3.511,3.5198,3.5193,3.519,3.519,-3.5812,-3.5439,-3.4898,-3.4563,-3.4399,-3.4356,-3.4341,-3.423,-3.4066,-3.3998,-3.3887,-3.3794,-3.3206,-3.2216,-3.1346,-3.0335,-2.9549,-2.9428,-2.8945,-2.8159,-2.7961,-2.7789,-2.7789,-2.759,-2.7403,-2.7281,-2.7281,-2.696,-2.6382,-2.585,-2.5465,-2.4964,-2.3782,-2.3003,-2.2783,-2.2072,-2.1509,-2.1233,-2.1083,-2.0903,-2.0464,-2.0183,-1.9584,-1.8798,-1.825,-1.7569,-1.683,-1.5965,-1.5037,-1.397,-1.3032,-1.2077,-1.1111,-1.0293,-0.9221,-0.791,-0.7214,-0.6377,-0.5504,-0.4872,-0.4235,-0.344,-0.2904,-0.2352,-0.1839,-0.0677,0.1844,0.627,0.8223,1.369,2.265,2.8586,3.2016,3.2411,3.29,3.3349,3.4058,3.4074,3.437,3.4685,3.468,3.4504,3.4342,3.439,3.4269,3.4074,3.3998,3.3921,3.3734,3.3753,3.3753,3.3734,3.3788,3.3902,3.3998,3.4074,3.4124,3.4197,3.4269,3.4316,3.4404,3.4473,3.4517,3.4604,3.4727,3.4788,3.4809,3.4888,3.4964,3.5057,3.5129,3.5162,3.5176,3.5174,3.519,-3.5782,-3.5294,-3.4949,-3.4683,-3.4414,-3.4414,-3.4414,-3.4414,-3.4346,-3.4264,-3.4278,-3.4074,-3.3808,-3.3428,-3.3024,-3.194,-3.0498,-3.0322,-2.9807,-2.9012,-2.8826,-2.8346,-2.7802,-2.7709,-2.759,-2.7456,-2.7403,-2.7255,-2.6973,-2.6659,-2.619,-2.5582,-2.4996,-2.4202,-2.3128,-2.2671,-2.223,-2.1533,-2.1296,-2.1094,-2.0903,-2.0646,-2.0194,-1.9649,-1.8921,-1.8259,-1.7638,-1.6733,-1.5745,-1.4832,-1.3905,-1.2879,-1.1922,-1.0738,-0.969,-0.8846,-0.8169,-0.7447,-0.6688,-0.6071,-0.5414,-0.462,-0.4138,-0.3505,-0.2843,-0.2211,-0.0837,0.1636,0.5752,1.036,1.4426,2.2244,2.7861,2.8782,3.1734,3.4052,3.4808,3.4974,3.4994,3.5045,3.4908,3.4689,3.4495,3.4386,3.4293,3.4074,3.3998,3.3895,3.3726,3.3726,3.3753,3.3671,3.3753,3.3868,3.3998,3.4049,3.4124,3.4197,3.4264,3.4335,3.4404,3.445,3.4517,3.4583,3.4687,3.4768,3.4809,3.4869,3.4964,3.502,3.5092,3.5127,3.5179,3.5176,3.5193,-3.5963,-3.5294,-3.5067,-3.4802,-3.4481,-3.4481,-3.4481,-3.4414,-3.4414,-3.4414,-3.4346,-3.4264,-3.4196,-3.4059,-3.402,-3.3249,-3.1872,-3.1459,-3.0746,-2.9996,-2.97,-2.9174,-2.8425,-2.8213,-2.7907,-2.7616,-2.7523,-2.7456,-2.7281,-2.7146,-2.6739,-2.6139,-2.587,-2.5087,-2.4014,-2.3353,-2.2711,-2.2171,-2.1642,-2.1348,-2.1285,-2.0967,-2.0711,-2.0302,-1.9594,-1.8921,-1.8317,-1.7432,-1.6524,-1.5613,-1.4697,-1.3688,-1.2445,-1.1409,-1.0507,-0.983,-0.9306,-0.8623,-0.7842,-0.7287,-0.6594,-0.5844,-0.5208,-0.4572,-0.3797,-0.3183,-0.2581,-0.1006,0.1842,0.5137,0.7226,1.391,2.107,2.528,2.9749,3.3088,3.5192,3.5464,3.5296,3.5088,3.4908,3.4689,3.4476,3.4404,3.4264,3.4005,3.3972,3.3815,3.3671,3.3689,3.3726,3.3633,3.3707,3.3842,3.3965,3.4042,3.4136,3.4228,3.424,3.4293,3.4381,3.445,3.4517,3.4561,3.4666,3.4728,3.479,3.485,3.4908,3.4983,3.502,3.5092,3.5145,3.5179,3.5176,-3.6431,-3.5654,-3.5294,-3.509,-3.4771,-3.4712,-3.4563,-3.4414,-3.4414,-3.4399,-3.4414,-3.4346,-3.4278,-3.4128,-3.4128,-3.3948,-3.3557,-3.28,-3.1898,-3.095,-3.0569,-3.0052,-2.9443,-2.9013,-2.845,-2.7894,-2.7603,-2.7403,-2.7335,-2.7281,-2.7175,-2.6815,-2.6193,-2.5715,-2.5586,-2.4168,-2.3232,-2.2835,-2.2285,-2.1773,-2.1463,-2.1285,-2.1106,-2.0828,-2.0313,-1.9649,-1.8865,-1.8114,-1.7217,-1.6376,-1.5613,-1.4402,-1.2959,-1.2224,-1.1632,-1.0887,-1.0438,-0.9836,-0.9074,-0.8452,-0.7753,-0.7003,-0.6259,-0.5548,-0.4778,-0.4047,-0.34,-0.2643,-0.1676,-0.0924,0.0597,0.5435,1.3415,2.4269,2.6607,2.9971,3.3619,3.5438,3.5374,3.5091,3.4907,3.4708,3.4539,3.4386,3.4221,3.4023,3.3895,3.378,3.3615,3.3661,3.3689,3.3643,3.3744,3.3897,3.3957,3.4035,3.4173,3.426,3.4234,3.4245,3.434,3.4427,3.4495,3.4561,3.4666,3.4747,3.4809,3.4869,3.4927,3.4983,3.5001,3.5038,3.5092,3.5145,3.5179,-3.7552,-3.6977,-3.6327,-3.5867,-3.5486,-3.5074,-3.475,-3.4631,-3.4601,-3.4534,-3.4414,-3.4414,-3.4346,-3.4332,-3.4346,-3.421,-3.4059,-3.3679,-3.2993,-3.201,-3.1516,-3.0925,-3.0256,-2.9943,-2.9374,-2.8477,-2.7773,-2.7469,-2.7482,-2.7469,-2.7335,-2.7149,-2.6966,-2.6391,-2.5728,-2.5128,-2.4418,-2.3207,-2.2811,-2.2369,-2.1785,-2.1463,-2.1273,-2.1094,-2.07,-2.0172,-1.9715,-1.8767,-1.7833,-1.6941,-1.6306,-1.5313,-1.397,-1.3185,-1.2606,-1.2083,-1.1409,-1.0738,-1.0062,-0.9463,-0.8789,-0.803,-0.7355,-0.6583,-0.578,-0.5049,-0.433,-0.3714,-0.3044,-0.2431,-0.1473,0.015,0.597,1.3967,2.1944,2.7134,3.012,3.3312,3.5014,3.511,3.4927,3.473,3.4539,3.4363,3.4197,3.3972,3.3842,3.3726,3.3605,3.3633,3.3671,3.3633,3.3781,3.4183,3.4594,3.4913,3.5047,3.505,3.4897,3.4593,3.4577,3.4596,3.4622,3.4561,3.4687,3.4768,3.4829,3.4888,3.4927,3.4927,3.4964,3.5001,3.5057,3.5092,3.5127,-3.8354,-3.7879,-3.7188,-3.6753,-3.6437,-3.594,-3.5604,-3.5453,-3.5433,-3.5297,-3.5136,-3.4898,-3.4743,-3.469,-3.453,-3.4346,-3.4196,-3.4128,-3.3708,-3.3024,-3.2569,-3.1889,-3.1048,-3.0569,-2.9927,-2.9032,-2.8273,-2.793,-2.7837,-2.7641,-2.7469,-2.7403,-2.7335,-2.6966,-2.626,-2.5858,-2.509,-2.4168,-2.3429,-2.2811,-2.2309,-2.182,-2.1463,-2.1273,-2.0967,-2.0635,-2.0226,-1.9441,-1.8576,-1.7696,-1.6872,-1.5886,-1.484,-1.4122,-1.3622,-1.3039,-1.2445,-1.1781,-1.1111,-1.0513,-0.9776,-0.9032,-0.8336,-0.7633,-0.6868,-0.6093,-0.5315,-0.4691,-0.3988,-0.329,-0.2743,-0.1957,0.0664,0.4788,1.4038,2.1915,2.6092,3.202,3.4979,3.5176,3.4964,3.4752,3.4583,3.4363,3.4173,3.3947,3.3807,3.3716,3.3549,3.3577,3.3704,3.3943,3.4247,3.4798,3.5487,3.579,3.5982,3.5914,3.5781,3.5374,3.5136,3.5072,3.5086,3.473,3.4687,3.4768,3.4809,3.4869,3.4908,3.4927,3.4945,3.4964,3.5001,3.5038,3.5092,-3.9014,-3.8397,-3.7985,-3.7714,-3.7494,-3.7237,-3.6857,-3.6652,-3.6546,-3.6362,-3.6152,-3.5671,-3.5477,-3.5339,-3.4936,-3.4675,-3.4419,-3.4394,-3.4185,-3.3879,-3.3478,-3.2849,-3.2055,-3.1034,-3.0279,-2.9728,-2.9072,-2.8644,-2.835,-2.7943,-2.7562,-2.7482,-2.7403,-2.7268,-2.7046,-2.626,-2.5807,-2.5306,-2.4156,-2.3381,-2.3007,-2.2321,-2.1835,-2.1486,-2.1285,-2.1031,-2.0635,-2.0053,-1.9386,-1.8499,-1.7285,-1.6394,-1.57,-1.5196,-1.4617,-1.3977,-1.3477,-1.2893,-1.215,-1.1552,-1.0812,-1.0078,-0.9316,-0.8546,-0.794,-0.7173,-0.6398,-0.5696,-0.5002,-0.4226,-0.3602,-0.2899,-0.1785,-0.0458,0.788,1.6488,2.563,3.2026,3.4943,3.5258,3.5037,3.4831,3.4645,3.4404,3.4148,3.3921,3.3753,3.3623,3.3756,3.3902,3.4095,3.4444,3.4895,3.5475,3.6232,3.6546,3.6796,3.7137,3.6922,3.647,3.5789,3.5576,3.546,3.5086,3.4762,3.4806,3.4829,3.4869,3.4908,3.4908,3.4927,3.4945,3.4964,3.5001,3.5057,-4.0033,-3.9711,-3.9154,-3.8652,-3.8301,-3.7796,-3.7381,-3.7035,-3.6936,-3.6784,-3.6472,-3.6158,-3.6043,-3.6054,-3.5865,-3.5575,-3.5212,-3.5082,-3.4669,-3.4171,-3.4005,-3.352,-3.2653,-3.1652,-3.1015,-3.0724,-3.0017,-2.9233,-2.8644,-2.8447,-2.809,-2.7536,-2.7482,-2.7403,-2.7217,-2.6966,-2.6416,-2.5807,-2.5331,-2.4422,-2.346,-2.2986,-2.2507,-2.2011,-2.1698,-2.1434,-2.1031,-2.0377,-1.9584,-1.8566,-1.7706,-1.7097,-1.6682,-1.6114,-1.5551,-1.5054,-1.441,-1.384,-1.3317,-1.2586,-1.1942,-1.1297,-1.0449,-0.969,-0.8937,-0.8165,-0.7472,-0.6777,-0.6086,-0.5467,-0.4849,-0.4148,-0.313,-0.0381,0.7756,1.7609,2.5226,3.1849,3.5514,3.5345,3.5176,3.4945,3.4689,3.445,3.4234,3.4002,3.3863,3.3887,3.4229,3.4436,3.4673,3.5337,3.5846,3.6391,3.6883,3.7219,3.7654,3.8256,3.8155,3.7753,3.6863,3.6067,3.5857,3.5597,3.516,3.5052,3.4923,3.4849,3.4888,3.4908,3.4908,3.4927,3.4927,3.4927,3.5001,-4.047,-4.037,-3.9918,-3.9627,-3.9358,-3.8856,-3.8482,-3.8132,-3.8005,-3.7777,-3.7462,-3.7022,-3.6878,-3.6794,-3.6503,-3.6127,-3.5764,-3.5473,-3.5154,-3.4683,-3.4257,-3.3716,-3.3101,-3.2387,-3.1981,-3.1643,-3.0888,-3.0177,-2.9581,-2.9088,-2.8569,-2.8185,-2.7854,-2.7683,-2.7523,-2.739,-2.7046,-2.6391,-2.6029,-2.5285,-2.4474,-2.3698,-2.3038,-2.2561,-2.2154,-2.1749,-2.1221,-2.07,-1.9966,-1.8967,-1.8317,-1.7862,-1.751,-1.695,-1.6464,-1.6123,-1.5401,-1.4848,-1.4346,-1.3622,-1.2966,-1.2318,-1.1564,-1.0887,-1.0207,-0.9448,-0.877,-0.8156,-0.7464,-0.67,-0.5935,-0.5004,-0.3754,-0.1299,0.7227,1.5958,2.2338,2.8067,3.2592,3.4436,3.5285,3.5054,3.4791,3.4539,3.4474,3.4423,3.4348,3.4637,3.503,3.5163,3.5472,3.6176,3.6638,3.7064,3.7569,3.7927,3.805,3.8681,3.8803,3.8515,3.7821,3.6721,3.6288,3.6006,3.559,3.5222,3.5093,3.4944,3.4908,3.4908,3.4908,3.4908,3.4908,3.4908,3.4983,-4.0524,-4.0455,-4.0331,-4.0347,-4.0231,-4.0051,-3.9632,-3.9436,-3.9218,-3.9058,-3.8664,-3.8015,-3.7665,-3.7623,-3.7084,-3.6519,-3.6388,-3.5981,-3.5546,-3.5099,-3.4542,-3.3854,-3.3437,-3.3171,-3.2777,-3.2294,-3.1714,-3.1229,-3.0529,-2.9669,-2.9106,-2.8826,-2.8332,-2.804,-2.7802,-2.7669,-2.7456,-2.7126,-2.6537,-2.6031,-2.5492,-2.4668,-2.3899,-2.3335,-2.2582,-2.2044,-2.1521,-2.1031,-2.0442,-1.9497,-1.9131,-1.8607,-1.8134,-1.7725,-1.7373,-1.6941,-1.6385,-1.5833,-1.5355,-1.4697,-1.3977,-1.347,-1.2739,-1.2057,-1.1527,-1.0864,-1.0126,-0.9518,-0.8765,-0.7927,-0.6857,-0.5544,-0.4302,-0.2452,0.2943,0.893,1.5971,2.267,2.8844,3.3794,3.4619,3.5187,3.5022,3.4856,3.4853,3.5428,3.5294,3.5502,3.586,3.6042,3.6479,3.7161,3.7497,3.771,3.82,3.867,3.8704,3.8902,3.898,3.8813,3.8436,3.7623,3.6943,3.6456,3.6098,3.5673,3.5243,3.5113,3.5002,3.4908,3.4908,3.4908,3.4908,3.4908,3.4964,-4.0524,-4.0524,-4.0455,-4.0401,-4.0277,-4.0261,-3.998,-3.9625,-3.9496,-3.9265,-3.9002,-3.8679,-3.8473,-3.8296,-3.7974,-3.7711,-3.7099,-3.6809,-3.6402,-3.5299,-3.4704,-3.4225,-3.3854,-3.3521,-3.3255,-3.2903,-3.2607,-3.2064,-3.1332,-3.0595,-2.9781,-2.9174,-2.8665,-2.8079,-2.8079,-2.8,-2.7802,-2.751,-2.7246,-2.6762,-2.6189,-2.5661,-2.5023,-2.4313,-2.3384,-2.2618,-2.202,-2.1423,-2.0955,-2.0495,-1.9878,-1.9393,-1.8875,-1.8452,-1.8114,-1.7716,-1.7235,-1.6811,-1.6455,-1.5824,-1.5213,-1.4761,-1.4122,-1.3491,-1.2868,-1.2251,-1.1533,-1.0789,-1.0126,-0.915,-0.7804,-0.6553,-0.5335,-0.3795,-0.165,0.2397,0.9695,1.9515,2.5789,2.9284,3.2722,3.5494,3.5834,3.5795,3.5935,3.6304,3.6443,3.6481,3.6673,3.6955,3.7356,3.7898,3.8021,3.8144,3.8383,3.878,3.8851,3.8939,3.9017,3.9137,3.8779,3.8483,3.7785,3.7188,3.6682,3.6236,3.5883,3.5227,3.5116,3.5022,3.4946,3.4908,3.4908,3.4908,3.4945,-4.0524,-4.0524,-4.0524,-4.0455,-4.0401,-4.0416,-4.0261,-3.9996,-3.9742,-3.9583,-3.9322,-3.906,-3.887,-3.8738,-3.859,-3.8222,-3.7827,-3.7273,-3.6432,-3.5404,-3.4766,-3.4423,-3.402,-3.3744,-3.3536,-3.3312,-3.3086,-3.2652,-3.2081,-3.1405,-3.0679,-2.9997,-2.9279,-2.8793,-2.8484,-2.8392,-2.8197,-2.7921,-2.7789,-2.7499,-2.6986,-2.6465,-2.5741,-2.4935,-2.4122,-2.3506,-2.2991,-2.2621,-2.208,-2.1518,-2.0994,-2.0281,-1.9571,-1.9054,-1.8798,-1.8462,-1.8046,-1.7706,-1.7354,-1.6821,-1.636,-1.6024,-1.5371,-1.4799,-1.4117,-1.3491,-1.2785,-1.2124,-1.1329,-1.031,-0.8836,-0.7857,-0.6672,-0.5485,-0.4357,-0.1628,0.3595,1.2131,2.1301,2.5571,3.0205,3.3618,3.5276,3.6517,3.702,3.7394,3.727,3.7332,3.7739,3.7937,3.7966,3.8259,3.84,3.8504,3.8615,3.8762,3.8833,3.895,3.9036,3.9175,3.9141,3.8894,3.8602,3.8032,3.7431,3.7159,3.6732,3.6041,3.5476,3.5495,3.542,3.5116,3.4927,3.4927,3.4982,-4.0524,-4.0524,-4.0524,-4.0524,-4.0524,-4.0455,-4.0401,-4.0277,-4.0127,-3.9899,-3.9711,-3.9352,-3.9192,-3.9031,-3.8811,-3.859,-3.8222,-3.7404,-3.6404,-3.5697,-3.499,-3.4534,-3.4194,-3.3927,-3.3675,-3.3396,-3.3382,-3.3185,-3.2793,-3.2236,-3.1543,-3.1031,-3.0287,-2.9553,-2.9049,-2.878,-2.8573,-2.8352,-2.8249,-2.8052,-2.7749,-2.7236,-2.6401,-2.546,-2.4946,-2.4496,-2.4034,-2.3712,-2.3365,-2.2329,-2.2228,-2.1527,-2.0578,-1.9692,-1.9341,-1.9208,-1.8869,-1.87,-1.8409,-1.8006,-1.7647,-1.732,-1.6767,-1.6147,-1.5711,-1.5114,-1.4491,-1.3593,-1.2798,-1.1523,-1.0231,-0.9232,-0.8114,-0.6819,-0.5676,-0.4277,-0.1717,0.3572,1.241,2.3562,2.8236,3.1655,3.5521,3.7934,3.8175,3.8335,3.8216,3.8209,3.8559,3.8725,3.8628,3.8548,3.8634,3.8683,3.8762,3.8822,3.8921,3.8979,3.9045,3.9221,3.9373,3.9231,3.8983,3.8745,3.8291,3.7928,3.7464,3.6812,3.6402,3.6234,3.5836,3.5458,3.5192,3.5021,3.5094,-4.0524,-4.0524,-4.0524,-4.0524,-4.0524,-4.0524,-4.0401,-4.0277,-4.0292,-4.0152,-3.9925,-3.9696,-3.9496,-3.9337,-3.9104,-3.8811,-3.8355,-3.749,-3.6909,-3.6273,-3.5468,-3.4754,-3.4455,-3.4113,-3.3829,-3.3675,-3.3675,-3.3675,-3.338,-3.2831,-3.2288,-3.1842,-3.0832,-2.9997,-2.9707,-2.9339,-2.8949,-2.8753,-2.8573,-2.8379,-2.8195,-2.7906,-2.7353,-2.6311,-2.5881,-2.535,-2.4751,-2.4365,-2.3952,-2.3508,-2.3207,-2.2747,-2.2002,-2.0831,-2.0139,-1.9908,-1.9885,-1.9771,-1.9665,-1.9525,-1.9384,-1.9183,-1.8721,-1.8162,-1.7715,-1.7184,-1.6368,-1.5455,-1.434,-1.3033,-1.1744,-1.0719,-0.9318,-0.7926,-0.6552,-0.5244,-0.3311,-0.0161,0.5966,1.8018,2.4219,3.0095,3.4153,3.7822,3.9067,3.9142,3.9048,3.8889,3.8951,3.8989,3.8892,3.8833,3.8822,3.8851,3.8899,3.8939,3.9026,3.9017,3.9101,3.9229,3.9373,3.9444,3.9314,3.9089,3.8836,3.847,3.7992,3.7527,3.7137,3.6821,3.631,3.5799,3.5742,3.5685,3.5396,-4.0524,-4.0524,-4.0524,-4.0524,-4.0524,-4.0524,-4.047,-4.0416,-4.0331,-4.0277,-4.0137,-3.9925,-3.9783,-3.964,-3.9409,-3.8973,-3.8413,-3.7835,-3.7236,-3.673,-3.5937,-3.5022,-3.4639,-3.4285,-3.3973,-3.3774,-3.3827,-3.3827,-3.373,-3.3391,-3.2968,-3.2557,-3.1696,-3.1138,-3.0485,-2.9993,-2.9503,-2.9196,-2.8972,-2.8844,-2.8702,-2.8457,-2.7931,-2.7262,-2.6828,-2.6422,-2.587,-2.5569,-2.5073,-2.4542,-2.4157,-2.3676,-2.3033,-2.2317,-2.1397,-2.105,-2.1011,-2.0993,-2.0876,-2.0751,-2.0558,-2.0404,-2.0063,-1.9604,-1.9084,-1.8508,-1.7961,-1.6834,-1.5942,-1.4576,-1.3467,-1.2267,-1.0945,-0.9447,-0.8001,-0.6497,-0.4899,-0.3603,0.3335,1.2341,1.8887,2.5596,3.29,3.627,3.91,3.9929,3.984,3.9632,3.9408,3.9256,3.9138,3.9064,3.9007,3.9026,3.9026,3.9064,3.912,3.9129,3.9183,3.9309,3.9406,3.9502,3.9571,3.9513,3.9242,3.8945,3.8818,3.8471,3.7951,3.7466,3.7127,3.6786,3.654,3.6311,3.6114,-4.0455,-4.0524,-4.0524,-4.0524,-4.0524,-4.0524,-4.0524,-4.047,-4.0401,-4.0331,-4.0347,-4.0137,-4.0066,-3.994,-3.9568,-3.9119,-3.8516,-3.8142,-3.7566,-3.6968,-3.6358,-3.554,-3.4916,-3.4339,-3.42,-3.3875,-3.3703,-3.3758,-3.3744,-3.3687,-3.3485,-3.309,-3.2851,-3.2326,-3.1395,-3.0721,-3.0185,-2.9813,-2.9331,-2.9162,-2.8972,-2.8716,-2.8327,-2.7656,-2.759,-2.7284,-2.679,-2.6561,-2.6113,-2.5605,-2.5129,-2.4735,-2.4102,-2.3668,-2.3235,-2.265,-2.2374,-2.2121,-2.2004,-2.1958,-2.1865,-2.1722,-2.1256,-2.0812,-2.0342,-1.9879,-1.9041,-1.7828,-1.701,-1.6182,-1.5087,-1.3868,-1.2523,-1.1005,-0.9443,-0.799,-0.6304,-0.4391,-0.1691,0.6184,1.3523,2.143,2.9202,3.6726,3.9973,4.023,4.0119,3.9901,3.966,3.9533,3.9399,3.9237,3.9165,3.9156,3.9202,3.921,3.9237,3.9264,3.9343,3.9464,3.9489,3.9539,3.9631,3.9698,3.9665,3.9406,3.9392,3.9282,3.8748,3.8302,3.804,3.7681,3.7224,3.7142,3.7075,-4.0401,-4.0524,-4.0524,-4.0524,-4.0524,-4.0524,-4.0524,-4.0455,-4.047,-4.047,-4.047,-4.0347,-4.0261,-4.0137,-3.9711,-3.9177,-3.8723,-3.8352,-3.7933,-3.7325,-3.6727,-3.6236,-3.5644,-3.4674,-3.4409,-3.4057,-3.379,-3.3772,-3.3744,-3.3675,-3.3716,-3.3571,-3.3104,-3.2596,-3.2293,-3.1517,-3.104,-3.0728,-3.0037,-2.9317,-2.8908,-2.8716,-2.8406,-2.8066,-2.7802,-2.7603,-2.7268,-2.7134,-2.6828,-2.6531,-2.6289,-2.6015,-2.5644,-2.5423,-2.5202,-2.4707,-2.405,-2.3258,-2.3244,-2.3198,-2.3162,-2.3017,-2.2831,-2.2583,-2.1998,-2.1322,-2.0463,-1.9684,-1.8761,-1.778,-1.6547,-1.5389,-1.3917,-1.2401,-1.0945,-0.93,-0.7639,-0.6051,-0.3243,0.0495,0.7888,1.7414,2.616,3.4062,4.069,4.0552,4.038,4.0156,3.9962,3.98,3.9631,3.9483,3.9408,3.942,3.942,3.9401,3.9427,3.9401,3.9496,3.9613,3.9637,3.9684,3.9689,3.9754,3.9754,3.98,3.9731,3.9567,3.9342,3.9142,3.8861,3.8327,3.7733,3.7819,3.8147,-4.0051,-4.0401,-4.0385,-4.0401,-4.0524,-4.0524,-4.0524,-4.0524,-4.0524,-4.0524,-4.0524,-4.047,-4.0401,-4.0207,-3.9854,-3.9481,-3.8943,-3.8575,-3.8066,-3.7625,-3.7068,-3.6646,-3.6085,-3.5489,-3.5068,-3.4309,-3.4015,-3.3776,-3.3691,-3.3758,-3.3813,-3.377,-3.3405,-3.2996,-3.289,-3.2279,-3.1809,-3.1332,-3.0665,-2.9827,-2.9196,-2.8908,-2.8665,-2.8145,-2.8013,-2.7736,-2.7469,-2.7335,-2.7268,-2.6998,-2.6782,-2.6508,-2.6302,-2.6082,-2.5861,-2.5779,-2.5259,-2.4707,-2.4366,-2.4302,-2.4227,-2.4082,-2.3936,-2.361,-2.318,-2.2521,-2.1776,-2.1078,-2.007,-1.9036,-1.7989,-1.6756,-1.535,-1.384,-1.2316,-1.0687,-0.9035,-0.7552,-0.5252,-0.1707,0.2382,1.1348,1.995,2.704,3.4666,3.9455,3.9874,4.038,4.0157,3.9979,3.9854,3.975,3.9679,3.9665,3.9665,3.9689,3.967,3.967,3.9712,3.98,3.98,3.9823,3.9848,3.9892,3.9975,3.9996,4.0017,3.9922,3.9753,3.9718,3.97,3.9256,3.8903,3.9292,3.9441,-3.9466,-3.998,-4.0137,-4.0331,-4.047,-4.047,-4.047,-4.0524,-4.0524,-4.0524,-4.0455,-4.0455,-4.0331,-4.0121,-3.9925,-3.9553,-3.9031,-3.8738,-3.8217,-3.7777,-3.7429,-3.6957,-3.6388,-3.6093,-3.5545,-3.4587,-3.4223,-3.4,-3.3748,-3.3634,-3.3744,-3.3813,-3.3618,-3.3419,-3.3078,-3.2762,-3.2298,-3.1622,-3.1304,-3.0459,-2.955,-2.9361,-2.8866,-2.8395,-2.8079,-2.7947,-2.7523,-2.739,-2.7335,-2.7268,-2.7066,-2.6863,-2.6794,-2.6589,-2.644,-2.6371,-2.6089,-2.5812,-2.538,-2.5099,-2.4921,-2.4826,-2.4587,-2.4311,-2.3886,-2.3298,-2.2703,-2.209,-2.1175,-2.0226,-1.9274,-1.798,-1.6593,-1.5177,-1.3756,-1.214,-1.0514,-0.8948,-0.7376,-0.4729,-0.0853,0.3593,1.1736,1.8876,2.6908,3.5784,3.9018,4.0295,4.0383,4.0177,4.0061,3.9963,3.9899,3.9873,3.9873,3.9873,3.9895,3.9935,3.9956,3.9956,3.9977,3.9998,4.0038,4.0099,4.0158,4.0196,4.0196,4.0196,4.0196,4.01,4.0093,4.0257,4.03,4.0588,4.0538,-3.8811,-3.9265,-3.9768,-4.0137,-4.0261,-4.0261,-4.0401,-4.047,-4.047,-4.0455,-4.047,-4.0347,-4.0137,-3.9839,-3.9696,-3.9394,-3.8855,-3.8797,-3.8277,-3.7763,-3.7519,-3.7092,-3.662,-3.6249,-3.5961,-3.5432,-3.479,-3.4304,-3.3984,-3.3592,-3.3607,-3.3605,-3.3578,-3.3675,-3.3502,-3.3132,-3.2553,-3.2056,-3.1772,-3.1143,-3.0318,-2.9821,-2.9329,-2.849,-2.8146,-2.7961,-2.7562,-2.7561,-2.7561,-2.7574,-2.7294,-2.7201,-2.7134,-2.7011,-2.6875,-2.6807,-2.6658,-2.6477,-2.6263,-2.5795,-2.5535,-2.5382,-2.517,-2.4849,-2.4606,-2.4077,-2.353,-2.297,-2.2077,-2.1175,-2.0148,-1.9116,-1.7738,-1.6347,-1.4851,-1.3419,-1.1798,-1.0255,-0.8686,-0.7115,-0.4025,0.0,0.4195,1.1502,2.2389,3.1656,3.919,4.0703,4.0568,4.0386,4.0267,4.0157,4.012,4.0061,4.0002,4.0041,4.006,4.01,4.0139,4.0139,4.0158,4.0196,4.0234,4.0252,4.0325,4.0342,4.0413,4.0411,4.0411,4.0427,4.0457,4.0549,4.0602,4.0688,4.0773,-3.8352,-3.8723,-3.8958,-3.9409,-3.998,-4.0051,-4.0137,-4.0207,-4.0191,-4.0191,-4.0191,-4.0137,-3.9996,-3.9696,-3.9553,-3.9265,-3.8797,-3.8501,-3.8066,-3.7687,-3.7303,-3.7007,-3.6646,-3.6364,-3.6009,-3.562,-3.5051,-3.4649,-3.4302,-3.3821,-3.3584,-3.3589,-3.3536,-3.3424,-3.3394,-3.3377,-3.2936,-3.2472,-3.2192,-3.1657,-3.0821,-3.0349,-2.9984,-2.9266,-2.9145,-2.894,-2.8638,-2.8229,-2.8111,-2.7968,-2.7678,-2.7546,-2.752,-2.7385,-2.7317,-2.7249,-2.7126,-2.7105,-2.7119,-2.6552,-2.5968,-2.5709,-2.5523,-2.5397,-2.5384,-2.4772,-2.4356,-2.369,-2.2972,-2.1998,-2.1108,-1.9923,-1.8638,-1.7342,-1.6057,-1.458,-1.3076,-1.1554,-1.0086,-0.8625,-0.7064,-0.4487,-0.0259,0.4325,1.6218,2.7643,3.4966,4.0878,4.0827,4.0891,4.0866,4.0828,4.0797,4.0666,4.0612,4.0479,4.0309,4.0422,4.0515,4.0532,4.0643,4.0392,4.0427,4.0444,4.0457,4.0504,4.0549,4.0612,4.0612,4.0564,4.064,4.0739,4.0781,4.0818,4.0859,-3.7734,-3.8142,-3.8217,-3.8738,-3.9466,-3.9696,-3.9783,-3.9839,-3.9854,-3.9783,-3.9696,-3.9711,-3.9553,-3.9409,-3.9177,-3.8885,-3.8501,-3.8127,-3.7749,-3.7443,-3.707,-3.6772,-3.6549,-3.6401,-3.6129,-3.5664,-3.5388,-3.5134,-3.4803,-3.412,-3.3822,-3.3605,-3.3473,-3.3393,-3.3312,-3.3423,-3.3364,-3.2998,-3.2706,-3.2137,-3.1267,-3.0911,-3.0377,-2.9811,-2.9552,-2.9342,-2.8982,-2.8677,-2.8534,-2.8417,-2.8235,-2.8069,-2.8004,-2.7978,-2.791,-2.7841,-2.7825,-2.7855,-2.7787,-2.7442,-2.6731,-2.6618,-2.638,-2.636,-2.6129,-2.5645,-2.5257,-2.4986,-2.3928,-2.2873,-2.2226,-2.1174,-1.9931,-1.8768,-1.7511,-1.6082,-1.4515,-1.3043,-1.1607,-1.0182,-0.8702,-0.7098,-0.3239,0.1996,1.3606,2.4475,3.1594,3.8027,4.1538,4.1629,4.1816,4.1749,4.1677,4.1513,4.1347,4.152,4.1678,4.1771,4.1748,4.1343,4.1243,4.1027,4.0714,4.0626,4.0635,4.0655,4.0694,4.073,4.0725,4.0675,4.0757,4.0856,4.0898,4.0917,4.0915,-3.6993,-3.7303,-3.7534,-3.8142,-3.8943,-3.909,-3.9235,-3.9307,-3.9379,-3.925,-3.9104,-3.9104,-3.8885,-3.859,-3.8516,-3.8277,-3.7962,-3.7672,-3.738,-3.7056,-3.6758,-3.6457,-3.6312,-3.6204,-3.6084,-3.5987,-3.5658,-3.5407,-3.5333,-3.4664,-3.4156,-3.3817,-3.3643,-3.3373,-3.3043,-3.3368,-3.3452,-3.3297,-3.3171,-3.2556,-3.1874,-3.14,-3.0818,-3.0153,-2.9763,-2.9601,-2.9346,-2.8936,-2.8821,-2.8853,-2.8782,-2.8711,-2.8794,-2.8904,-2.8917,-2.8956,-2.9008,-2.8944,-2.8651,-2.8409,-2.8044,-2.7553,-2.7102,-2.7127,-2.7051,-2.6653,-2.624,-2.5831,-2.5113,-2.4414,-2.3599,-2.2544,-2.123,-1.9949,-1.8651,-1.7353,-1.5741,-1.4425,-1.2957,-1.1505,-1.0356,-0.8656,-0.5136,0.0527,1.1908,2.1492,2.8416,3.4183,3.9121,4.2369,4.2578,4.2574,4.2478,4.2447,4.2396,4.2821,4.3053,4.3131,4.2885,4.2363,4.2112,4.2028,4.1615,4.1079,4.0986,4.1156,4.1004,4.0849,4.084,4.0819,4.0849,4.0917,4.0971,4.0996,4.0991,-3.6256,-3.6624,-3.6716,-3.7106,-3.7734,-3.8277,-3.8575,-3.8575,-3.8634,-3.856,-3.8501,-3.8501,-3.8277,-3.7991,-3.7839,-3.7672,-3.7289,-3.712,-3.6822,-3.6744,-3.6443,-3.6298,-3.6072,-3.5978,-3.5898,-3.5857,-3.5625,-3.553,-3.5557,-3.4971,-3.4671,-3.4331,-3.3704,-3.3225,-3.2941,-3.2945,-3.2931,-3.286,-3.2761,-3.2451,-3.2085,-3.1771,-3.1302,-3.0553,-3.0307,-3.006,-2.9812,-2.9394,-2.9254,-2.9288,-2.9121,-2.8949,-2.9008,-2.9008,-2.897,-2.8931,-2.8931,-2.8941,-2.9068,-2.9111,-2.8897,-2.8224,-2.773,-2.7655,-2.7614,-2.6944,-2.6735,-2.6492,-2.5789,-2.4992,-2.3913,-2.295,-2.1768,-2.0671,-1.9466,-1.8194,-1.6783,-1.5574,-1.4225,-1.2762,-1.1375,-0.9664,-0.6807,-0.4438,0.5268,1.4247,2.0915,2.8811,3.4573,4.0622,4.3293,4.3261,4.3237,4.3277,4.3421,4.3807,4.3862,4.3742,4.3521,4.3125,4.2951,4.2962,4.2518,4.1975,4.181,4.1663,4.1252,4.0945,4.0979,4.0999,4.0984,4.0957,4.0991,4.1039,4.1078,-3.571,-3.6004,-3.6004,-3.6163,-3.6665,-3.7429,-3.7825,-3.7825,-3.7749,-3.7825,-3.7749,-3.7749,-3.7596,-3.738,-3.7211,-3.707,-3.6758,-3.6429,-3.635,-3.627,-3.5884,-3.5737,-3.5656,-3.5562,-3.5494,-3.5494,-3.548,-3.5453,-3.5413,-3.5076,-3.4832,-3.4465,-3.3927,-3.3383,-3.2997,-3.2839,-3.2704,-3.2646,-3.2417,-3.2214,-3.1969,-3.1616,-3.1334,-3.0921,-3.0696,-3.0469,-3.0253,-2.9922,-2.9592,-2.954,-2.9336,-2.9142,-2.9142,-2.9154,-2.9228,-2.9241,-2.9218,-2.9336,-2.9618,-2.9504,-2.9139,-2.8499,-2.8113,-2.8108,-2.8074,-2.7603,-2.7262,-2.6904,-2.6166,-2.5461,-2.4649,-2.3639,-2.2615,-2.1523,-2.0336,-1.9042,-1.7822,-1.6682,-1.5329,-1.3817,-1.2226,-1.0449,-0.8653,-0.7076,-0.2615,0.5322,1.3066,2.1356,3.0082,3.7423,4.339,4.4265,4.4364,4.4526,4.4604,4.4715,4.4676,4.4413,4.4239,4.4083,4.3937,4.3946,4.3419,4.2864,4.2451,4.1979,4.1338,4.1039,4.1128,4.1109,4.1058,4.1039,4.1013,4.105,4.1106,-3.5154,-3.5318,-3.5413,-3.548,-3.579,-3.6508,-3.69,-3.6978,-3.6978,-3.6978,-3.6978,-3.6978,-3.6822,-3.6665,-3.6401,-3.6336,-3.6232,-3.5737,-3.5642,-3.5629,-3.5399,-3.5249,-3.5249,-3.5154,-3.5249,-3.5168,-3.5154,-3.5236,-3.5154,-3.5034,-3.4835,-3.4539,-3.4116,-3.3585,-3.3193,-3.2823,-3.2595,-3.2341,-3.2155,-3.1863,-3.1569,-3.1198,-3.0911,-3.0533,-3.0305,-3.0075,-2.9883,-2.9743,-2.9743,-2.982,-2.9884,-3.0063,-3.0165,-3.0343,-3.0343,-3.0241,-3.0025,-2.9948,-2.9807,-2.9561,-2.9307,-2.8744,-2.8746,-2.873,-2.839,-2.7941,-2.7587,-2.7221,-2.6655,-2.6278,-2.567,-2.4598,-2.3543,-2.2408,-2.1273,-2.0103,-1.8843,-1.7649,-1.6355,-1.4918,-1.3284,-1.1443,-0.9685,-0.807,-0.6571,-0.178,0.6238,1.4048,2.3583,3.6135,4.1662,4.5544,4.5668,4.5894,4.5889,4.554,4.5482,4.5228,4.5462,4.5371,4.5189,4.4832,4.4403,4.3791,4.3,4.2432,4.2108,4.1683,4.1304,4.1285,4.1316,4.1091,4.1072,4.1076,4.1105,-3.4217,-3.4494,-3.4494,-3.4564,-3.4812,-3.5209,-3.5602,-3.6031,-3.6031,-3.6111,-3.6031,-3.6111,-3.6031,-3.5804,-3.571,-3.5629,-3.548,-3.5331,-3.5236,-3.5154,-3.5072,-3.5072,-3.5072,-3.5072,-3.5072,-3.5072,-3.5072,-3.5072,-3.5072,-3.5072,-3.4792,-3.4313,-3.4232,-3.3777,-3.3306,-3.2715,-3.2388,-3.2025,-3.1823,-3.1421,-3.1123,-3.0748,-3.0457,-3.0075,-2.9831,-2.9599,-2.9443,-2.9378,-2.9456,-2.9456,-2.9378,-2.9456,-2.9443,-2.9521,-2.9509,-2.9639,-2.9549,-2.9561,-2.9509,-2.9197,-2.8888,-2.8633,-2.839,-2.8351,-2.8146,-2.7904,-2.7534,-2.7196,-2.6693,-2.6124,-2.5464,-2.4605,-2.3744,-2.2775,-2.1624,-2.0529,-1.9338,-1.8141,-1.6835,-1.5045,-1.3414,-1.2058,-1.0203,-0.9288,-0.7731,-0.5221,-0.0523,0.72,1.749,3.0187,3.8632,4.2536,4.6186,4.6191,4.619,4.5913,4.6044,4.6114,4.6175,4.6153,4.5877,4.5526,4.5291,4.4692,4.3781,4.3374,4.3183,4.2675,4.2031,4.1757,4.1699,4.1355,4.1121,4.1147,4.1133,-3.381,-3.3894,-3.3894,-3.3979,-3.4147,-3.4217,-3.4551,-3.4964,-3.5304,-3.548,-3.548,-3.548,-3.5399,-3.5318,-3.5249,-3.5168,-3.5154,-3.4908,-3.4825,-3.5003,-3.4921,-3.4825,-3.4812,-3.4812,-3.4825,-3.4825,-3.4825,-3.4743,-3.4825,-3.4895,-3.4751,-3.4565,-3.4391,-3.402,-3.3582,-3.3014,-3.2488,-3.1961,-3.1465,-3.0989,-3.0622,-3.033,-2.9934,-2.9611,-2.9353,-2.9197,-2.9131,-2.9064,-2.9064,-2.9143,-2.9143,-2.9143,-2.9143,-2.9143,-2.9131,-2.9263,-2.9275,-2.9263,-2.9106,-2.8882,-2.856,-2.8183,-2.782,-2.7592,-2.7487,-2.7323,-2.7079,-2.6693,-2.6196,-2.5695,-2.5031,-2.4358,-2.3667,-2.2891,-2.1802,-2.0808,-1.9613,-1.8419,-1.6828,-1.4949,-1.3516,-1.2068,-1.0993,-1.0105,-0.928,-0.7731,-0.4957,0.0421,1.1703,2.508,3.2842,3.7736,4.2759,4.6147,4.616,4.6147,4.6153,4.6158,4.6161,4.6163,4.6187,4.6033,4.5623,4.511,4.4516,4.4159,4.3824,4.3361,4.2826,4.258,4.2272,4.1919,4.158,4.1269,4.123,-3.3641,-3.3641,-3.3641,-3.3628,-3.3713,-3.3713,-3.3725,-3.3797,-3.466,-3.5003,-3.499,-3.5003,-3.4908,-3.4812,-3.466,-3.4743,-3.466,-3.4564,-3.4577,-3.4756,-3.4577,-3.4481,-3.4481,-3.4397,-3.4577,-3.4481,-3.4397,-3.4481,-3.4494,-3.4481,-3.4564,-3.4673,-3.4511,-3.4114,-3.3652,-3.3053,-3.2504,-3.1851,-3.1214,-3.0727,-3.011,-2.9802,-2.9506,-2.9143,-2.8973,-2.8895,-2.8973,-2.8973,-2.8986,-2.8986,-2.8986,-2.8907,-2.8907,-2.8986,-2.8973,-2.8973,-2.8961,-2.8882,-2.8712,-2.8407,-2.8072,-2.7716,-2.7348,-2.6888,-2.6707,-2.6745,-2.6573,-2.6113,-2.5611,-2.502,-2.4433,-2.3744,-2.3057,-2.2353,-2.1535,-2.0628,-1.9621,-1.8141,-1.6271,-1.4669,-1.3426,-1.217,-1.1389,-1.0502,-1.0109,-0.9571,-0.7987,-0.3897,0.4714,1.8414,2.7548,3.3454,4.0912,4.5791,4.6057,4.6064,4.6088,4.6107,4.6091,4.6092,4.6084,4.5997,4.5884,4.546,4.5052,4.4683,4.4318,4.3941,4.3681,4.3479,4.3116,4.259,4.2161,4.1823,4.1364,-3.324,-3.324,-3.324,-3.3313,-3.3484,-3.3484,-3.3556,-3.3713,-3.3882,-3.4063,-3.4063,-3.4063,-3.4063,-3.4134,-3.4063,-3.4134,-3.405,-3.423,-3.4243,-3.4327,-3.4314,-3.4314,-3.4397,-3.4314,-3.4314,-3.4397,-3.4397,-3.4217,-3.4147,-3.4063,-3.3979,-3.3979,-3.3797,-3.3572,-3.3431,-3.284,-3.2164,-3.163,-3.1121,-3.0611,-3.0096,-2.9548,-2.9221,-2.8727,-2.8503,-2.8366,-2.8354,-2.8319,-2.8226,-2.8203,-2.8203,-2.8203,-2.8203,-2.8351,-2.8498,-2.8578,-2.8486,-2.8407,-2.8167,-2.7822,-2.7418,-2.7036,-2.6591,-2.6129,-2.5964,-2.6034,-2.5895,-2.5369,-2.4935,-2.4337,-2.3831,-2.3135,-2.2432,-2.1811,-2.1177,-2.0266,-1.9446,-1.7584,-1.571,-1.4478,-1.3335,-1.2462,-1.1683,-1.1096,-1.0703,-1.0306,-0.9908,-0.6941,-0.1294,0.9582,2.2714,3.0304,4.061,4.5228,4.5658,4.5894,4.5891,4.5894,4.5869,4.592,4.5959,4.5872,4.5803,4.5851,4.5628,4.523,4.4939,4.4811,4.4559,4.4345,4.386,4.3287,4.3112,4.2848,4.2052,-3.3081,-3.3081,-3.3081,-3.3154,-3.3227,-3.324,-3.3326,-3.3398,-3.3398,-3.3471,-3.3484,-3.3628,-3.3713,-3.3713,-3.3713,-3.3713,-3.3713,-3.3797,-3.3894,-3.3979,-3.4063,-3.4063,-3.4063,-3.4134,-3.405,-3.405,-3.4063,-3.3979,-3.3894,-3.3725,-3.3556,-3.3471,-3.3215,-3.2945,-3.2821,-3.229,-3.1798,-3.1465,-3.0941,-3.0543,-3.0096,-2.9559,-2.9142,-2.8669,-2.8527,-2.828,-2.8152,-2.8117,-2.8069,-2.7963,-2.7962,-2.7962,-2.7962,-2.803,-2.8111,-2.8111,-2.8018,-2.7857,-2.7603,-2.7244,-2.6767,-2.6393,-2.5931,-2.554,-2.4909,-2.4997,-2.4882,-2.4337,-2.4059,-2.3551,-2.295,-2.2344,-2.1891,-2.1266,-2.0447,-1.9621,-1.8326,-1.6741,-1.5235,-1.3992,-1.3039,-1.237,-1.1683,-1.1292,-1.0904,-1.0801,-1.0507,-1.0413,-0.491,0.4198,1.6347,2.7331,3.7673,4.4132,4.5465,4.5634,4.5603,4.563,4.5617,4.5621,4.5602,4.5684,4.5711,4.5686,4.5719,4.5712,4.5461,4.5234,4.5273,4.5118,4.455,4.3955,4.385,4.3726,4.2973,-3.2982,-3.3068,-3.3081,-3.3081,-3.3081,-3.3081,-3.3167,-3.3167,-3.3081,-3.3167,-3.3167,-3.3386,-3.3556,-3.3641,-3.3628,-3.3641,-3.3641,-3.3628,-3.3628,-3.3725,-3.3725,-3.3797,-3.3797,-3.3713,-3.3797,-3.3713,-3.3713,-3.3641,-3.3569,-3.33,-3.3031,-3.3043,-3.2698,-3.2176,-3.2077,-3.1725,-3.1235,-3.1033,-3.0601,-3.0341,-2.9857,-2.9416,-2.9137,-2.897,-2.8849,-2.8641,-2.8364,-2.8324,-2.8209,-2.8034,-2.7894,-2.7836,-2.7755,-2.7731,-2.7708,-2.7696,-2.7441,-2.7267,-2.7021,-2.6599,-2.6108,-2.5742,-2.5316,-2.4828,-2.4283,-2.3904,-2.3794,-2.3406,-2.3038,-2.2668,-2.2069,-2.1445,-2.1087,-2.0529,-1.9613,-1.8603,-1.721,-1.5805,-1.4663,-1.3511,-1.2743,-1.2078,-1.1688,-1.1296,-1.1096,-1.0998,-1.1096,-1.11,-0.767,0.4135,1.6119,2.5637,3.4974,4.0198,4.4454,4.5207,4.5167,4.5227,4.5189,4.5227,4.5246,4.5285,4.5323,4.5398,4.5453,4.5488,4.5558,4.5379,4.5494,4.5514,4.516,4.4592,4.4534,4.4322,4.3815,-3.2649,-3.281,-3.2797,-3.2909,-3.3081,-3.3081,-3.3081,-3.3081,-3.3081,-3.3081,-3.3081,-3.2884,-3.297,-3.324,-3.324,-3.324,-3.3227,-3.33,-3.3386,-3.3471,-3.3471,-3.3628,-3.3628,-3.3458,-3.3628,-3.3543,-3.33,-3.3227,-3.2957,-3.2513,-3.2251,-3.2251,-3.156,-3.1205,-3.1104,-3.0758,-3.0408,-3.0227,-3.0148,-2.9852,-2.9636,-2.9194,-2.8828,-2.8559,-2.829,-2.8158,-2.8091,-2.8079,-2.8034,-2.7951,-2.7816,-2.7729,-2.7676,-2.7492,-2.7426,-2.7241,-2.6982,-2.655,-2.6302,-2.5768,-2.5368,-2.5103,-2.4607,-2.4161,-2.3622,-2.3154,-2.2842,-2.2241,-2.1956,-2.1731,-2.1203,-2.0365,-1.982,-1.933,-1.8588,-1.7289,-1.5988,-1.4949,-1.3998,-1.3039,-1.2165,-1.1585,-1.1194,-1.0801,-1.0502,-1.0502,-1.0502,-1.0471,-0.9368,0.2843,1.6141,2.3916,3.2326,3.9254,4.4625,4.4632,4.4632,4.4694,4.4713,4.4656,4.4656,4.4806,4.4853,4.4886,4.4995,4.5061,4.5144,4.5226,4.5285,4.5246,4.5361,4.5207,4.5111,4.4917,4.4379]},{"header":{"parameterUnit":"m.s-1","parameterCategory":1,"la1":31.0,"la2":29.5877,"lo1":-88.7671,"lo2":-86.6584,"dy":0.0162,"dx":0.0185,"nx":115,"ny":88,"refTime":"2024-04-01T06:00:00:Z","depth":0,"parameterNumber":3,"parameterNumberName":"V-component_of_WINDS"},"data":[0.0,0.0,0.0,0.0,0.0,0.0,0.0,0.0,0.0,0.0,0.0,0.0,0.0,0.0,0.0,0.0,0.0,0.0,0.0,0.0,0.0,0.0,0.0,0.0,0.0,0.0,0.0,0.0,0.0,0.0,0.0,0.0,0.0,0.0,0.0,0.0,0.0,0.0,0.0,0.0,0.0,0.0,0.0,0.0,0.0,0.0,0.0,0.0,0.0,0.0,0.0,0.0,0.0,0.0,0.0,0.0,0.0,0.0,0.0,0.0,0.0,0.0,0.0,0.0,0.0,0.0,0.0,0.0,0.0,0.0,0.0,0.0,0.0,0.0,0.0,0.0,0.0,0.0,0.0,0.0,0.0,0.0,0.0,0.0,0.0,0.0,0.0,0.0,0.0,0.0,0.0,0.0,0.0,0.0,0.0,0.0,0.0,0.0,0.0,0.0,0.0,0.0,0.0,0.0,0.0,0.0,0.0,0.0,0.0,0.0,0.0,0.0,0.0,0.0,0.0,0.0,0.0,0.0,0.0,0.0,0.0,0.0,0.0,0.0,0.0,0.0,0.0,0.0,0.0,0.0,0.0,0.0,0.0,0.0,0.0,0.0,0.0,0.0,0.0,0.0,0.0,0.0,0.0,0.0,0.0,0.0,0.0,0.0,0.0,0.0,0.0,0.0,0.0,0.0,0.0,0.0,0.0,0.0,0.0,0.0,0.0,0.0,0.0,0.0,0.0,0.0,0.0,0.0,0.0,0.0,0.0,0.0,0.0,0.0,0.0,0.0,0.0,0.0,0.0,0.0,0.0,0.0,0.0,0.0,0.0,0.0,0.0,0.0,0.0,0.0,0.0,0.0,0.0,0.0,0.0,0.0,0.0,0.0,0.0,0.0,0.0,0.0,0.0,0.0,0.0,0.0,0.0,0.0,0.0,0.0,0.0,0.0,0.0,0.0,0.0,0.0,0.0,0.0,0.0,0.0,0.0,0.0,0.0,0.0,0.0,0.0,0.0,0.0,0.0,0.0,0.0,0.0,0.0,0.0,0.0,0.0,0.0,0.0,0.0,0.0,0.0,0.0,0.0,0.0,0.0,0.0,0.0,0.0,0.0,0.0,0.0,0.0,0.0,0.0,0.0,0.0,0.0,0.0,0.0,0.0,0.0,0.0,0.0,0.0,0.0,0.0,0.0,0.0,0.0,0.0,0.0,0.0,0.0,0.0,0.0,0.0,0.0,0.0,0.0,0.0,0.0,0.0,0.0,0.0,0.0,0.0,0.0,0.0,0.0,0.0,0.0,0.0,0.0,0.0,0.0,0.0,0.0,0.0,0.0,0.0,0.0,0.0,0.0,0.0,0.0,0.0,0.0,0.0,0.0,0.0,0.0,0.0,0.0,0.0,0.0,0.0,0.0,0.0,0.0,0.0,0.0,0.0,0.0,0.0,0.0,0.0,0.0,0.0,0.0,0.0,0.0,0.0,0.0,0.0,0.0,0.0,0.0,0.0,0.0,0.0,0.0,0.0,0.0,0.0,0.0,0.0,0.0,0.0,0.0,0.0,0.0,0.0,0.0,0.0,0.0,0.0,0.0,0.0,0.0,0.0,0.0,0.0,0.0,0.0,0.0,0.0,0.0,0.0,0.0,0.0,0.0,0.0,0.0,0.0,0.0,0.0,0.0,0.0,0.0,0.0,0.0,0.0,0.0,0.0,0.0,0.0,0.0,0.0,0.0,0.0,0.0,0.0,0.0,0.0,0.0,0.0,0.0,0.0,0.0,0.0,0.0,0.0,0.0,0.0,0.0,0.0,0.0,0.0,0.0,0.0,0.0,0.0,0.0,0.0,0.0,0.0,0.0,0.0,0.0,0.0,0.0,0.0,0.0,0.0,0.0,0.0,0.0,0.0,0.0,0.0,0.0,0.0,0.0,0.0,0.0,0.0,0.0,0.0,0.0,0.0,0.0,0.0,0.0,0.0,0.0,0.0,0.0,0.0,0.0,0.0,0.0,0.0,0.0,0.0,0.0,0.0,0.0,0.0,0.0,0.0,0.0,0.0,0.0,0.0,0.0,0.0,0.0,0.0,0.0,0.0,0.0,0.0,0.0,0.0,0.0,0.0,0.0,0.0,0.0,0.0,0.0,0.0,0.0,0.0,0.0,0.0,0.0,0.0,0.0,0.0,0.0,0.0,0.0,0.0,0.0,0.0,0.0,0.0,0.0,0.0,0.0,0.0,0.0,0.0,0.0,0.0,0.0,0.0,0.0,0.0,0.0,0.0,0.0,0.0,0.0,0.0,0.0,0.0,0.0,0.0,0.0,0.0,0.0,0.0,0.0,0.0,0.0,0.0,0.0,0.0,0.0,0.0,0.0,0.0,0.0,0.0,0.0,0.0,0.0,0.0,0.0,0.0,0.0,0.0,0.0,0.0,0.0,0.0,0.0,0.0,0.0,0.0,0.0,0.0,0.0,0.0,0.0,0.0,0.0,0.0,0.0,0.0,0.0,0.0,0.0,0.0,0.0,0.0,0.0,0.0,0.0,0.0,0.0,0.0,0.0,0.0,0.0,0.0,0.0,0.0,0.0,0.0,0.0,0.0,0.0,0.0,0.0,0.0,0.0,0.0,0.0,0.0,0.0,0.0,0.0,0.0,0.0,0.0,0.0,0.0,0.0,0.0,0.0,0.0,0.0,0.0,0.0,0.0,0.0,0.0,0.0,0.0,0.0,0.0,0.0,0.0,0.0,0.0,0.0,0.0,0.0,0.0,0.0,0.0,0.0,0.0,0.0,0.0,0.0,0.0,0.0,0.0,0.0,0.0,0.0,0.0,0.0,0.0,0.0,0.0,0.0,0.0,0.0,0.0,0.0,0.0,0.0,0.0,0.0,0.0,0.0,0.0,0.0,0.0,0.0,0.0,0.0,0.0,0.0,0.0,0.0,0.0,0.0,0.0,0.0,0.0,0.0,0.0,0.0,0.0,0.0,0.0,0.0,0.0,0.0,0.0,0.0,0.0,0.0,0.0,0.0,0.0,0.0,0.0,0.0,0.0,0.0,0.0,0.0,0.0,0.0,0.0,0.0,0.0,0.0,0.0,0.0,0.0,0.0,0.0,0.0,0.0,0.0,0.0,0.0,0.0,0.0,0.0,0.0,0.0,0.0,0.0,0.0,0.0,0.0,0.0,0.0,0.0,0.0,0.0,0.0,0.0,0.0,0.0,0.0,0.0,0.0,0.0,0.0,0.0,0.0,0.0,0.0,0.0,0.0,0.0,0.0,0.0,0.0,0.0,0.0,0.0,0.0,0.0,0.0,0.0,0.0,0.0,0.0,0.0,0.0,0.0,0.0,0.0,0.0,0.0,0.0,0.0,0.0,0.0,0.0,0.0,0.0,0.0,0.0,0.0,0.0,0.0,0.0,0.0,0.0,0.0,0.0,0.0,0.0,0.0,0.0,0.0,0.0,0.0,0.0,0.0,0.0,0.0,0.0,0.0,0.0,0.0,0.0,0.0,0.0,0.0,0.0,0.0,0.0,0.0,0.0,0.0,0.0,0.0,0.0,0.0,0.0,0.0,0.0,0.0,0.0,0.0,0.0,0.0,0.0,0.0,0.0,0.0,0.0,0.0,0.0,0.0,0.0,0.0,0.0,0.0,0.0,0.0,0.0,0.0,0.0,0.0,0.0,0.0,0.0,0.0,0.0,0.0,0.0,0.0,0.0,0.0,0.0,0.0,0.0,0.0,0.0,0.0,0.0,0.0,0.0,0.0,0.0,0.0,0.0,0.0,0.0,0.0,0.0,0.0,0.0,0.0,0.0,0.0,0.0,0.0,0.0,0.0,0.0,0.0,0.0,0.0,0.0,0.0,0.0,0.0,0.0,0.0,0.0,0.0,0.0,0.0,0.0,0.0,0.0,0.0,0.0,0.0,0.0,0.0,0.0,0.0,0.0,0.0,0.0,0.0,0.0,0.0,0.0,0.0,0.0,0.0,0.0,0.0,0.0,0.0,0.0,0.0,0.0,0.0,0.0,0.0,0.0,0.0,0.0,0.0,0.0,0.0,0.0,0.0,0.0,0.0,0.0,0.0,0.0,0.0,0.0,0.0,0.0,0.0,0.0,0.0,0.0,0.0,0.0,0.0,0.0,0.0,0.0,0.0,0.0,0.0,0.0,0.0,0.0,0.0,0.0,0.0,0.0,0.0,0.0,0.0,0.0,0.0,0.0,0.0,0.0,0.0,0.0,0.0,0.0,0.0,0.0,0.0,0.0,0.0,0.0,0.0,0.0,0.0,1.6892,0.0,0.0,0.0,0.0,0.0,0.0,0.0,0.0,0.0,0.0,0.0,0.0,0.0,0.0,0.0,0.0,0.0,0.0,0.0,0.0,0.0,0.0,0.0,0.0,0.0,0.0,0.0,0.0,0.0,0.0,0.0,0.0,0.0,0.0,0.0,0.0,0.0,0.0,0.0,0.0,0.0,0.0,0.0,0.0,0.0,0.0,0.0,0.0,0.0,0.0,0.0,0.0,0.0,0.0,0.0,0.0,0.0,0.0,0.0,0.0,0.0,0.0,0.0,0.0,0.0,0.0,0.0,0.0,0.0,0.0,0.0,0.0,0.0,0.0,0.0,0.0,0.0,0.0,0.0,0.0,0.0,0.0,0.0,0.0,0.0,0.0,0.0,0.0,0.0,0.0,0.0,0.0,0.0,0.0,0.0,0.0,0.0,0.0,0.0,0.0,0.0,0.0,0.0,0.0,0.0,0.0,0.0,0.0,0.0,0.0,1.3585,1.4259,1.5198,1.5922,1.634,0.0,0.0,0.0,0.0,0.0,0.0,0.0,0.0,0.0,0.0,0.0,0.0,0.0,0.0,0.0,0.0,0.0,0.0,0.0,0.0,0.0,0.0,0.0,0.0,0.0,0.0,0.0,0.0,0.0,0.0,0.0,0.0,0.0,0.0,0.0,0.0,0.0,0.0,0.0,0.0,0.0,0.0,0.0,0.0,0.0,0.0,0.0,0.0,0.0,0.0,0.0,0.0,0.0,0.0,0.0,0.0,0.0,0.0,0.0,0.0,0.0,0.0,0.0,0.0,0.0,0.0,0.0,0.0,0.0,0.0,0.0,0.0,0.0,0.0,0.0,0.0,0.0,0.0,0.0,0.0,0.0,0.0,0.0,0.0,0.0,0.0,0.0,0.0,0.0,0.0,0.0,0.0,0.0,0.0,0.0,0.0,0.0,0.0,0.0,0.0,0.0,0.0,0.0,0.0,0.0,0.0,0.0,0.0,0.0,0.0,0.0,0.0,1.3843,1.49,1.5811,0.0,0.0,0.0,0.0,0.0,0.0,0.0,0.0,0.0,0.0,0.0,0.0,0.0,0.0,0.0,0.0,0.0,0.0,0.0,0.0,0.0,0.0,0.0,0.0,0.0,0.0,0.0,0.0,0.0,0.0,0.0,0.0,0.0,0.0,0.0,0.0,0.0,0.0,0.0,0.0,0.0,0.0,0.0,0.0,0.0,0.0,0.0,0.0,0.0,0.0,0.0,0.0,0.0,0.0,0.0,0.0,0.0,0.0,0.0,0.0,0.0,0.0,0.0,0.0,0.0,0.0,0.0,0.0,0.0,0.0,0.0,0.0,0.0,0.0,0.0,0.0,0.0,0.0,0.0,0.0,0.0,0.0,0.0,0.0,0.0,0.0,0.0,0.0,0.0,0.0,0.0,0.0,0.0,0.0,0.0,0.0,0.0,0.0,0.0,0.0,0.0,0.0,0.0,0.0,0.0,0.0,0.0,0.0,0.0,0.0,0.9344,1.0535,1.1907,0.0,1.5241,0.0,0.0,0.0,0.0,0.0,0.0,0.0,0.0,0.0,0.0,0.0,0.0,0.0,0.0,0.0,0.0,0.0,0.0,0.0,0.0,0.0,0.0,0.0,0.0,0.0,0.0,0.0,0.0,0.0,0.0,0.0,0.0,0.0,0.0,0.0,0.0,0.0,0.0,0.0,0.0,0.0,0.0,0.0,0.0,0.0,0.0,0.0,0.0,0.0,0.0,0.0,0.0,0.0,0.0,0.0,0.0,0.0,0.0,0.0,0.0,0.0,0.0,0.0,0.0,0.0,0.0,0.0,0.0,0.0,0.0,0.0,0.0,0.0,0.0,0.0,0.0,0.0,0.0,0.0,0.0,0.0,0.0,0.0,0.0,0.0,0.0,0.0,0.0,0.0,0.0,0.0,0.0,0.0,0.0,0.0,0.0,0.0,0.0,0.0,0.0,0.0,0.0,0.0,0.0,0.0,0.0,0.0,0.0,0.0,0.0,1.0211,1.0997,1.4004,1.5597,0.0,0.0,0.0,0.0,0.0,0.0,0.0,0.0,0.0,0.0,0.0,0.0,0.0,0.0,0.0,0.0,0.0,0.0,0.0,0.0,0.0,0.0,0.0,0.0,0.0,0.0,0.0,0.0,0.0,0.0,0.0,0.0,0.0,0.0,0.0,0.0,0.0,0.0,0.0,0.0,0.0,0.0,0.0,0.0,0.0,0.0,0.0,0.0,0.0,0.0,0.0,0.0,0.0,0.0,0.0,0.0,0.0,0.0,0.0,0.0,0.0,0.0,0.0,0.0,0.0,0.0,0.0,0.0,0.0,0.0,0.0,0.0,0.0,0.0,0.0,0.0,0.0,0.0,0.0,0.0,0.0,0.0,0.0,0.0,0.0,0.0,0.0,0.0,0.0,0.0,0.0,0.0,0.0,0.0,0.0,0.0,0.0,0.0,0.0,0.0,0.0,0.0,0.0,0.0,0.0,0.0,0.0,0.0,0.0,0.0,0.8385,1.0692,1.2479,1.5716,1.7047,1.6143,0.0,0.0,0.0,0.0,0.0,0.0,0.0,0.0,0.0,0.0,0.0,0.0,0.0,0.0,0.0,0.0,0.0,0.0,0.0,0.0,0.0,0.0,0.0,0.0,0.0,0.0,0.0,0.0,0.0,0.0,0.0,0.0,0.0,0.0,0.0,0.0,0.0,0.0,0.0,0.0,0.0,0.0,0.0,0.0,0.0,0.0,0.0,0.0,0.0,0.0,0.0,0.0,0.0,0.0,0.0,0.0,0.0,0.0,0.0,0.0,0.0,0.0,0.0,0.0,0.0,0.0,0.0,0.0,0.0,0.0,0.0,0.0,0.0,0.0,0.0,0.0,0.0,0.0,0.0,0.0,0.0,0.0,0.0,0.0,0.0,0.0,0.0,0.0,0.0,0.0,0.0,0.0,0.0,0.0,0.0,0.0,0.0,0.0,0.0,0.0,0.0,0.0,0.0,0.0,0.0,0.0,0.0,0.0,0.7189,0.7637,0.9966,1.4652,1.5863,1.6782,0.0,0.0,0.0,0.0,0.0,0.0,0.0,0.0,0.0,0.0,0.0,0.0,0.0,0.0,0.0,0.0,0.0,0.0,0.0,0.0,0.0,0.0,0.0,0.0,0.0,0.0,0.0,0.0,0.0,0.0,0.0,0.0,0.0,0.0,0.0,0.0,0.0,0.0,0.0,0.0,0.0,0.0,0.0,0.0,0.0,0.0,0.0,0.0,0.0,0.0,0.0,0.0,0.0,0.0,0.0,0.0,0.0,0.0,0.0,0.0,0.0,0.0,0.0,0.0,0.0,0.0,0.0,0.0,0.0,0.0,0.0,0.0,0.0,0.0,0.0,0.0,0.0,0.0,0.0,0.0,0.0,0.0,0.0,0.0,0.0,0.0,0.0,0.0,0.0,0.0,0.0,0.0,0.0,0.0,0.0,0.0,0.0,0.0,0.0,0.0,0.0,0.0,0.0,0.0,0.0,0.0,0.0,0.0,0.0,0.6901,1.0808,1.4742,1.8369,1.8866,1.8665,0.0,0.0,0.0,0.0,0.0,0.0,0.0,0.0,0.0,0.0,0.0,0.0,0.0,0.0,0.0,0.0,0.0,0.0,0.0,0.0,0.0,0.0,0.0,0.0,0.0,0.0,0.0,0.0,0.0,0.0,0.0,0.0,0.0,0.0,0.0,0.0,0.0,0.0,0.0,0.0,0.0,0.0,0.0,0.0,0.0,0.0,0.0,0.0,0.0,0.0,0.0,0.0,0.0,0.0,0.0,0.0,0.0,0.0,0.0,0.0,0.0,0.0,0.0,0.0,0.0,0.0,0.0,0.0,0.0,0.0,0.0,0.0,0.0,0.0,0.0,0.0,0.0,0.0,0.0,0.0,0.0,0.0,0.0,0.0,0.0,0.0,0.0,0.0,0.0,0.0,0.0,0.0,0.0,0.0,0.0,0.0,0.0,0.0,0.0,0.0,0.0,0.0,0.0,0.0,0.0,0.0,0.0,0.0,0.0,0.8974,0.0,1.8499,2.0468,2.0565,2.0013,0.0,0.0,0.0,0.0,0.0,0.0,0.0,0.0,0.0,0.0,0.0,0.0,0.0,0.0,0.0,0.0,0.0,0.0,0.0,0.0,0.0,0.0,0.0,0.0,0.0,0.0,0.0,0.0,0.0,0.0,0.0,0.0,0.0,0.0,0.0,0.0,0.0,0.0,0.0,0.0,0.0,0.0,0.0,0.0,0.0,0.0,0.0,0.0,0.0,0.0,0.0,0.0,0.0,0.0,0.0,0.0,0.0,0.0,0.0,0.0,0.0,0.0,0.0,0.0,0.0,0.0,0.0,0.0,0.0,0.0,0.0,0.0,0.0,0.0,0.0,0.0,0.0,0.0,0.0,0.0,0.0,0.0,0.0,0.0,0.0,0.0,0.0,0.0,0.0,0.0,0.0,0.0,0.0,0.0,0.0,0.0,0.0,0.0,0.0,0.0,0.0,0.0,0.0,0.0,0.0,0.0,0.0,0.0,0.5689,1.3952,1.8332,2.0466,2.0599,2.0596,2.0549,0.0,0.0,0.0,0.0,0.0,0.0,0.0,0.0,0.0,0.0,0.0,0.0,0.0,0.0,0.0,0.0,0.0,0.0,0.0,0.0,0.0,0.0,0.0,0.0,0.0,0.0,0.0,0.0,0.0,0.0,0.0,0.0,0.0,0.0,0.0,0.0,0.0,0.0,0.0,0.0,0.0,0.0,0.0,0.0,0.0,0.0,0.0,0.0,0.0,0.0,0.0,0.0,0.0,0.0,0.0,0.0,0.0,0.0,0.0,0.0,0.0,0.0,0.0,0.0,0.0,0.0,0.0,0.0,0.0,0.0,0.0,0.0,0.0,0.0,0.0,0.0,0.0,0.0,0.0,0.0,0.0,0.0,0.0,0.0,0.0,0.0,0.0,0.0,0.0,0.0,0.0,0.0,0.0,0.0,0.0,0.0,0.0,0.0,0.0,0.0,0.0,0.0,0.0,0.0,0.0,0.0,0.0,0.0,0.0,1.8532,1.9909,2.0601,2.0596,2.0591,2.0605,0.0,0.0,0.0,0.0,0.0,0.0,0.0,0.0,0.0,0.0,0.0,0.0,0.0,0.0,0.0,0.0,0.0,0.0,0.0,0.0,0.0,0.0,0.0,0.0,0.0,0.0,0.0,0.0,0.0,0.0,0.0,0.0,0.0,0.0,0.0,0.0,0.0,0.0,0.0,0.0,0.0,0.0,0.0,0.0,0.0,0.0,0.0,0.0,0.0,0.0,0.0,0.0,0.0,0.0,0.0,0.0,0.0,0.0,0.0,0.0,0.0,0.0,0.0,0.0,0.0,0.0,0.0,0.0,0.0,0.0,0.0,0.0,0.0,0.0,0.0,0.0,0.0,0.0,0.0,0.0,0.0,0.0,0.0,0.0,0.0,0.0,0.0,0.0,0.0,0.0,0.0,0.0,0.0,0.0,0.0,0.0,0.0,0.0,0.0,0.0,0.0,0.0,0.0,0.0,0.0,0.0,0.0,0.0,0.0,2.1052,2.1061,2.1042,2.1056,2.1052,2.0894,2.0562,0.0,0.0,0.0,0.0,0.0,0.0,0.0,0.0,0.0,0.0,0.0,0.0,0.0,0.0,0.0,0.0,0.0,0.0,0.0,0.0,0.0,0.0,0.0,0.0,0.0,0.0,0.0,0.0,0.0,0.0,0.0,0.0,0.0,0.0,0.0,0.0,0.0,0.0,0.0,0.0,0.0,0.0,0.0,0.0,0.0,0.0,0.0,0.0,0.0,0.0,0.0,0.0,0.0,0.0,0.0,0.0,0.0,0.0,0.0,0.0,0.0,0.0,0.0,0.0,0.0,0.0,0.0,0.0,0.0,0.0,0.0,0.0,0.0,0.0,0.0,0.0,0.0,0.0,0.0,0.0,0.0,0.0,0.0,0.0,0.0,0.0,0.0,0.0,0.0,0.0,0.0,0.0,0.0,0.0,0.0,0.0,0.0,0.0,0.0,0.0,0.0,0.0,0.0,0.0,0.0,0.0,0.0,0.0,2.1945,2.194,2.1923,2.1879,2.182,2.1413,0.0,0.0,0.0,0.0,0.0,0.0,0.0,0.0,0.0,0.0,0.0,0.0,0.0,0.0,0.0,0.0,0.0,0.0,0.0,0.0,0.0,0.0,0.0,0.0,0.0,0.0,0.0,0.0,0.0,0.0,0.0,0.0,0.0,0.0,0.0,0.0,0.0,0.0,0.0,0.0,0.0,0.0,0.0,0.0,0.0,0.0,0.0,0.0,0.0,0.0,0.0,0.0,0.0,0.0,0.0,0.0,0.0,0.0,0.0,0.0,0.0,0.0,0.0,0.0,0.0,0.0,0.0,0.0,0.0,0.0,0.0,0.0,0.0,0.0,0.0,0.0,0.0,0.0,0.0,0.0,0.0,0.0,0.0,0.0,0.0,0.0,0.0,0.0,0.0,0.0,0.0,0.0,0.0,0.0,0.0,0.0,0.0,0.0,0.0,0.0,0.0,0.0,0.0,0.0,0.0,0.0,0.0,0.0,0.0,2.3653,2.3661,2.3369,2.2776,2.2143,2.1678,0.0,0.0,0.0,0.0,0.0,0.0,0.0,0.0,0.0,0.0,0.0,0.0,0.0,0.0,0.0,0.0,0.0,0.0,0.0,0.0,0.0,0.0,0.0,0.0,0.0,0.0,0.0,0.0,0.0,0.0,0.0,0.0,0.0,0.0,0.0,0.0,0.0,0.0,0.0,0.0,0.0,0.0,0.0,0.0,0.0,0.0,0.0,0.0,0.0,0.0,0.0,0.0,0.0,0.0,0.0,0.0,0.0,0.0,0.0,0.0,0.0,0.0,0.0,0.0,0.0,0.0,0.0,0.0,0.0,0.0,0.0,0.0,0.0,0.0,0.0,0.0,0.0,0.0,0.0,0.0,0.0,0.0,0.0,0.0,0.0,0.0,0.0,0.0,0.0,0.0,0.0,0.0,0.0,0.0,0.0,0.0,0.0,0.0,0.0,0.0,0.0,0.0,0.0,0.0,0.0,0.0,0.0,0.0,2.2999,2.4335,2.4686,2.4642,2.4165,2.298,2.2172,0.0,0.0,0.0,0.0,0.0,0.0,0.0,0.0,0.0,0.0,0.0,0.0,0.0,0.0,0.0,0.0,0.0,0.0,0.0,0.0,0.0,0.0,0.0,0.0,0.0,0.0,0.0,0.0,0.0,0.0,0.0,0.0,0.0,0.0,0.0,0.0,0.0,0.0,0.0,0.0,0.0,0.0,0.0,0.0,0.0,0.0,0.0,0.0,0.0,0.0,0.0,0.0,0.0,0.0,0.0,0.0,0.0,0.0,0.0,0.0,0.0,0.0,0.0,0.0,0.0,0.0,0.0,0.0,0.0,0.0,0.0,0.0,0.0,0.0,0.0,0.0,0.0,0.0,0.0,0.0,0.0,0.0,0.0,0.0,0.0,0.0,0.0,0.0,0.0,0.0,0.0,0.0,0.0,0.0,0.0,0.0,0.0,0.0,0.0,0.0,0.0,0.0,0.0,0.0,0.0,0.0,0.0,0.0,2.3668,2.4569,2.5346,2.5729,2.5679,2.4102,2.282,0.0,0.0,0.0,0.0,0.0,0.0,0.0,0.0,0.0,0.0,0.0,0.0,0.0,0.0,0.0,0.0,0.0,0.0,0.0,0.0,0.0,0.0,0.0,0.0,0.0,0.0,0.0,0.0,0.0,0.0,0.0,0.0,0.0,0.0,0.0,0.0,0.0,0.0,0.0,0.0,0.0,0.0,0.0,0.0,0.0,0.0,0.0,0.0,0.0,0.0,0.0,0.0,0.0,0.0,0.0,0.0,0.0,0.0,0.0,0.0,0.0,0.0,0.0,0.0,0.0,0.0,0.0,0.0,0.0,0.0,0.0,0.0,0.0,0.0,0.0,0.0,0.0,0.0,0.0,0.0,0.0,0.0,0.0,0.0,0.0,0.0,0.0,0.0,0.0,0.0,0.0,0.0,0.0,0.0,0.0,0.0,0.0,0.0,0.0,0.0,0.0,0.0,0.0,0.0,0.0,0.0,0.0,0.0,2.4803,2.6304,2.6526,2.6637,2.6592,2.4948,2.366,0.0,0.0,0.0,0.0,0.0,0.0,0.0,0.0,0.0,0.0,0.0,0.0,0.0,0.0,0.0,0.0,0.0,0.0,0.0,0.0,0.0,0.0,0.0,0.0,0.0,0.0,0.0,0.0,0.0,0.0,0.0,0.0,0.0,0.0,0.0,0.0,0.0,0.0,0.0,0.0,0.0,0.0,0.0,0.0,0.0,0.0,0.0,0.0,-0.1257,0.0,0.0,0.0,0.0,0.0,0.0,0.0,0.0,0.0,0.0,0.0,0.0,0.0,0.0,0.0,0.0,0.0,0.0,0.0,0.0,0.0,0.0,0.0,0.0,0.0,0.0,0.0,0.0,0.0,0.0,0.0,0.0,0.0,0.0,0.0,0.0,0.0,0.0,0.0,0.0,0.0,0.0,0.0,0.0,0.0,0.0,0.0,0.0,0.0,0.0,0.0,0.0,0.0,0.0,0.0,0.0,0.0,0.0,0.0,2.5571,2.6862,2.7258,2.7291,2.6909,2.6018,2.4764,0.0,0.0,0.0,0.0,0.0,0.0,0.0,0.0,0.0,0.0,0.0,0.0,0.0,0.0,0.0,0.0,0.0,0.0,0.0,0.0,0.0,0.0,0.0,0.0,0.0,0.0,0.0,0.0,0.0,0.0,0.0,0.0,0.0,0.0,0.0,0.0,0.0,0.0,0.0,0.0,0.0,0.0,0.0,0.0,0.0,0.0,0.0,0.0,0.0,0.0,0.0,0.0,0.0,0.0,0.0,0.0,0.0,0.0,0.0,0.0,0.0,0.0,0.0,0.0,0.0,0.0,0.0,0.0,0.0,0.0,0.0,0.0,0.0,0.0,0.0,0.0,0.0,0.0,0.0,0.0,0.0,0.0,0.0,0.0,0.0,0.0,0.0,0.0,0.0,0.0,0.0,0.0,0.0,0.0,0.0,0.0,0.0,0.0,0.0,0.0,0.0,0.0,0.0,0.0,0.0,0.0,0.0,2.4871,2.6232,2.7083,2.7874,2.7913,2.7122,2.7087,2.5917,2.3387,0.0,0.0,0.0,0.0,0.0,0.0,0.0,0.0,0.0,0.0,0.0,0.0,0.0,0.0,0.0,0.0,0.0,0.0,0.0,0.0,0.0,0.0,0.0,0.0,0.0,0.0,0.0,0.0,0.0,0.0,0.0,0.0,0.0,0.0,0.0,0.0,0.0,0.0,0.0405,0.0045,0.0,0.0,0.0,0.0,0.0,0.0,0.0,0.0,-0.1614,0.0,0.0,0.0,0.0,0.0,0.0,0.0,0.0,0.0,0.0,0.0,0.0,0.0,0.0,0.0,0.0,0.0,0.0,0.0,0.0,0.0,0.0,0.0,0.0,0.0,0.0,0.0,0.0,0.0,0.0,0.0,0.0,0.0,0.0,0.0,0.0,0.0,0.0,0.0,0.0,0.0,0.0,0.0,0.0,0.0,0.0,0.0,0.0,0.0,0.0,0.0,0.0,0.0,0.0,0.0,0.0,2.3114,2.5479,2.7112,2.7957,2.8773,2.8812,2.8034,2.7984,2.6792,2.4331,0.0,0.0,0.0,0.0,0.0,0.0,0.0,0.0,0.0,0.0,0.0,0.0,0.0,0.0,0.0,0.0,0.0,0.0,0.0,0.0,0.0,0.0,0.0,0.0,0.0,0.0,0.0,0.0,0.0,0.0,0.0,0.0,0.0,0.0,0.0,0.0,0.0,0.0,0.0,-0.0584,-0.0899,0.0,0.0,0.0,0.0,0.0,0.0,0.0,0.0,-0.1839,0.0,0.0,0.0,0.0,0.0,0.0,0.0,0.0,0.0,0.0,0.0,0.0,0.0,0.0,0.0,0.0,0.0,0.0,0.0,0.0,0.0,0.0,0.0,0.0,0.0,0.0,0.0,0.0,0.0,0.0,0.0,0.0,0.0,0.0,0.0,0.0,0.0,0.0,0.0,0.0,0.0,0.0,0.0,0.0,0.0,0.0,0.0,0.0,0.0,0.0,0.0,0.0,0.0,0.0,0.0,2.3878,2.6295,2.7775,2.8221,2.9427,2.9466,2.826,2.8189,2.6996,0.0,0.0,0.0,0.0,0.0,0.0,0.0,0.0,0.0,0.0,0.0,0.0,0.0,0.0,0.0,0.0,0.0,0.0,0.0,0.0,0.0,0.0,0.0,0.0,0.0,0.0,0.0,0.0,0.0,0.0,0.0,0.0,0.0,0.0,0.0,0.0,0.0,0.0,0.0,0.0,-0.0927,-0.112,-0.1428,0.0,0.0,0.0,0.0,0.0,0.0,-0.1958,-0.1991,0.0,0.0,0.0,0.0,0.0,0.0,0.0,0.0,0.0,0.0,0.0,0.0,0.0,0.0,0.0,0.0,0.0,0.0,0.0,0.0,0.0,0.0,0.0,0.0,0.0,0.0,0.0,0.0,0.0,0.0,0.0,0.0,0.0,0.0,0.0,0.0,0.0,0.0,0.0,0.0,0.0,0.0,0.0,0.0,0.0,0.0,0.0,0.0,0.0,0.0,0.0,0.0,0.0,0.0,0.0,2.4709,2.6993,2.8281,2.8515,2.9936,2.9916,2.8262,2.8208,2.711,0.0,0.0,0.0,0.0,0.0,0.0,0.0,0.0,0.0,0.0,0.0,0.0,0.0,0.0,0.0,0.0,0.0,0.0,0.0,0.0,0.0,0.0,0.0,0.0,0.0,0.0,0.0,0.0,0.0,0.0,0.0,0.0,0.0,0.0,0.0,0.0,0.0,0.0,0.0,0.0,0.0,-0.1304,-0.1757,-0.1816,0.0,0.0,0.0,0.0,-0.217,-0.2168,0.0,0.0,0.0,0.0,0.0,0.0,0.0,0.0,0.0,0.0,0.0,0.0,0.0,0.0,0.0,0.0,0.0,0.0,0.0,0.0,0.0,0.0,0.0,0.0,0.0,0.0,0.0,0.0,0.0,0.0,0.0,0.0,0.0,0.0,0.0,0.0,0.0,0.0,0.0,0.0,0.0,0.0,0.0,0.0,0.0,0.0,0.0,0.0,0.0,0.0,0.0,0.0,0.0,0.0,0.0,0.0,2.5549,2.7284,2.8556,2.9336,3.0287,2.9975,2.8264,2.8255,2.7423,0.0,0.0,0.0,0.0,0.0,0.0,0.0,0.0,0.0,0.0,0.0,0.0,0.0,0.0,0.0,0.0,0.0,0.0,0.0,0.0,0.0,0.0,0.0,0.0,0.0,0.0,0.0,0.0,0.0,0.0,0.0,0.0,0.0,0.0,0.0,0.0,0.0,0.0,0.0,0.0,0.0,-0.169,-0.2155,-0.2216,-0.2267,0.0,0.0,-0.2317,-0.2419,-0.2317,0.0,0.0,0.0,0.0,0.0,0.0,0.0,0.0,0.0,0.0,0.0,0.0,0.0,0.0,0.0,0.0,0.0,0.0,0.0,0.0,0.0,0.0,0.0,0.0,0.0,0.0,0.0,0.0,0.0,0.0,0.0,0.0,0.0,0.0,0.0,0.0,0.0,0.0,0.0,0.0,0.0,0.0,0.0,0.0,0.0,0.0,0.0,0.0,0.0,0.0,0.0,0.0,0.0,0.0,0.0,2.4194,2.6374,2.7637,2.8664,2.9481,3.0339,3.0004,2.8304,2.8291,2.7474,0.0,0.0,0.0,0.0,0.0,0.0,0.0,0.0,0.0,0.0,0.0,0.0,0.0,0.0,0.0,0.0,0.0,0.0,0.0,0.0,0.0,0.0,0.0,0.0,0.0,0.0,0.0,0.0,0.0,0.0,0.0,0.0,0.0,0.0,0.0,0.0,0.0,0.0,0.0,0.0,0.0,0.0,-0.2452,-0.2778,0.0,0.0,0.0,-0.3154,-0.3152,0.0,0.0,0.0,0.0,0.0,0.0,0.0,0.0,0.0,0.0,0.0,0.0,0.0,0.0,0.0,0.0,0.0,0.0,0.0,0.0,0.0,0.0,0.0,0.0,0.0,0.0,0.0,0.0,0.0,0.0,0.0,0.0,0.0,0.0,0.0,0.0,0.0,0.0,0.0,0.0,0.0,0.0,0.0,0.0,0.0,0.0,0.0,0.0,0.0,0.0,0.0,0.0,0.0,0.0,0.0,0.0,0.0,2.7281,2.7983,2.8802,2.9816,3.0458,3.0007,2.8364,2.8288,0.0,0.0,0.0,0.0,0.0,0.0,0.0,0.0,0.0,0.0,0.0,0.0,0.0,0.0,0.0,0.0,0.0,0.0,0.0,0.0,0.0,0.0,0.0,0.0,0.0,0.0,0.0,-0.0386,0.0,0.0,0.0,0.0,0.0,0.0,0.0,0.0,0.0,0.0,0.0,0.0,0.0,0.0,-0.2376,-0.2876,-0.33,-0.3595,0.0,0.0,-0.3845,-0.3762,-0.3429,-0.3122,0.0,0.0,0.0,0.0,0.0,0.0,0.0,0.0,0.0,0.0,0.0,0.0,0.0,0.0,0.0,0.0,0.0,0.0,0.0,0.0,0.0,0.0,0.0,0.0,0.0,0.0,0.0,0.0,0.0,0.0,0.0,0.0,0.0,0.0,0.0,0.0,0.0,0.0,0.0,0.0,0.0,0.0,0.0,0.0,0.0,0.0,0.0,0.0,0.0,0.0,0.0,0.0,0.0,0.0,2.4763,2.8086,2.8281,2.9082,3.0644,3.0762,3.0,2.8358,2.83,2.7479,0.0,0.0,0.0,0.0,0.0,0.0,0.0,0.0,0.0,0.0,0.0,0.0,0.0,0.0,0.0,0.0,0.0,0.0,0.0,0.0,0.0,0.0,0.0,0.0,0.0,0.0,0.0,0.0,0.0,0.0,0.0,0.0,0.0,0.0,0.0,0.0,0.0,0.0,0.0,0.0,0.0,-0.2832,-0.3595,-0.3751,-0.3912,0.0,-0.4299,-0.418,-0.4172,-0.3838,-0.3523,-0.3392,0.0,0.0,0.0,0.0,0.0,0.0,0.0,0.0,0.0,0.0,0.0,0.0,0.0,0.0,0.0,0.0,0.0,0.0,0.0,0.0,0.0,0.0,0.0,0.0,0.0,0.0,0.0,0.0,0.0,0.0,0.0,0.0,0.0,0.0,0.0,0.0,0.0,0.0,0.0,0.0,0.0,0.0,0.0,0.0,0.0,0.0,0.0,0.0,0.0,0.0,0.0,0.0,0.0,2.4811,2.8214,2.8293,2.9114,3.0715,3.0793,3.0269,2.9139,2.8593,2.7734,0.0,0.0,0.0,0.0,0.0,0.0,0.0,0.0,0.0,0.0,0.0,0.0,0.0,0.0,0.0,0.0,0.0,0.0,0.0,0.0,0.0,0.0,0.0,0.0,0.0,0.0,0.0,0.0,-0.1248,-0.136,-0.1485,0.0,0.0,0.0,0.0,0.0,0.0,0.0,0.0,0.0,0.0,-0.3429,-0.392,-0.4363,0.0,0.0,-0.5001,-0.4903,-0.4813,-0.4317,-0.3906,-0.36,-0.317,0.0,0.0,0.0,0.0,0.0,0.0,0.0,0.0,0.0,0.0,0.0,0.0,0.0,0.0,0.0,0.0,0.0,0.0,0.0,0.0,0.0,0.0,0.0,0.0,0.0,0.0,0.0,0.0,0.0,0.0,0.0,0.0,0.0,0.0,0.0,0.0,0.0,0.0,0.0,0.0,0.0,0.0,0.0,0.0,0.0,0.0,0.0,0.0,0.0,0.0,0.0,0.0,2.5035,2.8229,2.8271,2.909,3.0768,3.0788,3.042,2.9591,2.8717,2.7864,0.0,0.0,0.0,0.0,0.0,0.0,0.0,0.0,0.0,0.0,0.0,0.0,0.0,0.0,0.0,0.0,0.0,0.0,0.0,0.0,0.0,0.0,0.0,0.0,0.0,0.0,0.0,0.0,-0.1542,-0.1603,-0.1834,0.0,0.0,0.0,0.0,0.0,0.0,0.0,0.0,0.0,0.0,-0.3893,-0.434,-0.4907,-0.5407,-0.5521,-0.5618,-0.5585,-0.541,-0.4889,-0.4393,-0.412,0.0,0.0,0.0,0.0,0.0,0.0,0.0,0.0,0.0,0.0,0.0,0.0,0.0,0.0,0.0,0.0,0.0,0.0,0.0,0.0,0.0,0.0,0.0,0.0,0.0,0.0,0.0,1.9323,0.0,0.0,1.9555,0.0,0.0,0.0,0.0,0.0,0.0,0.0,0.0,0.0,0.0,0.0,0.0,0.0,0.0,0.0,0.0,0.0,0.0,0.0,0.0,0.0,0.0,2.5571,2.814,2.8208,2.905,3.0745,3.0804,3.0399,2.955,2.8665,2.7839,2.6993,0.0,0.0,0.0,0.0,0.0,0.0,0.0,0.0,0.0,0.0,0.0,0.0,0.0,0.0,0.0,0.0,0.0,0.0,0.0,0.0,0.0,0.0,0.0,0.0,0.0,0.0,-0.1781,-0.1791,-0.1927,0.0,0.0,0.0,0.0,0.0,0.0,0.0,0.0,0.0,0.0,-0.3722,-0.433,-0.4884,-0.541,-0.5766,-0.5855,-0.6079,-0.6145,-0.5943,-0.5485,-0.5191,0.0,0.0,0.0,0.0,0.0,0.0,0.0,0.0,0.0,0.0,0.0,0.0,0.0,0.0,0.0,0.0,0.0,0.0,0.0,0.0,0.0,0.0,0.0,0.0,0.0,0.0,0.0,2.0228,2.0365,0.0,0.0,0.0,0.0,0.0,0.0,0.0,0.0,0.0,0.0,0.0,2.3139,2.4273,0.0,0.0,0.0,0.0,0.0,0.0,0.0,0.0,0.0,0.0,0.0,0.0,2.6042,2.7984,2.8696,2.9538,3.0626,3.0704,3.0594,3.0294,2.9444,2.8062,2.611,0.0,0.0,0.0,0.0,0.0,0.0,0.0,0.0,0.0,0.0,0.0,0.0,0.0,0.0,0.0,0.0,0.0,0.0,0.0,0.0,0.0,0.0,0.0,0.0,0.0,-0.2071,0.0,0.0,0.0,0.0,0.0,0.0,0.0,0.0,0.0,0.0,0.0,-0.3353,-0.3786,-0.4358,-0.4948,-0.5538,-0.5958,-0.6282,0.0,0.0,0.0,0.0,0.0,0.0,0.0,0.0,0.0,0.0,0.0,0.0,0.0,0.0,-0.3812,-0.3639,-0.3467,-0.3407,-0.3465,0.0,0.0,0.0,0.0,0.0,0.0,0.0,0.0,0.0,0.0,0.0,0.0,0.0,0.0,2.0818,0.0,2.0899,0.0,0.0,0.0,0.0,0.0,0.0,0.0,0.0,2.3687,2.4272,2.4307,2.538,2.5937,0.0,2.5032,2.4237,0.0,0.0,0.0,0.0,0.0,0.0,0.0,0.0,2.6611,2.8326,2.8971,2.9705,3.0488,3.061,3.0626,3.0614,2.9802,2.8307,2.6096,2.5236,2.4165,0.0,0.0,0.0,0.0,0.0,0.0,0.0,0.0,0.0,0.0,0.0,0.0,0.0,0.0,0.0,0.0,0.0,0.0,0.0,0.0,0.0,0.0,0.0,-0.2368,0.0,0.0,0.0,0.0,0.0,0.0,0.0,0.0,0.0,-0.3136,-0.3525,-0.3913,-0.4259,-0.492,-0.5523,-0.601,0.0,0.0,0.0,0.0,0.0,0.0,0.0,-0.6117,-0.586,-0.5639,-0.5421,-0.5178,-0.5109,-0.4989,-0.4804,0.0,0.0,-0.4259,-0.4116,-0.4053,-0.4053,-0.3814,-0.3694,-0.3697,-0.3572,-0.3451,0.0,0.0,0.0,0.0,0.0,0.0,0.0,0.0,2.0955,2.1154,0.0,2.083,0.0,0.0,0.0,0.0,0.0,2.29,0.0,0.0,2.4997,2.5337,2.5302,2.5355,2.5427,2.5544,2.5605,2.5732,2.5823,2.3382,0.0,0.0,0.0,0.0,0.0,0.0,2.7332,2.9002,2.9132,2.955,3.0411,3.0481,3.0491,3.0472,2.9713,2.8533,2.6965,2.6091,2.5252,2.4459,2.2827,0.0,0.0,0.0,0.0,0.0,0.0,0.0,0.0,0.0,0.0,0.0,0.0,0.0,0.0,0.0,0.0,0.0,0.0,0.0,0.0,-0.2509,0.0,0.0,0.0,0.0,0.0,0.0,0.0,0.0,0.0,0.0,-0.3797,-0.4169,-0.4574,-0.4707,0.0,0.0,0.0,0.0,-0.7461,-0.7269,-0.7396,-0.7461,-0.7265,-0.6937,-0.6736,-0.6736,0.0,0.0,-0.5537,-0.5579,-0.565,-0.5467,-0.5643,-0.5593,-0.4735,-0.4574,-0.4507,-0.4507,-0.4271,-0.4014,-0.4014,-0.3789,-0.3539,2.2218,0.0,0.0,0.0,0.0,2.216,2.2358,2.2524,2.2606,2.2736,2.2895,2.2929,0.0,0.0,0.0,0.0,0.0,0.0,2.4746,2.4615,2.5759,2.6074,2.5674,2.6255,2.6588,2.6692,2.6167,2.609,2.6366,2.5105,2.4759,2.5319,0.0,0.0,0.0,0.0,2.8188,2.8755,2.9445,3.024,3.109,3.0618,3.0359,3.0364,2.958,2.8946,2.8504,2.7187,2.6076,2.5278,2.4235,0.0,0.0,0.0,0.0,0.0,0.0,0.0,0.0,0.0,0.0,0.0,0.0,0.0,0.0,0.0,0.0,0.0,0.0,0.0,-0.2993,-0.3078,-0.3176,0.0,0.0,0.0,0.0,0.0,0.0,0.0,0.0,0.0,-0.4879,-0.4872,-0.506,0.0,0.0,-0.651,-0.7095,-0.7553,-0.7852,-0.7787,-0.7912,0.0,-0.7596,-0.7466,-0.7335,-0.7073,-0.6806,-0.6593,-0.6343,-0.6274,-0.6144,-0.6009,-0.592,-0.5789,-0.5582,-0.5294,-0.5097,-0.4964,-0.4711,-0.4517,-0.4452,-0.4322,-0.4189,2.3202,2.2744,2.2783,2.2946,2.3212,2.3554,2.3834,2.4004,2.4157,2.4308,2.4446,2.4148,2.4146,2.4282,2.4277,0.0,0.0,0.0,2.5797,2.6084,2.6877,2.7096,2.6842,2.735,2.7657,2.7726,2.73,2.712,2.717,2.6777,2.6654,2.6867,0.0,0.0,2.7286,2.7923,2.8483,2.8907,2.9536,3.0316,3.1217,3.0852,3.0524,3.0215,2.9756,2.9394,2.9148,2.792,2.6876,2.6101,2.4966,2.3881,0.0,0.0,0.0,0.0,0.0,0.0,0.0,0.0,0.0,0.0,0.0,-0.2061,-0.237,0.0,0.0,0.0,-0.3025,-0.3289,-0.3469,-0.3544,0.0,0.0,0.0,0.0,0.0,0.0,0.0,-0.467,-0.5067,-0.537,-0.5597,-0.5589,-0.5722,-0.6065,-0.6523,-0.7058,-0.7512,0.0,-0.8247,-0.8312,-0.8371,-0.8371,-0.8057,-0.7987,-0.7787,-0.7526,-0.7335,-0.7138,-0.7068,-0.6872,-0.6675,-0.6412,-0.628,-0.6148,-0.602,-0.5888,-0.562,-0.5352,-0.509,-0.4894,-0.4824,-0.4694,-0.4558,2.3799,2.3868,2.3641,2.3629,2.3775,2.4669,2.5102,2.5249,2.5497,2.5668,2.5754,2.4752,2.4425,2.4579,2.417,0.0,2.6012,2.6012,2.6716,2.8056,2.8056,2.8129,2.8279,2.8379,2.8455,2.8531,2.8699,2.853,2.8135,2.8169,2.7977,2.7504,2.6738,2.6812,2.7661,2.7868,2.8408,2.9321,2.9418,2.9927,3.0865,3.114,3.0899,3.0117,3.0085,2.9786,2.9202,2.8356,2.7591,2.6883,2.5309,2.4397,2.4344,0.0,0.0,0.0,0.0,0.0,0.0,0.0,0.0,0.0,0.0,0.0,0.0,0.0,0.0,0.0,-0.3501,0.0,-0.392,-0.3989,0.0,0.0,0.0,-0.4355,-0.4691,-0.4838,-0.5015,-0.5261,0.0,0.0,-0.5962,-0.624,-0.6426,-0.6291,-0.7016,-0.7596,-0.7727,-0.8187,-0.8641,-0.877,-0.8835,-0.877,-0.8576,-0.8376,-0.8177,-0.7982,-0.7857,-0.7596,-0.7526,-0.733,-0.7068,-0.6806,-0.6741,-0.6605,-0.6276,-0.6226,-0.6102,-0.5711,-0.5376,-0.5176,-0.5116,-0.5004,-0.4818,2.5206,2.5379,2.5089,2.4812,2.4608,2.502,2.5314,2.5576,2.5773,2.5924,2.6028,2.5994,2.6194,2.6427,2.6333,2.6526,2.696,2.6944,2.7219,2.7648,2.7664,2.7721,2.7818,2.7907,2.8027,2.8122,2.8295,2.8334,2.8343,2.8327,2.8174,2.7726,2.7549,2.7652,2.7915,2.8088,2.8446,2.8925,2.906,2.937,2.9945,3.1261,3.1316,2.9981,2.9937,2.9935,2.9901,2.8591,2.7797,2.7694,2.6165,2.4992,2.4366,2.3971,0.0,0.0,0.0,0.0,0.0,0.0,0.0,0.0,0.0,-0.2115,-0.2579,0.0,-0.2903,0.0,-0.3754,-0.4022,-0.4125,-0.4591,0.0,0.0,-0.529,-0.5595,-0.5675,-0.5809,-0.5963,-0.6191,-0.6216,-0.6282,-0.6526,-0.6681,-0.6811,-0.6936,-0.7367,-0.7797,-0.8252,-0.8565,-0.8818,-0.8952,-0.9157,-0.9227,-0.8905,-0.8635,-0.8382,-0.8177,-0.7927,-0.7666,-0.7666,-0.74,-0.7134,-0.7068,-0.6872,-0.6675,-0.6622,-0.6451,-0.6339,-0.6211,-0.5935,-0.5525,-0.5323,-0.5269,-0.5274,2.5828,2.5922,2.5986,2.5952,2.5813,2.5704,2.5877,2.6174,2.637,2.6579,2.6741,2.6826,2.6746,2.6673,2.6717,2.6977,2.7363,2.7378,2.7668,2.8112,2.8188,2.8275,2.8421,2.8592,2.866,2.8777,2.8869,2.8854,2.8718,2.8702,2.8495,2.8042,2.7835,2.7743,2.782,2.7941,2.8147,2.8456,2.9472,2.9793,2.9448,3.1117,3.1294,2.9794,2.979,2.9891,3.0049,2.8891,2.8157,2.7885,2.6746,2.5712,2.4939,2.4546,2.4166,0.0,0.0,0.0,0.0,0.0,0.0,0.0,0.0,0.0,0.0,0.0,-0.3064,-0.3635,-0.4171,-0.4559,-0.4743,-0.5193,-0.553,-0.5584,-0.594,-0.6211,-0.6297,-0.6367,-0.6506,-0.6638,-0.666,-0.6634,-0.6793,-0.6946,-0.7138,-0.74,-0.7661,-0.8057,-0.8511,-0.8823,-0.9017,-0.9215,-0.935,-0.9461,-0.9231,-0.8925,-0.8771,-0.8657,-0.8415,-0.8285,-0.815,-0.7947,-0.7677,-0.7468,-0.7333,-0.7129,-0.6997,-0.6863,-0.6802,-0.6534,-0.6443,-0.6104,-0.5768,-0.5674,-0.5587,2.6104,2.6166,2.6532,2.6809,2.6941,2.6554,2.6608,2.6973,2.7261,2.7573,2.7784,2.7512,2.7096,2.6595,2.6704,2.7134,2.7797,2.7751,2.8171,2.8936,2.8983,2.9075,2.9259,2.9502,2.9637,2.9653,2.9738,2.9562,2.9163,2.9163,2.887,2.8388,2.7919,2.7614,2.7542,2.7581,2.7712,2.8017,3.0062,3.0447,2.9136,3.0831,3.1043,2.9566,2.9589,2.9737,2.9872,2.9167,2.8529,2.7961,2.7248,2.6521,2.5776,2.5036,2.4608,0.0,2.3839,0.0,0.0,0.0,0.0,0.0,0.0,0.0,0.0,-0.2785,-0.3298,-0.4058,-0.4694,-0.5126,-0.5389,-0.5787,-0.6038,-0.6155,-0.6423,-0.6573,-0.6791,-0.6813,-0.6817,-0.699,-0.6946,-0.6942,-0.6942,-0.7073,-0.7335,-0.7661,-0.7857,-0.8247,-0.87,-0.8958,-0.9163,-0.952,-0.9627,-0.9712,-0.9533,-0.9372,-0.9242,-0.9222,-0.9039,-0.8936,-0.8704,-0.8498,-0.8297,-0.7934,-0.7774,-0.7641,-0.7375,-0.7317,-0.7199,-0.6853,-0.683,-0.6733,-0.6241,-0.6013,-0.5861,2.6645,2.6656,2.6321,2.6444,2.6856,2.6745,2.7165,2.7854,2.8163,2.855,2.8961,2.9026,2.9012,2.9011,2.9234,2.9362,2.9505,2.8971,2.8939,2.9296,2.8788,2.8636,2.8873,2.9137,2.9213,2.9229,2.9457,2.9483,2.9416,2.9416,2.9162,2.8721,2.8616,2.8109,2.7238,0.0,0.0,0.0,2.9851,3.0206,2.8991,3.0607,3.0826,2.9427,2.9472,0.0,2.9697,2.9023,2.8669,2.8683,2.8041,0.0,0.0,0.0,0.0,0.0,0.0,0.0,0.0,0.0,0.0,0.0,0.6651,-0.1588,-0.2406,-0.3345,-0.4056,-0.4342,-0.491,-0.5366,-0.54,-0.6076,-0.6537,-0.6604,-0.699,-0.7297,-0.733,-0.7335,-0.7353,-0.7386,-0.7269,-0.7138,-0.7138,-0.7204,-0.7335,-0.7661,-0.7982,-0.8366,-0.8894,-0.9104,-0.9438,-0.9958,-1.022,-1.0244,-0.9978,-0.9777,-0.9586,-0.9497,-0.9217,-0.8946,-0.875,-0.8538,-0.8316,-0.8103,-0.7872,-0.7744,-0.7535,-0.7428,-0.7388,-0.7175,-0.7088,-0.7003,-0.6388,-0.6382,-0.6398,2.7092,2.7197,2.6972,2.7046,0.0,2.7566,2.794,2.8363,2.8222,2.8468,2.8987,2.9083,2.9262,2.9426,2.9495,2.9604,2.9735,2.9418,2.944,2.9669,2.9112,2.8953,2.91,2.8982,2.8951,2.8967,2.9107,2.9199,2.9213,2.9259,2.922,2.9046,2.8839,2.8433,2.7963,2.7937,2.7807,2.7491,2.9395,2.9755,2.8619,3.0239,3.0515,2.9189,2.9249,0.0,0.0,0.0,0.0,0.0,0.0,0.0,0.0,2.7411,0.0,2.6969,2.6939,2.7134,2.7573,2.7207,2.539,2.1601,0.9761,0.1074,-0.2252,-0.3327,-0.3963,-0.4385,-0.4895,-0.5366,-0.5639,-0.6229,-0.66,-0.6733,-0.7075,-0.733,-0.733,-0.7456,-0.7526,-0.7526,-0.7396,-0.733,-0.733,-0.74,-0.7531,-0.7802,-0.828,-0.8673,-0.9134,-0.9408,-0.9778,-1.0288,-1.0498,-1.0514,-1.029,-1.0101,-0.9944,-0.9818,-0.9639,-0.9348,-0.9202,-0.8988,-0.8768,-0.8543,-0.8392,-0.8167,-0.7959,-0.7895,-0.7731,-0.7517,-0.7427,-0.7234,-0.6836,-0.6659,-0.656,2.7469,2.7536,2.7656,2.7776,2.7855,2.8262,2.8522,2.8583,0.0,0.0,0.0,2.9028,2.9212,2.9395,2.9451,2.9548,2.9754,2.965,2.9768,3.0038,2.9648,2.9429,2.9515,2.9051,2.8871,2.8918,2.8794,2.8826,2.8873,2.8982,2.9121,2.9196,2.8866,2.8732,2.8783,2.8563,2.8079,2.7552,2.9121,2.9457,2.8365,2.9848,3.008,2.8828,2.9021,2.9181,2.933,2.9474,2.9325,2.8834,2.8994,2.8772,2.8144,2.8238,2.8274,2.8193,2.8201,2.8288,2.8498,2.8375,2.6876,2.3453,1.4464,0.6144,-0.0585,-0.2514,-0.3663,-0.4263,-0.4785,-0.5223,-0.5741,-0.609,-0.6416,-0.6609,-0.6937,-0.7134,-0.7199,-0.733,-0.7461,-0.7526,-0.7526,-0.7526,-0.7526,-0.7596,-0.7816,-0.8128,-0.8599,-0.9181,-0.9638,-1.0091,-1.0381,-1.0635,-1.0829,-1.0781,-1.0581,-1.0356,-1.0222,-1.022,-1.0045,-0.9846,-0.962,-0.9473,-0.9246,-0.8988,-0.8865,-0.8618,-0.847,-0.8232,-0.8106,-0.788,-0.7642,-0.7488,-0.7257,-0.6945,-0.6718,2.7416,2.7523,2.7536,2.7643,2.7789,2.7855,2.8197,2.8638,2.9108,2.9534,2.9915,3.0187,3.0366,3.0425,3.0676,3.0807,3.0821,3.0275,3.0193,3.0387,2.9768,2.9614,2.9894,2.9363,2.9208,2.9277,2.8867,2.8684,2.8794,2.8842,2.8858,2.8951,2.9011,2.8949,2.8773,2.8306,2.8147,2.834,2.9721,2.9833,2.871,2.97,2.9715,2.8557,2.8687,2.8905,2.9134,2.9289,2.9399,2.9529,2.9744,2.9541,2.891,2.9062,2.8834,2.8184,2.816,2.8551,2.9338,2.8719,2.8684,2.9208,2.3818,1.583,0.5389,-0.0425,-0.3654,-0.4,-0.4527,-0.5005,-0.5425,-0.5756,-0.609,-0.6416,-0.6609,-0.6872,-0.7138,-0.7204,-0.733,-0.7461,-0.7526,-0.7536,-0.7681,-0.7756,-0.8032,-0.8636,-0.9091,-0.9633,-1.0688,-1.1108,-1.1049,-1.1041,-1.1294,-1.1365,-1.1021,-1.0828,-1.0616,-1.0501,-1.0293,-0.9997,-0.9695,-0.9549,-0.9392,-0.9099,-0.8946,-0.8789,-0.8479,-0.8403,-0.8178,-0.7953,-0.7799,-0.7646,-0.7484,-0.7253,-0.7026,2.8283,2.8339,2.8408,2.8546,2.8589,2.8409,2.8545,2.9034,2.9045,2.9352,2.9865,2.9974,3.0158,3.0341,3.0582,3.0702,3.0807,3.0588,3.0616,3.0745,3.022,3.0033,3.0208,2.9735,2.959,2.973,2.949,2.9254,2.903,2.9098,2.9009,2.8763,2.8982,2.91,2.905,2.9,2.909,2.9329,2.99,2.9809,2.909,2.9967,3.0103,2.9383,2.9591,2.9835,3.0118,3.0312,3.0543,3.0781,3.1054,3.1089,3.0935,3.1116,3.0907,3.0186,3.0173,3.02,3.0182,2.9877,2.9979,3.0613,2.5741,2.1843,1.9546,0.8304,0.006,-0.3315,-0.4159,-0.4564,-0.5027,-0.5428,-0.5756,-0.5951,-0.628,-0.6613,-0.6872,-0.7073,-0.7265,-0.7466,-0.7692,-0.7831,-0.7898,-0.8275,-0.8643,-0.9113,-0.9627,-1.0508,-1.1518,-1.1661,-1.1668,-1.1601,-1.1624,-1.1545,-1.126,-1.0962,-1.0738,-1.0513,-1.0363,-1.0067,-0.9846,-0.9695,-0.9468,-0.9246,-0.9099,-0.8865,-0.8632,-0.8475,-0.825,-0.803,-0.788,-0.7723,-0.7561,-0.7334,-0.7103,2.8859,2.9015,2.9145,2.9287,2.9235,2.9,2.909,2.9363,2.9065,2.9241,2.9728,2.968,2.9741,2.9974,3.0158,3.0326,3.0507,3.0642,3.0821,3.0955,3.06,3.0478,3.0532,3.0088,2.9898,3.0083,2.9962,2.972,2.9419,2.9526,2.9339,2.89,2.8983,2.9137,2.9259,2.9589,2.981,2.9924,2.9947,2.977,2.943,3.0192,3.0404,3.0053,3.0313,3.0581,3.0893,3.1154,3.1409,3.1658,3.1967,3.2241,3.2457,3.2694,3.2602,3.2113,3.2124,3.1746,3.0837,3.0966,3.0999,3.0741,2.69,2.6265,2.9008,1.7855,0.6297,-0.0182,-0.2743,-0.4028,-0.4495,-0.4897,-0.5226,-0.5554,-0.5888,-0.6308,-0.6664,-0.6937,-0.7295,-0.7536,-0.7947,-0.8186,-0.8353,-0.889,-0.9357,-0.9721,-1.0432,-1.1259,-1.1883,-1.2009,-1.2083,-1.2009,-1.1855,-1.1632,-1.1409,-1.1111,-1.0812,-1.0588,-1.0368,-1.0218,-0.9997,-0.9771,-0.962,-0.9397,-0.9251,-0.9022,-0.8784,-0.8627,-0.8403,-0.8183,-0.7953,-0.7799,-0.7561,-0.7411,-0.7257,2.8499,2.8944,2.9054,2.9145,2.9314,2.9363,2.9465,2.9535,2.9803,3.0065,3.0174,2.9775,2.9631,2.9665,3.0003,3.0248,3.0326,3.0312,3.0507,3.0821,3.0763,3.0866,3.0969,3.0378,3.0182,3.0387,2.9894,2.9771,2.9917,3.0029,2.9899,2.9503,2.9043,2.8936,2.9137,2.9396,2.9649,2.981,2.9935,2.9881,2.9722,3.0023,2.9997,2.9506,2.9857,3.0225,3.0618,3.0866,3.1195,3.15,3.1893,3.2163,3.2428,3.2645,3.2766,3.2793,3.2907,3.2344,3.1053,3.1525,3.1617,3.0882,3.0253,3.0,3.0581,2.4744,1.6323,0.7014,0.0243,-0.2905,-0.3961,-0.4298,-0.47,-0.5316,-0.5442,-0.5811,-0.6551,-0.6929,-0.7203,-0.7728,-0.8098,-0.8418,-0.8629,-0.9097,-0.9678,-1.0527,-1.1095,-1.1636,-1.199,-1.2157,-1.2231,-1.2231,-1.2003,-1.1632,-1.1409,-1.1186,-1.0962,-1.0738,-1.0594,-1.0368,-1.0143,-0.9997,-0.9771,-0.9549,-0.9397,-0.917,-0.9022,-0.8789,-0.8551,-0.8255,-0.8025,-0.7949,-0.7638,-0.7484,-0.7403,2.9265,2.949,2.9864,3.0147,3.0255,3.0,2.9915,3.0032,2.983,2.9824,2.9966,2.9969,2.9969,2.9959,3.0214,3.0205,3.0021,3.0144,3.028,3.0507,3.0507,3.0628,3.0851,3.0646,3.0631,3.0849,3.0567,3.041,3.0298,3.0137,2.9867,2.9508,2.9268,2.9121,2.9014,2.9167,2.935,2.9515,2.9782,2.9821,2.9831,3.0242,3.0487,3.0577,3.087,3.1236,3.1553,3.1959,3.2361,3.2665,3.305,3.3377,3.3631,3.3884,3.3865,3.3523,3.3184,3.2813,3.2264,3.2072,3.1626,3.0849,3.0791,3.084,3.0656,2.5926,2.053,1.5753,0.7448,0.0716,-0.269,-0.3758,-0.4252,-0.4787,-0.5148,-0.5614,-0.6324,-0.6768,-0.7161,-0.773,-0.827,-0.8635,-0.8939,-0.9545,-1.0312,-1.1162,-1.1575,-1.1848,-1.2231,-1.2305,-1.2378,-1.2378,-1.2157,-1.1855,-1.1552,-1.1335,-1.1037,-1.0812,-1.0663,-1.0438,-1.0218,-0.9997,-0.9846,-0.962,-0.9473,-0.9246,-0.9022,-0.8865,-0.8627,-0.8327,-0.8025,-0.7799,-0.7561,-0.748,-0.748,2.9714,2.9869,3.0483,3.0849,3.0947,3.0555,3.0433,3.0526,3.0132,3.009,3.0233,3.0516,3.0596,3.0522,3.0592,3.0367,3.0072,3.0168,3.0207,3.0233,3.0266,3.0447,3.0642,3.0687,3.0821,3.1014,3.0999,3.0924,3.072,3.0313,3.0023,2.9827,2.9561,2.9249,2.906,2.9077,2.9091,2.9259,2.9515,2.9677,2.981,3.0215,3.0675,3.1117,3.1445,3.1765,3.2144,3.2603,3.3006,3.3386,3.377,3.4124,3.4404,3.467,3.4623,3.4244,3.3838,3.3569,3.3481,3.2915,3.2057,3.0967,3.0964,3.1035,3.029,2.7504,2.4764,2.2227,1.5584,0.8322,0.0305,-0.2458,-0.3806,-0.4369,-0.4871,-0.5419,-0.6129,-0.6588,-0.7041,-0.7748,-0.8401,-0.8995,-0.9385,-1.001,-1.0708,-1.1465,-1.17,-1.1929,-1.2372,-1.2445,-1.2378,-1.2532,-1.2231,-1.1929,-1.17,-1.1409,-1.1111,-1.0887,-1.0738,-1.0513,-1.0293,-1.0143,-0.9922,-0.9771,-0.9473,-0.9322,-0.917,-0.8937,-0.8627,-0.8327,-0.8025,-0.7723,-0.7561,-0.748,-0.748,2.939,2.9869,3.047,3.0849,3.0973,3.0934,3.0921,3.0957,3.1079,3.1154,3.1188,3.1375,3.1374,3.111,3.0939,3.0735,3.0465,3.0474,3.0369,3.0197,3.0248,3.0326,3.0326,3.0507,3.0702,3.0836,3.0836,3.1014,3.1302,3.0806,3.0618,3.0828,2.9898,2.9443,2.9292,2.9026,2.8936,2.9091,2.9152,2.9305,2.9637,2.9782,3.0156,3.0675,3.0982,3.1372,3.1819,3.2197,3.2619,3.3111,3.3512,3.3868,3.4197,3.4473,3.4714,3.4956,3.5066,3.4831,3.4268,3.4127,3.3286,3.1414,3.1605,3.1651,3.1176,3.1008,2.9102,2.4463,2.3547,1.8003,0.7524,0.1248,-0.2449,-0.3478,-0.4331,-0.5058,-0.5929,-0.6392,-0.6915,-0.769,-0.8486,-0.9326,-1.0254,-1.0432,-1.0887,-1.1484,-1.1706,-1.1929,-1.2445,-1.2452,-1.2452,-1.2445,-1.2298,-1.1922,-1.1706,-1.1484,-1.1335,-1.1111,-1.0887,-1.0738,-1.0519,-1.0293,-1.0143,-0.9841,-0.9549,-0.9322,-0.9246,-0.8941,-0.8556,-0.8255,-0.803,-0.7795,-0.7638,-0.7557,-0.748,2.9365,3.0011,3.0381,3.0685,3.0986,3.0986,3.0986,3.0986,3.1061,3.1123,3.1136,3.136,3.1389,3.1309,3.1339,3.1114,3.0765,3.0856,3.0732,3.0439,3.0509,3.053,3.0341,3.0372,3.0507,3.0628,3.0702,3.0807,3.1029,3.0939,3.08,3.0623,3.0322,2.9887,2.9469,2.928,2.9102,2.8967,2.9045,2.9167,2.9305,2.9486,2.9798,3.0113,3.0576,3.0998,3.1334,3.1804,3.2283,3.2734,3.316,3.355,3.3902,3.4316,3.4647,3.4832,3.5037,3.5037,3.4813,3.443,3.4183,3.3945,3.3102,3.2664,3.2493,3.264,3.1981,2.9975,2.6772,2.2473,1.7974,0.9328,0.3051,0.195,-0.1663,-0.4559,-0.5591,-0.6246,-0.6881,-0.7689,-0.8623,-0.9539,-1.0218,-1.0513,-1.0812,-1.1484,-1.1706,-1.2003,-1.2526,-1.2526,-1.2452,-1.2673,-1.2452,-1.2077,-1.1706,-1.1558,-1.1335,-1.1111,-1.0968,-1.0743,-1.0519,-1.0368,-1.0143,-0.9916,-0.962,-0.9397,-0.9246,-0.8937,-0.8556,-0.8327,-0.8102,-0.7949,-0.7718,-0.7638,-0.7561,2.9514,3.0011,3.0216,3.052,3.0911,3.0911,3.0911,3.0986,3.0986,3.0986,3.1061,3.1123,3.1198,3.1347,3.1447,3.1414,3.1184,3.1186,3.1015,3.0657,3.089,3.0743,3.0483,3.052,3.0589,3.0536,3.0568,3.0628,3.0836,3.0955,3.0895,3.0741,3.0559,3.0298,2.9787,2.949,2.92,2.9024,2.8983,2.8982,2.9029,2.9259,2.9441,2.9677,3.0172,3.0576,3.0942,3.1449,3.1913,3.2369,3.2816,3.325,3.3734,3.4099,3.4367,3.4567,3.4732,3.4908,3.5011,3.4652,3.4731,3.54,3.4334,3.3596,3.3988,3.3835,3.3729,3.2914,3.1235,2.8764,2.6736,1.9322,1.15,0.707,0.182,-0.2241,-0.4868,-0.5935,-0.6861,-0.7859,-0.8784,-0.9539,-1.0212,-1.0519,-1.0968,-1.1626,-1.1781,-1.2224,-1.2673,-1.268,-1.2526,-1.2826,-1.2519,-1.215,-1.1861,-1.1639,-1.1422,-1.1204,-1.1043,-1.0812,-1.0594,-1.0368,-1.0143,-0.9992,-0.9695,-0.9468,-0.9241,-0.8932,-0.8703,-0.8479,-0.8327,-0.8102,-0.7872,-0.7718,-0.7638,2.9898,2.9917,3.0011,3.0369,3.0763,3.0711,3.0849,3.0986,3.0986,3.0973,3.0986,3.1061,3.1136,3.1272,3.1272,3.1381,3.1429,3.1263,3.1073,3.095,3.1244,3.112,3.0622,3.0976,3.0912,3.0441,3.0522,3.0702,3.0762,3.0836,3.0851,3.0984,3.0669,3.0511,3.0492,2.9713,2.9337,2.9227,2.8912,2.8763,2.8873,2.9029,2.9183,2.9335,2.9694,3.0113,3.0634,3.1061,3.1545,3.1967,3.2369,3.2925,3.3541,3.3815,3.4023,3.4269,3.4409,3.4586,3.4773,3.4869,3.4971,3.5209,3.4614,3.4538,3.5106,3.4844,3.452,3.4547,3.4901,3.5281,3.4194,2.9325,2.0957,0.9316,0.6388,0.2293,-0.2204,-0.5217,-0.6556,-0.8021,-0.8865,-0.9544,-1.0067,-1.0513,-1.1037,-1.1632,-1.2003,-1.2378,-1.282,-1.2753,-1.268,-1.2746,-1.2532,-1.217,-1.1942,-1.1719,-1.1434,-1.1297,-1.1123,-1.0962,-1.0663,-1.0443,-1.0218,-0.9992,-0.9695,-0.9473,-0.9246,-0.8937,-0.8708,-0.8479,-0.8403,-0.825,-0.8102,-0.7872,-0.7718,3.0409,3.0617,3.0482,3.0633,3.0984,3.0624,3.0609,3.0773,3.0748,3.0823,3.0986,3.0986,3.1061,3.1048,3.1061,3.1211,3.1347,3.1269,3.1173,3.1182,3.1516,3.1469,3.1194,3.1279,3.1226,3.0941,3.071,3.0642,3.0657,3.0642,3.0762,3.0822,3.0749,3.0628,3.0526,3.0213,2.9887,2.9307,2.9196,2.902,2.8778,2.8873,2.9013,2.9167,2.9425,2.9766,3.007,3.0625,3.1201,3.1694,3.2003,3.2468,3.3111,3.3473,3.3716,3.3887,3.4099,3.4316,3.452,3.471,3.4927,3.5129,3.4977,3.5091,3.5489,3.5364,3.5262,3.5333,3.5691,3.5894,3.5516,3.4375,2.8702,2.0805,1.1977,0.6452,0.3232,-0.2402,-0.6569,-0.8025,-0.8708,-0.9387,-1.0067,-1.0588,-1.1111,-1.1781,-1.215,-1.2526,-1.29,-1.2826,-1.2673,-1.2826,-1.2546,-1.2357,-1.225,-1.2107,-1.1897,-1.1643,-1.1423,-1.1157,-1.0819,-1.0494,-1.0338,-0.9992,-0.962,-0.9397,-0.917,-0.8941,-0.8708,-0.8627,-0.8475,-0.8403,-0.8255,-0.8102,-0.7949,3.0783,3.0811,3.0792,3.0977,3.1258,3.0968,3.1087,3.1229,3.1074,3.1228,3.1498,3.1148,3.1146,3.1235,3.1091,3.1061,3.1198,3.1272,3.1296,3.1339,3.1728,3.175,3.1457,3.138,3.1537,3.1545,3.1127,3.0884,3.0916,3.0698,3.0642,3.0702,3.0762,3.0749,3.0611,3.0544,3.0168,2.9713,2.9455,2.9196,2.8943,2.8825,2.8873,2.9013,2.9259,2.947,2.9705,3.0225,3.0764,3.1278,3.1731,3.2214,3.2752,3.3068,3.3298,3.353,3.3734,3.3972,3.4197,3.4386,3.4663,3.4925,3.5058,3.5157,3.5335,3.5457,3.5562,3.563,3.5696,3.5806,3.5852,3.5845,3.3822,3.0229,2.0521,1.2273,0.7915,-0.0838,-0.6325,-0.7638,-0.8475,-0.9231,-0.9916,-1.0588,-1.1186,-1.1855,-1.2305,-1.2606,-1.3046,-1.2973,-1.3022,-1.2945,-1.2804,-1.2665,-1.2654,-1.2499,-1.2302,-1.2017,-1.1799,-1.1408,-1.0994,-1.0806,-1.056,-1.0041,-0.962,-0.9397,-0.9246,-0.8937,-0.8703,-0.8627,-0.8551,-0.8475,-0.8403,-0.825,-0.8102,3.0895,3.0542,3.0897,3.1228,3.1461,3.1524,3.1758,3.2143,3.1909,3.2029,3.2267,3.1837,3.1526,3.168,3.1457,3.1222,3.1127,3.1241,3.1325,3.1455,3.1769,3.186,3.1638,3.1581,3.1768,3.2019,3.1588,3.1397,3.1348,3.0899,3.0611,3.0657,3.0702,3.0821,3.0705,3.0611,3.0485,3.0293,2.9697,2.9394,2.9316,2.8958,2.8715,2.8905,2.9029,2.9213,2.947,2.987,3.0284,3.0788,3.1507,3.2002,3.237,3.2588,3.283,3.3129,3.3357,3.3587,3.3842,3.403,3.4293,3.4577,3.4769,3.4926,3.5089,3.5254,3.5383,3.5463,3.5588,3.5708,3.5776,3.584,3.5541,3.5016,2.771,1.8636,0.6748,-0.1258,-0.5613,-0.7253,-0.8169,-0.9008,-0.9771,-1.0519,-1.126,-1.1929,-1.2452,-1.2907,-1.3212,-1.3269,-1.3259,-1.3222,-1.3134,-1.3088,-1.3008,-1.2763,-1.258,-1.2606,-1.2265,-1.1762,-1.1198,-1.0962,-1.0672,-1.0144,-0.964,-0.9408,-0.917,-0.8937,-0.8703,-0.8703,-0.8627,-0.8551,-0.8475,-0.8403,-0.8255,3.1559,3.1588,3.1284,3.144,3.1714,3.1435,3.1505,3.1911,3.1966,3.2259,3.2553,3.3278,3.3027,3.2463,3.2293,3.2032,3.1705,3.1588,3.1491,3.1312,3.1434,3.1809,3.2088,3.2069,3.2117,3.2235,3.1909,3.1625,3.1397,3.118,3.0924,3.0582,3.0657,3.0702,3.0763,3.0749,3.0658,3.0485,3.0323,2.9758,2.923,2.9158,2.8938,2.8556,2.8794,2.8967,2.9213,2.9649,3.0156,3.0747,3.1295,3.1654,3.1875,3.2144,3.242,3.2654,3.2943,3.3208,3.3379,3.3662,3.3957,3.426,3.4446,3.4647,3.4869,3.5018,3.5152,3.5273,3.5418,3.5519,3.5629,3.5717,3.5781,3.4939,2.9202,1.973,0.8257,-0.0625,-0.5625,-0.671,-0.7638,-0.8551,-0.9539,-1.0368,-1.1123,-1.1874,-1.2493,-1.3093,-1.3397,-1.3565,-1.3658,-1.3565,-1.3491,-1.3426,-1.3333,-1.3089,-1.2965,-1.3079,-1.2767,-1.2176,-1.1623,-1.1027,-1.0707,-1.0207,-0.9668,-0.9392,-0.9194,-0.9013,-0.8861,-0.8703,-0.8703,-0.8627,-0.8627,-0.8627,-0.8403,3.1761,3.1825,3.161,3.1662,3.1872,3.1746,3.1863,3.2281,3.246,3.2695,3.3144,3.3925,3.3793,3.2984,3.2723,3.2529,3.2202,3.194,3.1653,3.1504,3.1391,3.1716,3.2105,3.2246,3.2403,3.2624,3.2266,3.208,3.1861,3.1467,3.1042,3.0758,3.0531,3.0476,3.0568,3.0687,3.0705,3.0628,3.0476,3.0133,2.9689,2.9264,2.9092,2.8747,2.8742,2.8732,2.9075,2.9425,2.9881,3.0502,3.0942,3.1252,3.1428,3.1711,3.1966,3.2161,3.247,3.277,3.2993,3.3298,3.3559,3.3844,3.4067,3.4269,3.4458,3.4653,3.4851,3.498,3.5114,3.5288,3.5464,3.5607,3.5721,3.4995,2.9257,2.0891,1.1137,0.4195,-0.1708,-0.4916,-0.7019,-0.8093,-0.916,-1.0067,-1.0952,-1.1853,-1.2587,-1.3209,-1.371,-1.3851,-1.3973,-1.3887,-1.3881,-1.3858,-1.3674,-1.343,-1.3195,-1.3224,-1.2983,-1.2422,-1.1834,-1.1227,-1.0835,-1.041,-0.987,-0.9438,-0.9239,-0.9037,-0.8784,-0.8703,-0.8703,-0.8703,-0.8703,-0.8703,-0.8479,3.1661,3.1749,3.1937,3.195,3.2001,3.2288,3.2525,3.2945,3.3054,3.3212,3.361,3.4079,3.3914,3.3286,3.3099,3.2881,3.2764,3.2398,3.2006,3.1743,3.1514,3.1569,3.2009,3.2173,3.2492,3.2862,3.2555,3.2481,3.2312,3.1539,3.1076,3.0777,3.0383,3.0201,3.0341,3.0462,3.0628,3.066,3.0527,3.0345,3.0112,2.9529,2.9251,2.9205,2.8904,2.8728,2.8952,2.9213,2.9605,3.0166,3.0468,3.0814,3.1095,3.1329,3.1504,3.1694,3.1985,3.2283,3.2557,3.2816,3.3129,3.3339,3.3625,3.3813,3.3956,3.4195,3.4461,3.4614,3.4832,3.5032,3.5277,3.5507,3.5679,3.5071,3.0562,2.4871,1.7894,1.0631,0.3223,-0.3403,-0.5406,-0.7399,-0.8651,-0.9666,-1.0656,-1.1682,-1.2498,-1.3185,-1.3676,-1.4016,-1.4186,-1.4265,-1.4206,-1.4193,-1.3998,-1.3789,-1.3516,-1.33,-1.2948,-1.2517,-1.2027,-1.1413,-1.1031,-1.054,-1.0011,-0.9642,-0.9361,-0.9163,-0.8808,-0.8703,-0.8703,-0.8703,-0.8703,-0.8703,-0.8556,3.1661,3.1661,3.1749,3.1849,3.2038,3.2025,3.2376,3.281,3.2995,3.324,3.3458,3.3623,3.374,3.3882,3.3744,3.3658,3.3404,3.3143,3.2777,3.1784,3.1248,3.1224,3.1569,3.195,3.2255,3.2475,3.2607,3.2486,3.2164,3.1682,3.111,3.0743,3.0338,3.0111,3.0111,3.0158,3.0341,3.0553,3.0527,3.0382,3.026,3.0045,2.9689,2.9493,2.9266,2.895,2.8697,2.8951,2.9243,2.9544,3.0033,3.0441,3.0651,3.0861,3.1061,3.1312,3.1579,3.1785,3.1949,3.2266,3.2623,3.2959,3.3068,3.3183,3.3304,3.366,3.3975,3.4218,3.4461,3.4753,3.52,3.5355,3.5697,3.5363,3.4355,3.1334,2.4772,1.4309,0.691,0.2305,-0.2432,-0.6659,-0.8191,-0.9257,-1.0304,-1.1447,-1.2282,-1.3008,-1.362,-1.4093,-1.4246,-1.4358,-1.431,-1.4261,-1.4065,-1.3828,-1.3568,-1.3313,-1.296,-1.2528,-1.2041,-1.1674,-1.1282,-1.0751,-1.0173,-0.9879,-0.9615,-0.9192,-0.8837,-0.8732,-0.8713,-0.8703,-0.8703,-0.8703,-0.8551,3.1661,3.1661,3.1661,3.1749,3.1849,3.1862,3.2025,3.2388,3.276,3.2921,3.3142,3.336,3.3641,3.3823,3.3992,3.3965,3.3762,3.3561,3.2948,3.2018,3.1441,3.1268,3.1447,3.1743,3.1963,3.2169,3.2372,3.2368,3.2221,3.1819,3.1355,3.0793,3.0319,2.9946,2.9755,2.9789,2.9974,3.0205,3.0326,3.0274,3.0236,3.0045,2.9873,2.9585,2.9524,2.9419,2.9427,2.9614,2.9704,2.9753,2.9982,3.021,3.0281,3.0493,3.0675,3.0878,3.11,3.1295,3.147,3.1802,3.2107,3.2494,3.2592,3.2663,3.2857,3.3183,3.3524,3.3768,3.4105,3.4529,3.5438,3.6188,3.6445,3.6702,3.6813,3.5509,3.1554,2.2815,1.2862,0.7879,0.2311,-0.2498,-0.5508,-0.8179,-0.9746,-1.0811,-1.202,-1.2763,-1.355,-1.409,-1.4289,-1.44,-1.4357,-1.43,-1.4055,-1.3822,-1.3561,-1.3222,-1.2966,-1.254,-1.206,-1.1798,-1.1618,-1.0995,-1.0468,-1.0131,-0.9842,-0.9321,-0.8927,-0.885,-0.8831,-0.8755,-0.8627,-0.8627,-0.8399,3.1661,3.1661,3.1661,3.1661,3.1661,3.1749,3.1849,3.2038,3.235,3.2599,3.2736,3.3167,3.3326,3.3484,3.3738,3.3992,3.3965,3.3679,3.3067,3.2567,3.1922,3.1783,3.1748,3.1776,3.1817,3.2109,3.2096,3.2187,3.2225,3.1956,3.1406,3.0896,3.0287,2.9942,2.9561,2.9415,2.9588,2.9747,2.9898,3.0083,3.0151,2.9853,2.971,2.9548,2.9729,2.9848,2.9946,3.0078,3.0176,3.0176,3.0177,3.0179,3.0222,3.0179,3.0359,3.0443,3.0792,3.1122,3.1409,3.1664,3.2,3.2067,3.2381,3.2564,3.2755,3.3164,3.3526,3.3857,3.4229,3.4946,3.5976,3.6688,3.7371,3.7709,3.7977,3.8277,3.7441,3.2617,2.3463,1.1748,0.6002,0.1244,-0.3969,-0.7718,-0.8989,-1.0272,-1.1411,-1.2415,-1.3277,-1.3808,-1.3964,-1.4126,-1.4062,-1.3984,-1.3822,-1.3652,-1.3307,-1.3137,-1.2875,-1.246,-1.2037,-1.1901,-1.164,-1.1202,-1.0799,-1.0429,-1.0126,-0.9692,-0.9329,-0.9118,-0.8935,-0.8758,-0.8693,-0.8489,-0.8183,3.1661,3.1661,3.1661,3.1661,3.1661,3.1661,3.1849,3.2038,3.205,3.2225,3.2475,3.2723,3.2995,3.3154,3.3398,3.3738,3.3933,3.3904,3.3673,3.3384,3.2787,3.2408,3.227,3.195,3.1823,3.1817,3.1817,3.1817,3.1815,3.1429,3.1317,3.1019,3.0431,2.9997,2.9707,2.9467,2.9331,2.9387,2.9588,2.9775,2.9842,2.9925,2.9851,2.9739,3.0036,3.0078,2.9892,2.9955,3.0112,3.0361,3.0519,3.0741,3.0704,3.0309,3.0141,3.0364,3.0915,3.1335,3.147,3.2176,3.2101,3.1926,3.2425,3.3276,3.3494,3.3726,3.3934,3.451,3.5051,3.5807,3.6415,3.7075,3.7371,3.7691,3.8132,3.8531,3.8824,3.6855,3.1053,1.8576,1.1422,0.4632,-0.0671,-0.5653,-0.8215,-0.9397,-1.0554,-1.1612,-1.2468,-1.3045,-1.3392,-1.3561,-1.3652,-1.3568,-1.3489,-1.3313,-1.3058,-1.296,-1.2705,-1.2369,-1.2037,-1.1871,-1.1552,-1.1209,-1.0953,-1.0669,-1.0269,-0.9968,-0.9604,-0.9266,-0.9053,-0.8843,-0.8663,-0.8485,-0.809,3.1661,3.1661,3.1661,3.1661,3.1661,3.1661,3.1761,3.1862,3.1937,3.2038,3.2213,3.2475,3.2649,3.2822,3.3068,3.3581,3.3985,3.4367,3.427,3.3953,3.3659,3.3235,3.2872,3.2393,3.2098,3.1911,3.1683,3.1683,3.173,3.1548,3.1285,3.0895,3.0608,3.0201,2.9697,2.9474,2.9247,2.9196,2.9226,2.9352,2.9463,2.9727,2.9822,3.0145,3.0324,3.0395,3.0559,3.0608,3.0688,3.0716,3.092,3.0996,3.0845,3.0717,3.0558,3.0916,3.1297,3.1567,3.1691,3.2262,3.227,3.2182,3.274,3.3448,3.3904,3.4088,3.4138,3.4707,3.5597,3.6304,3.6751,3.7477,3.8169,3.8607,3.8892,3.935,3.9896,4.0171,3.386,2.5164,1.8399,1.0931,0.2662,-0.206,-0.6455,-0.8578,-0.9749,-1.0712,-1.158,-1.2283,-1.2717,-1.2881,-1.3052,-1.3058,-1.3058,-1.2881,-1.2711,-1.2619,-1.2448,-1.2112,-1.186,-1.1607,-1.144,-1.1144,-1.0883,-1.0709,-1.0583,-1.0218,-0.9815,-0.9341,-0.9085,-0.8917,-0.8688,-0.8467,-0.7924,3.1749,3.1661,3.1661,3.1661,3.1661,3.1661,3.1661,3.1761,3.1849,3.1937,3.195,3.2213,3.23,3.2487,3.2909,3.3411,3.4076,3.4494,3.4574,3.4473,3.4352,3.4022,3.3571,3.3016,3.2597,3.2287,3.1844,3.1757,3.1743,3.169,3.1362,3.1128,3.1039,3.0542,2.9793,2.9537,2.9277,2.9043,2.8949,2.9035,2.9226,2.9477,2.9851,3.0447,3.0507,3.0703,3.0954,3.1099,3.112,3.1061,3.1171,3.1236,3.0988,3.1125,3.1401,3.1754,3.1805,3.1887,3.2015,3.2401,3.2723,3.2818,3.2889,3.3632,3.4192,3.4259,3.4175,3.4801,3.5663,3.6559,3.7109,3.8102,3.8831,3.9349,3.9713,4.017,4.037,4.0092,3.8733,3.1448,2.4905,1.6667,0.7756,-0.0962,-0.5796,-0.7365,-0.8528,-0.9579,-1.0534,-1.1429,-1.1952,-1.2277,-1.2443,-1.2534,-1.2454,-1.2363,-1.2277,-1.2192,-1.1935,-1.1596,-1.151,-1.1338,-1.1084,-1.0916,-1.0814,-1.0651,-1.0555,-1.0434,-0.9931,-0.9461,-0.9133,-0.8786,-0.8508,-0.8064,-0.7627,3.1849,3.1661,3.1661,3.1661,3.1661,3.1661,3.1661,3.1749,3.1761,3.1761,3.1761,3.195,3.2025,3.2213,3.2736,3.3313,3.381,3.423,3.4607,3.4806,3.4701,3.4537,3.4421,3.3485,3.3084,3.2746,3.2206,3.177,3.1743,3.1817,3.1716,3.1443,3.1141,3.0797,3.0378,2.9778,2.8945,2.8906,2.8754,2.8935,2.9289,2.9477,2.9803,3.0097,3.0341,3.0522,3.0821,3.094,3.0999,3.1202,3.133,3.1558,3.181,3.1962,3.2112,3.2199,3.2207,3.2159,3.2289,3.2825,3.3233,3.3333,3.3532,3.3958,3.42,3.4625,3.4914,3.5694,3.6232,3.6658,3.7166,3.7851,3.8499,3.9034,3.9467,3.9887,4.0238,4.0488,3.9026,3.7829,3.1347,2.1409,1.1784,0.283,-0.4996,-0.6151,-0.7302,-0.8352,-0.941,-1.0386,-1.1084,-1.1322,-1.158,-1.1677,-1.1677,-1.1671,-1.1585,-1.1671,-1.1419,-1.1079,-1.0992,-1.0819,-1.0727,-1.0559,-1.0559,-1.0386,-1.0183,-0.9957,-0.9809,-0.9397,-0.8883,-0.8497,-0.8106,-0.7694,-0.7242,3.2288,3.1849,3.1837,3.1849,3.1661,3.1661,3.1661,3.1661,3.1661,3.1661,3.1661,3.1761,3.1849,3.2125,3.2562,3.2982,3.3556,3.3979,3.4577,3.5086,3.5023,3.4928,3.4695,3.4272,3.3865,3.3132,3.2705,3.2334,3.2112,3.1757,3.1669,3.1629,3.1562,3.1312,3.094,3.0365,2.9923,2.9603,2.9228,2.9056,2.9196,2.9289,2.9554,3.005,3.0172,3.0401,3.0642,3.0762,3.0821,3.1058,3.1219,3.1452,3.1625,3.1781,3.1936,3.1977,3.2041,3.2199,3.2482,3.2992,3.3193,3.3298,3.3403,3.3563,3.3885,3.435,3.4849,3.5253,3.5837,3.6374,3.6882,3.7415,3.7993,3.8548,3.9061,3.9538,3.9928,4.0255,3.989,3.9103,3.76,2.8445,1.9266,1.0651,0.2044,-0.3712,-0.5515,-0.7302,-0.8444,-0.9506,-0.9937,-1.0188,-1.0539,-1.0814,-1.0814,-1.0727,-1.0722,-1.0722,-1.0641,-1.0386,-1.0386,-1.0299,-1.012,-0.9946,-0.9689,-0.9602,-0.9515,-0.9492,-0.936,-0.8987,-0.8529,-0.8076,-0.765,-0.7282,-0.6777,3.297,3.2376,3.2213,3.1937,3.1761,3.1761,3.1761,3.1661,3.1661,3.1661,3.1749,3.1749,3.1937,3.2201,3.2475,3.2896,3.3484,3.3823,3.441,3.4921,3.5209,3.5224,3.514,3.4855,3.4326,3.3547,3.3193,3.2833,3.2448,3.2058,3.1743,3.1669,3.1763,3.1575,3.1253,3.082,3.0516,3.0008,2.9577,2.9414,2.9421,2.9361,2.9631,2.9922,3.0111,3.0233,3.0568,3.0687,3.0762,3.0821,3.0999,3.1176,3.1234,3.1409,3.1509,3.1567,3.1649,3.1875,3.2195,3.2563,3.2773,3.2796,3.2926,3.3156,3.3487,3.3899,3.43,3.4675,3.5241,3.5749,3.6249,3.6865,3.7488,3.8041,3.8578,3.9096,3.9584,3.9948,4.0287,3.9955,3.9112,3.8191,2.9047,1.9891,1.0667,0.1093,-0.3328,-0.6022,-0.7394,-0.854,-0.9065,-0.9318,-0.9671,-0.9941,-0.9941,-0.9941,-0.9854,-0.9772,-0.9685,-0.9685,-0.9598,-0.951,-0.9428,-0.9165,-0.8903,-0.8727,-0.8727,-0.8819,-0.8819,-0.8432,-0.7975,-0.7643,-0.7197,-0.6792,-0.6239,3.3738,3.324,3.2636,3.2213,3.2025,3.2025,3.1849,3.1761,3.1761,3.1749,3.1761,3.195,3.2213,3.255,3.2723,3.3056,3.3628,3.3725,3.4314,3.4908,3.5141,3.5507,3.5518,3.5312,3.4879,3.4667,3.4039,3.3418,3.2962,3.2581,3.2171,3.189,3.2004,3.1817,3.1516,3.1168,3.0757,3.0288,3.0019,2.9943,2.9923,2.9951,3.0107,3.0154,3.0183,3.0248,3.0611,3.0744,3.0744,3.0758,3.085,3.0881,3.094,3.1073,3.119,3.1249,3.1351,3.1554,3.186,3.214,3.2247,3.2342,3.2508,3.2827,3.3253,3.3446,3.3761,3.4216,3.4822,3.5241,3.5793,3.6333,3.6981,3.7596,3.819,3.8696,3.92,3.9652,4.0005,4.0354,3.9974,3.9121,3.8306,2.9014,1.8621,0.8928,-0.2311,-0.5359,-0.6425,-0.7485,-0.8101,-0.8536,-0.8803,-0.9065,-0.9235,-0.9152,-0.9157,-0.8982,-0.8899,-0.8807,-0.8719,-0.8636,-0.8552,-0.8372,-0.8113,-0.8025,-0.7764,-0.7672,-0.7672,-0.7584,-0.7316,-0.6786,-0.634,-0.5899,-0.5277,3.423,3.381,3.3569,3.3068,3.2376,3.2288,3.2213,3.2125,3.2113,3.2113,3.2113,3.2213,3.2388,3.2723,3.2896,3.324,3.3725,3.4063,3.4577,3.499,3.5399,3.5737,3.5855,3.5891,3.5696,3.5311,3.4747,3.4348,3.4004,3.3381,3.3147,3.2864,3.2386,3.2136,3.1829,3.1535,3.1119,3.0815,3.0683,3.0705,3.0553,3.0748,3.0914,3.1247,3.1254,3.1444,3.1666,3.1351,3.1221,3.1061,3.0875,3.0862,3.0833,3.0953,3.1013,3.1072,3.1205,3.1457,3.1753,3.1925,3.1925,3.2033,3.2231,3.2653,3.3231,3.3325,3.3678,3.415,3.4543,3.5033,3.5304,3.5941,3.658,3.719,3.7827,3.8483,3.9081,3.9639,4.0079,4.0578,4.0581,4.016,3.9511,3.7957,2.7259,1.6528,0.507,-0.4387,-0.5466,-0.6385,-0.7022,-0.7567,-0.7838,-0.7997,-0.817,-0.8236,-0.8384,-0.8224,-0.8059,-0.797,-0.7808,-0.7669,-0.7584,-0.7496,-0.7316,-0.7051,-0.6786,-0.6523,-0.6523,-0.6697,-0.6346,-0.5816,-0.5369,-0.4921,-0.4565,3.4881,3.4494,3.441,3.3823,3.297,3.2723,3.2649,3.255,3.2562,3.2649,3.2723,3.2736,3.2896,3.3068,3.3313,3.3654,3.4063,3.4481,3.4895,3.5223,3.5642,3.5978,3.6232,3.6243,3.6129,3.582,3.5543,3.5134,3.4803,3.427,3.3822,3.3459,3.3038,3.2673,3.2169,3.1996,3.1662,3.1451,3.1446,3.1443,3.1267,3.1455,3.1594,3.1968,3.1969,3.2162,3.2329,3.213,3.197,3.1839,3.1635,3.1311,3.1238,3.1209,3.127,3.1331,3.145,3.1762,3.2106,3.2273,3.2284,3.2579,3.2722,3.3138,3.3444,3.3572,3.4132,3.4548,3.4816,3.5053,3.5397,3.6308,3.7094,3.7848,3.8424,3.9065,3.9612,4.0141,4.0478,4.084,4.0941,4.1309,4.1162,3.9735,3.003,1.9556,0.9284,-0.0,-0.4274,-0.5204,-0.5877,-0.6333,-0.6788,-0.6947,-0.7105,-0.7134,-0.7255,-0.7177,-0.708,-0.7011,-0.6902,-0.6774,-0.6631,-0.6435,-0.6254,-0.5985,-0.5719,-0.5453,-0.5633,-0.5988,-0.5547,-0.4926,-0.4569,-0.421,-0.403,3.5723,3.5399,3.5154,3.4494,3.3556,3.3386,3.3215,3.3129,3.3043,3.3227,3.3398,3.3398,3.3654,3.3992,3.4076,3.4314,3.4634,3.4977,3.5318,3.5629,3.5965,3.6298,3.647,3.6522,3.6559,3.6462,3.6128,3.5717,3.5488,3.4968,3.4455,3.3965,3.3643,3.3083,3.2472,3.2082,3.2023,3.2155,3.2173,3.1993,3.2014,3.2234,3.2334,3.2477,3.2623,3.2875,3.3025,3.2996,3.2864,3.2757,3.2533,3.2309,3.2261,3.2242,3.2256,3.23,3.2358,3.2572,3.296,3.3117,3.3274,3.3276,3.3319,3.38,3.4161,3.4423,3.4665,3.5068,3.537,3.5856,3.6514,3.7152,3.7716,3.8322,3.8883,3.9437,3.9961,4.0454,4.0784,4.1136,4.1923,4.2546,4.2602,4.025,3.1224,2.168,1.2429,0.5414,0.0085,-0.38,-0.4475,-0.5039,-0.5498,-0.5871,-0.5958,-0.6018,-0.6051,-0.6062,-0.6123,-0.6048,-0.6012,-0.5907,-0.5756,-0.5499,-0.5305,-0.5053,-0.4672,-0.4293,-0.4563,-0.4741,-0.4654,-0.421,-0.3855,-0.3587,-0.3406,3.6415,3.599,3.5924,3.5521,3.4881,3.4314,3.3979,3.3979,3.3882,3.3966,3.4063,3.4063,3.4314,3.466,3.4825,3.4977,3.5386,3.5535,3.5871,3.5951,3.6284,3.6457,3.6707,3.6772,3.685,3.6808,3.657,3.6473,3.6501,3.5899,3.5591,3.5241,3.4297,3.337,3.2798,3.2516,3.2503,3.2574,3.2618,3.2735,3.2793,3.3044,3.3275,3.3489,3.3659,3.3828,3.3994,3.3814,3.3652,3.3544,3.3353,3.301,3.2932,3.2932,3.2889,3.2845,3.2845,3.3147,3.3735,3.4085,3.3984,3.3785,3.3789,3.4303,3.4561,3.4642,3.5,3.5477,3.5823,3.6194,3.6473,3.7087,3.7702,3.827,3.8831,3.9465,4.0022,4.0571,4.1021,4.1418,4.2084,4.2709,4.298,4.3132,3.5786,2.8732,2.0375,1.3359,0.7744,0.0443,-0.3027,-0.369,-0.4163,-0.4549,-0.4851,-0.5088,-0.5288,-0.5468,-0.5344,-0.52,-0.5179,-0.5085,-0.4844,-0.4597,-0.4302,-0.4012,-0.3791,-0.3492,-0.3315,-0.3317,-0.3496,-0.3583,-0.3406,-0.305,-0.2782,3.6978,3.6638,3.6638,3.648,3.6031,3.5209,3.4812,3.4812,3.4895,3.4812,3.4895,3.4895,3.5059,3.5318,3.5467,3.5642,3.5965,3.627,3.635,3.6429,3.6836,3.7007,3.7084,3.7148,3.724,3.724,3.7226,3.7197,3.7155,3.6801,3.6386,3.5845,3.498,3.4119,3.3431,3.2982,3.2704,3.2789,3.2988,3.3213,3.3395,3.3756,3.4045,3.4341,3.4543,3.4743,3.4802,3.4727,3.4495,3.4283,3.4046,3.3672,3.3672,3.3687,3.3623,3.3638,3.376,3.4046,3.4525,3.5006,3.4726,3.4115,3.4409,3.4866,3.5294,3.549,3.5851,3.6193,3.6346,3.6701,3.7064,3.7647,3.8202,3.8828,3.9485,4.0147,4.0745,4.1289,4.1831,4.221,4.2637,4.3107,4.3503,4.3451,4.1284,3.5087,2.8838,2.1923,1.451,0.6179,-0.0852,-0.2126,-0.2811,-0.3309,-0.3804,-0.4306,-0.4499,-0.4766,-0.4552,-0.4148,-0.4231,-0.4135,-0.3894,-0.375,-0.3527,-0.3304,-0.2981,-0.278,-0.2606,-0.2604,-0.2781,-0.278,-0.2868,-0.2601,-0.2334,3.7534,3.738,3.7317,3.7226,3.69,3.6191,3.579,3.571,3.571,3.571,3.571,3.571,3.5871,3.6031,3.6243,3.6336,3.6549,3.7007,3.707,3.7056,3.7303,3.7471,3.7471,3.7534,3.7471,3.7548,3.7534,3.7457,3.7534,3.7405,3.703,3.6396,3.5638,3.493,3.4223,3.3547,3.3169,3.3199,3.3297,3.3577,3.3854,3.4196,3.4481,3.4817,3.5016,3.5213,3.5299,3.529,3.529,3.5225,3.5145,3.5044,3.5008,3.4905,3.4905,3.4942,3.4999,3.5065,3.521,3.5544,3.5552,3.518,3.5657,3.6119,3.6338,3.6414,3.6609,3.6955,3.7197,3.7703,3.8237,3.8797,3.9377,4.0012,4.0649,4.1218,4.1831,4.2348,4.2886,4.3324,4.3791,4.4247,4.4605,4.4628,4.3965,4.0762,3.4499,2.8023,1.9964,0.9345,0.3096,-0.0497,-0.1196,-0.2004,-0.2505,-0.2785,-0.3081,-0.3064,-0.3079,-0.2974,-0.3061,-0.3135,-0.2813,-0.2582,-0.2724,-0.2409,-0.1838,-0.1729,-0.1894,-0.1893,-0.1623,-0.2243,-0.2242,-0.2153,-0.1974,3.8337,3.8142,3.8142,3.8052,3.7825,3.7429,3.7028,3.6665,3.6665,3.6587,3.6665,3.6587,3.6665,3.6915,3.6978,3.7056,3.7226,3.7394,3.7457,3.7534,3.761,3.761,3.761,3.761,3.761,3.761,3.761,3.761,3.761,3.761,3.731,3.6636,3.639,3.5906,3.525,3.4626,3.4129,3.3747,3.3829,3.3991,3.4264,3.4601,3.4883,3.5213,3.5394,3.5589,3.5718,3.5797,3.5733,3.5733,3.5797,3.5733,3.5718,3.5653,3.5638,3.5479,3.5529,3.5544,3.5638,3.5894,3.5993,3.5997,3.6338,3.6616,3.6847,3.703,3.721,3.7433,3.777,3.8189,3.8655,3.9185,3.9713,4.0254,4.0884,4.1401,4.1948,4.248,4.3014,4.3693,4.4221,4.461,4.509,4.5148,4.441,4.33,3.9918,3.3513,2.5211,1.4561,0.7509,0.3908,0.0705,-0.0,-0.0403,-0.0701,-0.1005,-0.1308,-0.1209,-0.1309,-0.1402,-0.1391,-0.1384,-0.117,-0.086,-0.0662,-0.0283,-0.0279,-0.0092,-0.0182,-0.0091,-0.0993,-0.1616,-0.1437,-0.1257,3.8723,3.8649,3.8649,3.8575,3.8427,3.8337,3.8037,3.7658,3.7366,3.7226,3.7226,3.7226,3.7303,3.738,3.7471,3.7548,3.7534,3.7763,3.7839,3.7701,3.7777,3.7839,3.7825,3.7825,3.7839,3.7839,3.7839,3.7915,3.7839,3.7749,3.7429,3.7229,3.7204,3.6802,3.6329,3.6029,3.561,3.5033,3.464,3.4569,3.4765,3.5045,3.5359,3.5604,3.5767,3.5894,3.5973,3.6052,3.6052,3.5988,3.5988,3.5988,3.5988,3.5988,3.5973,3.5816,3.5831,3.5816,3.5943,3.6148,3.6229,3.6399,3.6751,3.7288,3.7487,3.7607,3.7614,3.777,3.8116,3.8455,3.8914,3.9362,3.9781,4.0255,4.0789,4.1283,4.1821,4.236,4.2996,4.3726,4.421,4.4648,4.4924,4.5113,4.511,4.441,4.2682,3.8611,2.9901,1.9419,1.3186,0.906,0.4966,0.2015,0.1713,0.1511,0.1309,0.1108,0.1007,0.0907,0.0605,0.0402,0.0398,0.0787,0.1166,0.1349,0.1435,0.1798,0.1963,0.1766,0.1661,0.1098,0.0363,-0.018,-0.0,3.887,3.887,3.887,3.8855,3.8782,3.8782,3.8797,3.8708,3.7991,3.7701,3.7687,3.7701,3.7763,3.7825,3.7991,3.7915,3.7991,3.8052,3.8066,3.7929,3.8066,3.8127,3.8127,3.8202,3.8066,3.8127,3.8202,3.8127,3.8142,3.8127,3.8052,3.8005,3.7994,3.7721,3.7375,3.736,3.7063,3.6803,3.5908,3.5347,3.5568,3.5674,3.5793,3.5988,3.61,3.6163,3.61,3.61,3.6115,3.6115,3.6115,3.6178,3.6178,3.6115,3.61,3.61,3.6085,3.6148,3.6258,3.6523,3.6584,3.6781,3.7128,3.7871,3.8142,3.8019,3.795,3.8173,3.8511,3.8898,3.9292,3.9713,4.0138,4.0534,4.0931,4.1373,4.1839,4.248,4.3231,4.3841,4.4258,4.464,4.4846,4.5042,4.5132,4.5029,4.4166,4.1419,3.5213,2.4885,1.8147,1.3601,0.786,0.3906,0.3524,0.3423,0.3627,0.3629,0.3324,0.3021,0.2516,0.231,0.2204,0.2482,0.2756,0.3027,0.3196,0.3265,0.3342,0.3422,0.3299,0.3258,0.2671,0.1643,0.1354,3.9265,3.9265,3.9265,3.9177,3.9031,3.9031,3.8943,3.8782,3.8634,3.8501,3.8501,3.8501,3.8501,3.8412,3.8501,3.8412,3.8486,3.8352,3.8366,3.8292,3.8277,3.8277,3.8202,3.8277,3.8277,3.8202,3.8202,3.8337,3.8427,3.8501,3.8575,3.8575,3.8708,3.862,3.8458,3.8451,3.8332,3.837,3.7752,3.6805,3.6673,3.6816,3.6901,3.6769,3.6646,3.6801,3.6786,3.6739,3.6785,3.6754,3.6754,3.6754,3.6754,3.6616,3.6476,3.6414,3.6461,3.6523,3.6708,3.6921,3.7053,3.7212,3.7626,3.8375,3.8675,3.8416,3.8391,3.8694,3.8952,3.9329,3.9661,4.007,4.0468,4.0806,4.1117,4.1552,4.1941,4.2714,4.3458,4.3905,4.4306,4.456,4.477,4.4919,4.5014,4.5087,4.5156,4.3216,3.953,3.1586,2.2418,1.6798,0.9469,0.5854,0.5404,0.5229,0.5432,0.5229,0.4922,0.4624,0.4425,0.4316,0.4209,0.4112,0.4193,0.4455,0.4426,0.4118,0.4291,0.4661,0.461,0.4454,0.4246,0.3466,0.3125,3.9424,3.9424,3.9424,3.9337,3.925,3.9265,3.9192,3.9104,3.9104,3.9017,3.9031,3.8855,3.8782,3.8782,3.8782,3.8782,3.8782,3.8708,3.8649,3.8575,3.8501,3.8501,3.8501,3.8412,3.8486,3.8486,3.8501,3.8575,3.8649,3.8797,3.8943,3.9017,3.9235,3.9436,3.9463,3.9345,3.9443,3.9734,3.9425,3.8918,3.8177,3.8175,3.8151,3.7873,3.7857,3.7872,3.7529,3.7482,3.7249,3.7108,3.6938,3.6938,3.6938,3.6862,3.68,3.68,3.6846,3.6968,3.7134,3.7326,3.7526,3.7694,3.8084,3.877,3.9478,3.9237,3.9056,3.9329,3.9454,3.9782,4.0154,4.0517,4.0741,4.1071,4.1463,4.1839,4.24,4.3051,4.3627,4.4042,4.4374,4.4605,4.477,4.487,4.4986,4.4991,4.5061,4.5103,4.1488,3.6144,2.7614,2.0132,1.2972,0.8279,0.7099,0.7024,0.7223,0.6921,0.6614,0.6716,0.6714,0.642,0.6221,0.6116,0.6019,0.5917,0.5884,0.5654,0.5659,0.594,0.5766,0.5494,0.5384,0.5272,0.4991,3.9481,3.9409,3.9424,3.9424,3.9424,3.9424,3.9352,3.9352,3.9424,3.9352,3.9352,3.909,3.8943,3.887,3.8855,3.887,3.887,3.8855,3.8855,3.8797,3.8797,3.8708,3.8708,3.8782,3.8708,3.8782,3.8782,3.887,3.8958,3.9162,3.9364,3.9379,3.9666,4.0091,4.0146,4.0424,4.0706,4.0811,4.0794,4.0817,4.035,3.9753,3.9376,3.933,3.9346,3.9062,3.8684,3.8277,3.7949,3.7714,3.7526,3.7447,3.7338,3.7306,3.7105,3.7089,3.7254,3.7358,3.7535,3.7812,3.7987,3.8165,3.8613,3.916,3.9821,3.9981,3.9796,3.9935,4.0104,4.0269,4.0645,4.0977,4.1163,4.1401,4.1821,4.2279,4.2865,4.3424,4.3823,4.4192,4.4439,4.4685,4.4789,4.4889,4.4919,4.4943,4.4919,4.4938,4.2953,3.6289,2.8782,2.2782,1.6775,1.2867,0.955,0.9095,0.9292,0.9099,0.8989,0.8996,0.9,0.87,0.8502,0.8312,0.8117,0.7918,0.7624,0.739,0.7409,0.7412,0.7153,0.6863,0.6854,0.6822,0.6646,3.9783,3.9625,3.961,3.9568,3.9424,3.9424,3.9424,3.9424,3.9424,3.9424,3.9424,3.9538,3.9466,3.9265,3.9265,3.9265,3.925,3.9162,3.909,3.9017,3.9017,3.8855,3.8855,3.9002,3.8855,3.8929,3.9162,3.925,3.9451,3.9793,4.0005,4.0005,4.0578,4.0851,4.0904,4.1189,4.1472,4.1604,4.1686,4.1658,4.1548,4.0928,4.0229,4.0038,3.9845,3.9843,3.9747,3.9731,3.9668,3.9367,3.8817,3.8518,3.8267,3.8014,3.7749,3.7666,3.7828,3.7918,3.8091,3.8383,3.8509,3.8472,3.8999,3.9621,4.0103,4.0307,4.0373,4.0751,4.0862,4.0871,4.1169,4.1525,4.1788,4.1931,4.2244,4.2792,4.3336,4.3726,4.406,4.4374,4.4621,4.4796,4.4895,4.4991,4.5042,4.5042,4.5042,4.4909,4.4074,3.7157,2.9884,2.5313,2.0396,1.5562,1.1541,1.1439,1.1439,1.1351,1.1356,1.1341,1.1341,1.1068,1.0872,1.0569,1.0181,0.9887,0.9596,0.9201,0.9008,0.9,0.8612,0.8379,0.8361,0.8224,0.8125]}]]